Wetterdaten: Samstag, 29.10.2016
Datum Zeit Temp. A. Temp. A. max Feuchte A. Luftdruck Regen Wind Richtung Richtung Sonnenschein ET UV Solar Taupunkt Windböen
29.10.2016 00:00 2,5 °C 2,5 °C 95 % 1035,4 hPa 0,0 mm 2,8 km/h (1 Bft) O 101 ° 0 min 0,000 mm 0,0 UV-I 0 W/m² 1,8 °C 3,2 km/h (1 Bft)
29.10.2016 00:01 2,6 °C 2,6 °C 95 % 1035,3 hPa 0,0 mm 3,8 km/h (1 Bft) O 101 ° 0 min 0,000 mm 0,0 UV-I 0 W/m² 1,9 °C 4,8 km/h (1 Bft)
29.10.2016 00:03 2,7 °C 2,7 °C 95 % 1035,3 hPa 0,0 mm 3,2 km/h (1 Bft) O 101 ° 0 min 0,000 mm 0,0 UV-I 0 W/m² 2,0 °C 4,8 km/h (1 Bft)
29.10.2016 00:04 2,7 °C 2,7 °C 95 % 1035,2 hPa 0,0 mm 3,1 km/h (1 Bft) O-SO 108 ° 0 min 0,000 mm 0,0 UV-I 0 W/m² 2,0 °C 4,8 km/h (1 Bft)
29.10.2016 00:05 2,8 °C 2,8 °C 95 % 1035,2 hPa 0,0 mm 2,9 km/h (1 Bft) SO 139 ° 0 min 0,000 mm 0,0 UV-I 0 W/m² 2,1 °C 4,8 km/h (1 Bft)
29.10.2016 00:06 2,8 °C 2,8 °C 95 % 1035,2 hPa 0,0 mm 2,5 km/h (1 Bft) S-SO 157 ° 0 min 0,000 mm 0,0 UV-I 0 W/m² 2,1 °C 4,8 km/h (1 Bft)
29.10.2016 00:07 2,8 °C 2,9 °C 95 % 1035,2 hPa 0,0 mm 2,9 km/h (1 Bft) S-SO 157 ° 0 min 0,000 mm 0,0 UV-I 0 W/m² 2,1 °C 4,8 km/h (1 Bft)
29.10.2016 00:08 2,8 °C 2,9 °C 95 % 1035,0 hPa 0,0 mm 5,1 km/h (1 Bft) S 189 ° 0 min 0,000 mm 0,0 UV-I 0 W/m² 2,1 °C 6,4 km/h (2 Bft)
29.10.2016 00:09 2,8 °C 2,8 °C 95 % 1035,0 hPa 0,0 mm 4,8 km/h (1 Bft) S-SW 198 ° 0 min 0,000 mm 0,0 UV-I 0 W/m² 2,1 °C 4,8 km/h (1 Bft)
29.10.2016 00:10 2,8 °C 2,8 °C 94 % 1035,0 hPa 0,0 mm 5,3 km/h (1 Bft) S 189 ° 0 min 0,000 mm 0,0 UV-I 0 W/m² 1,9 °C 6,4 km/h (2 Bft)
29.10.2016 00:11 2,8 °C 2,8 °C 94 % 1034,9 hPa 0,0 mm 4,1 km/h (1 Bft) S-SW 209 ° 0 min 0,000 mm 0,0 UV-I 0 W/m² 1,9 °C 4,8 km/h (1 Bft)
29.10.2016 00:12 2,8 °C 2,8 °C 94 % 1034,8 hPa 0,0 mm 1,3 km/h (1 Bft) S-SW 209 ° 0 min 0,000 mm 0,0 UV-I 0 W/m² 1,9 °C 3,2 km/h (1 Bft)
29.10.2016 00:13 2,7 °C 2,8 °C 94 % 1034,8 hPa 0,0 mm 0,5 km/h (0 Bft) S-SW 209 ° 0 min 0,000 mm 0,0 UV-I 0 W/m² 1,8 °C 1,6 km/h (1 Bft)
29.10.2016 00:14 2,8 °C 2,8 °C 94 % 1034,9 hPa 0,0 mm 0,1 km/h (0 Bft) S-SW 209 ° 0 min 0,000 mm 0,0 UV-I 0 W/m² 1,9 °C 1,6 km/h (1 Bft)
29.10.2016 00:15 2,8 °C 2,8 °C 94 % 1034,9 hPa 0,0 mm 0,1 km/h (0 Bft) S-SW 209 ° 0 min 0,000 mm 0,0 UV-I 0 W/m² 1,9 °C 1,6 km/h (1 Bft)
29.10.2016 00:16 2,7 °C 2,8 °C 94 % 1034,8 hPa 0,0 mm 1,0 km/h (0 Bft) SW 215 ° 0 min 0,000 mm 0,0 UV-I 0 W/m² 1,8 °C 1,6 km/h (1 Bft)
29.10.2016 00:17 2,6 °C 2,7 °C 93 % 1034,8 hPa 0,0 mm 0,7 km/h (0 Bft) SW 215 ° 0 min 0,000 mm 0,0 UV-I 0 W/m² 1,6 °C 1,6 km/h (1 Bft)
29.10.2016 00:18 2,4 °C 2,6 °C 93 % 1034,8 hPa 0,0 mm 0,3 km/h (0 Bft) SW 215 ° 0 min 0,000 mm 0,0 UV-I 0 W/m² 1,4 °C 1,6 km/h (1 Bft)
29.10.2016 00:19 2,3 °C 2,4 °C 93 % 1034,8 hPa 0,0 mm 0,0 km/h (0 Bft) SW 215 ° 0 min 0,000 mm 0,0 UV-I 0 W/m² 1,3 °C 0,0 km/h (0 Bft)
29.10.2016 00:20 2,3 °C 2,3 °C 93 % 1034,7 hPa 0,0 mm 0,1 km/h (0 Bft) SW 215 ° 0 min 0,000 mm 0,0 UV-I 0 W/m² 1,3 °C 1,6 km/h (1 Bft)
29.10.2016 00:21 2,2 °C 2,3 °C 93 % 1034,7 hPa 0,0 mm 0,4 km/h (0 Bft) SW 215 ° 0 min 0,000 mm 0,0 UV-I 0 W/m² 1,2 °C 1,6 km/h (1 Bft)
29.10.2016 00:22 2,2 °C 2,2 °C 93 % 1034,7 hPa 0,0 mm 0,6 km/h (0 Bft) SW 215 ° 0 min 0,000 mm 0,0 UV-I 0 W/m² 1,2 °C 1,6 km/h (1 Bft)
29.10.2016 00:23 2,2 °C 2,2 °C 94 % 1034,7 hPa 0,0 mm 1,0 km/h (0 Bft) SW 215 ° 0 min 0,000 mm 0,0 UV-I 0 W/m² 1,3 °C 1,6 km/h (1 Bft)
29.10.2016 00:24 2,3 °C 2,3 °C 94 % 1034,8 hPa 0,0 mm 0,4 km/h (0 Bft) SW 215 ° 0 min 0,000 mm 0,0 UV-I 0 W/m² 1,4 °C 1,6 km/h (1 Bft)
29.10.2016 00:25 2,3 °C 2,3 °C 94 % 1034,8 hPa 0,0 mm 0,0 km/h (0 Bft) SW 215 ° 0 min 0,000 mm 0,0 UV-I 0 W/m² 1,4 °C 0,0 km/h (0 Bft)
29.10.2016 00:26 2,3 °C 2,3 °C 94 % 1034,8 hPa 0,0 mm 0,3 km/h (0 Bft) SW 215 ° 0 min 0,000 mm 0,0 UV-I 0 W/m² 1,4 °C 1,6 km/h (1 Bft)
29.10.2016 00:27 2,3 °C 2,3 °C 94 % 1034,8 hPa 0,0 mm 0,9 km/h (0 Bft) SW 215 ° 0 min 0,000 mm 0,0 UV-I 0 W/m² 1,4 °C 1,6 km/h (1 Bft)
29.10.2016 00:28 2,2 °C 2,3 °C 94 % 1034,8 hPa 0,0 mm 1,9 km/h (1 Bft) SW 215 ° 0 min 0,000 mm 0,0 UV-I 0 W/m² 1,3 °C 3,2 km/h (1 Bft)
29.10.2016 00:29 2,2 °C 2,2 °C 94 % 1034,9 hPa 0,0 mm 2,1 km/h (1 Bft) S-SW 209 ° 0 min 0,000 mm 0,0 UV-I 0 W/m² 1,3 °C 3,2 km/h (1 Bft)
29.10.2016 00:30 2,1 °C 2,2 °C 94 % 1034,9 hPa 0,0 mm 2,3 km/h (1 Bft) O-SO 123 ° 0 min 0,000 mm 0,0 UV-I 0 W/m² 1,2 °C 3,2 km/h (1 Bft)
29.10.2016 00:31 2,1 °C 2,1 °C 94 % 1035,0 hPa 0,0 mm 4,8 km/h (1 Bft) O 92 ° 0 min 0,000 mm 0,0 UV-I 0 W/m² 1,2 °C 6,4 km/h (2 Bft)
29.10.2016 00:32 2,1 °C 2,1 °C 94 % 1035,0 hPa 0,0 mm 3,8 km/h (1 Bft) O 91 ° 0 min 0,000 mm 0,0 UV-I 0 W/m² 1,2 °C 4,8 km/h (1 Bft)
29.10.2016 00:33 2,1 °C 2,1 °C 94 % 1035,0 hPa 0,0 mm 4,1 km/h (1 Bft) O-NO 76 ° 0 min 0,000 mm 0,0 UV-I 0 W/m² 1,2 °C 4,8 km/h (1 Bft)
29.10.2016 00:34 2,2 °C 2,2 °C 94 % 1035,0 hPa 0,0 mm 3,5 km/h (1 Bft) O-NO 76 ° 0 min 0,000 mm 0,0 UV-I 0 W/m² 1,3 °C 4,8 km/h (1 Bft)
29.10.2016 00:35 2,3 °C 2,3 °C 95 % 1035,0 hPa 0,0 mm 4,2 km/h (1 Bft) O-NO 73 ° 0 min 0,000 mm 0,0 UV-I 0 W/m² 1,6 °C 6,4 km/h (2 Bft)
29.10.2016 00:36 2,3 °C 2,3 °C 95 % 1035,0 hPa 0,0 mm 2,7 km/h (1 Bft) O 91 ° 0 min 0,000 mm 0,0 UV-I 0 W/m² 1,6 °C 4,8 km/h (1 Bft)
29.10.2016 00:37 2,4 °C 2,4 °C 95 % 1035,0 hPa 0,0 mm 1,6 km/h (1 Bft) O 91 ° 0 min 0,000 mm 0,0 UV-I 0 W/m² 1,7 °C 3,2 km/h (1 Bft)
29.10.2016 00:38 2,5 °C 2,5 °C 95 % 1035,0 hPa 0,0 mm 0,6 km/h (0 Bft) O 91 ° 0 min 0,000 mm 0,0 UV-I 0 W/m² 1,8 °C 1,6 km/h (1 Bft)
29.10.2016 00:39 2,6 °C 2,6 °C 95 % 1035,0 hPa 0,0 mm 0,7 km/h (0 Bft) O 91 ° 0 min 0,000 mm 0,0 UV-I 0 W/m² 1,9 °C 1,6 km/h (1 Bft)
29.10.2016 00:40 2,7 °C 2,7 °C 95 % 1035,0 hPa 0,0 mm 0,2 km/h (0 Bft) O 91 ° 0 min 0,000 mm 0,0 UV-I 0 W/m² 2,0 °C 1,6 km/h (1 Bft)
29.10.2016 00:41 2,7 °C 2,7 °C 95 % 1035,0 hPa 0,0 mm 0,0 km/h (0 Bft) O 91 ° 0 min 0,000 mm 0,0 UV-I 0 W/m² 2,0 °C 0,0 km/h (0 Bft)
29.10.2016 00:42 2,7 °C 2,7 °C 94 % 1034,9 hPa 0,0 mm 0,0 km/h (0 Bft) O 91 ° 0 min 0,000 mm 0,0 UV-I 0 W/m² 1,8 °C 0,0 km/h (0 Bft)
29.10.2016 00:43 2,7 °C 2,8 °C 95 % 1034,9 hPa 0,0 mm 0,2 km/h (0 Bft) O 91 ° 0 min 0,000 mm 0,0 UV-I 0 W/m² 2,0 °C 1,6 km/h (1 Bft)
29.10.2016 00:44 2,7 °C 2,7 °C 94 % 1034,9 hPa 0,0 mm 0,6 km/h (0 Bft) O 91 ° 0 min 0,000 mm 0,0 UV-I 0 W/m² 1,8 °C 1,6 km/h (1 Bft)
29.10.2016 00:45 2,6 °C 2,7 °C 94 % 1034,9 hPa 0,0 mm 0,4 km/h (0 Bft) O 91 ° 0 min 0,000 mm 0,0 UV-I 0 W/m² 1,7 °C 1,6 km/h (1 Bft)
29.10.2016 00:46 2,6 °C 2,6 °C 94 % 1034,9 hPa 0,0 mm 0,6 km/h (0 Bft) O 91 ° 0 min 0,000 mm 0,0 UV-I 0 W/m² 1,7 °C 1,6 km/h (1 Bft)
29.10.2016 00:47 2,6 °C 2,6 °C 94 % 1034,9 hPa 0,0 mm 0,0 km/h (0 Bft) O 91 ° 0 min 0,000 mm 0,0 UV-I 0 W/m² 1,7 °C 0,0 km/h (0 Bft)
29.10.2016 00:48 2,6 °C 2,6 °C 93 % 1034,9 hPa 0,0 mm 0,2 km/h (0 Bft) O 91 ° 0 min 0,000 mm 0,0 UV-I 0 W/m² 1,6 °C 1,6 km/h (1 Bft)
29.10.2016 00:49 2,6 °C 2,6 °C 93 % 1034,9 hPa 0,0 mm 0,0 km/h (0 Bft) O 91 ° 0 min 0,000 mm 0,0 UV-I 0 W/m² 1,6 °C 0,0 km/h (0 Bft)
29.10.2016 00:50 2,5 °C 2,6 °C 93 % 1034,9 hPa 0,0 mm 0,0 km/h (0 Bft) O 91 ° 0 min 0,000 mm 0,0 UV-I 0 W/m² 1,5 °C 0,0 km/h (0 Bft)
29.10.2016 00:51 2,4 °C 2,5 °C 94 % 1034,9 hPa 0,0 mm 0,0 km/h (0 Bft) O 91 ° 0 min 0,000 mm 0,0 UV-I 0 W/m² 1,5 °C 0,0 km/h (0 Bft)
29.10.2016 00:52 2,4 °C 2,4 °C 93 % 1034,9 hPa 0,0 mm 0,0 km/h (0 Bft) O 91 ° 0 min 0,000 mm 0,0 UV-I 0 W/m² 1,4 °C 0,0 km/h (0 Bft)
29.10.2016 00:53 2,3 °C 2,4 °C 93 % 1034,9 hPa 0,0 mm 0,0 km/h (0 Bft) O 91 ° 0 min 0,000 mm 0,0 UV-I 0 W/m² 1,3 °C 0,0 km/h (0 Bft)
29.10.2016 00:54 2,3 °C 2,3 °C 93 % 1034,9 hPa 0,0 mm 0,3 km/h (0 Bft) O 91 ° 0 min 0,000 mm 0,0 UV-I 0 W/m² 1,3 °C 1,6 km/h (1 Bft)
29.10.2016 00:55 2,3 °C 2,3 °C 94 % 1034,9 hPa 0,0 mm 0,5 km/h (0 Bft) O 91 ° 0 min 0,000 mm 0,0 UV-I 0 W/m² 1,4 °C 1,6 km/h (1 Bft)
29.10.2016 00:56 2,3 °C 2,3 °C 94 % 1034,8 hPa 0,0 mm 1,1 km/h (1 Bft) O 91 ° 0 min 0,000 mm 0,0 UV-I 0 W/m² 1,4 °C 1,6 km/h (1 Bft)
29.10.2016 00:57 2,3 °C 2,3 °C 94 % 1034,8 hPa 0,0 mm 1,4 km/h (1 Bft) O 91 ° 0 min 0,000 mm 0,0 UV-I 0 W/m² 1,4 °C 1,6 km/h (1 Bft)
29.10.2016 00:58 2,3 °C 2,3 °C 94 % 1034,8 hPa 0,0 mm 0,4 km/h (0 Bft) O 91 ° 0 min 0,000 mm 0,0 UV-I 0 W/m² 1,4 °C 1,6 km/h (1 Bft)
29.10.2016 00:59 2,4 °C 2,4 °C 94 % 1034,8 hPa 0,0 mm 0,0 km/h (0 Bft) O 91 ° 0 min 0,000 mm 0,0 UV-I 0 W/m² 1,5 °C 0,0 km/h (0 Bft)
29.10.2016 01:00 2,4 °C 2,4 °C 94 % 1034,8 hPa 0,0 mm 0,1 km/h (0 Bft) O 91 ° 0 min 0,000 mm 0,0 UV-I 0 W/m² 1,5 °C 1,6 km/h (1 Bft)
29.10.2016 01:01 2,3 °C 2,4 °C 94 % 1034,8 hPa 0,0 mm 0,3 km/h (0 Bft) O 91 ° 0 min 0,000 mm 0,0 UV-I 0 W/m² 1,4 °C 1,6 km/h (1 Bft)
29.10.2016 01:02 2,3 °C 2,3 °C 94 % 1034,8 hPa 0,0 mm 1,2 km/h (1 Bft) O 91 ° 0 min 0,000 mm 0,0 UV-I 0 W/m² 1,4 °C 1,6 km/h (1 Bft)
29.10.2016 01:03 2,2 °C 2,3 °C 93 % 1034,8 hPa 0,0 mm 2,7 km/h (1 Bft) O 91 ° 0 min 0,000 mm 0,0 UV-I 0 W/m² 1,2 °C 3,2 km/h (1 Bft)
29.10.2016 01:04 2,2 °C 2,2 °C 94 % 1034,8 hPa 0,0 mm 1,8 km/h (1 Bft) O 91 ° 0 min 0,000 mm 0,0 UV-I 0 W/m² 1,3 °C 3,2 km/h (1 Bft)
29.10.2016 01:05 2,2 °C 2,2 °C 93 % 1034,8 hPa 0,0 mm 0,8 km/h (0 Bft) O 91 ° 0 min 0,000 mm 0,0 UV-I 0 W/m² 1,2 °C 1,6 km/h (1 Bft)
29.10.2016 01:06 2,1 °C 2,2 °C 93 % 1034,8 hPa 0,0 mm 0,1 km/h (0 Bft) O 91 ° 0 min 0,000 mm 0,0 UV-I 0 W/m² 1,1 °C 1,6 km/h (1 Bft)
29.10.2016 01:07 2,1 °C 2,2 °C 94 % 1034,8 hPa 0,0 mm 0,1 km/h (0 Bft) O 91 ° 0 min 0,000 mm 0,0 UV-I 0 W/m² 1,2 °C 1,6 km/h (1 Bft)
29.10.2016 01:08 2,1 °C 2,1 °C 94 % 1034,8 hPa 0,0 mm 0,0 km/h (0 Bft) O 91 ° 0 min 0,000 mm 0,0 UV-I 0 W/m² 1,2 °C 0,0 km/h (0 Bft)
29.10.2016 01:09 2,2 °C 2,2 °C 94 % 1034,8 hPa 0,0 mm 0,0 km/h (0 Bft) O 91 ° 0 min 0,000 mm 0,0 UV-I 0 W/m² 1,3 °C 0,0 km/h (0 Bft)
29.10.2016 01:10 2,2 °C 2,2 °C 94 % 1034,8 hPa 0,0 mm 0,0 km/h (0 Bft) O 91 ° 0 min 0,000 mm 0,0 UV-I 0 W/m² 1,3 °C 0,0 km/h (0 Bft)
29.10.2016 01:11 2,1 °C 2,2 °C 94 % 1034,9 hPa 0,0 mm 0,8 km/h (0 Bft) O 91 ° 0 min 0,000 mm 0,0 UV-I 0 W/m² 1,2 °C 1,6 km/h (1 Bft)
29.10.2016 01:12 2,1 °C 2,1 °C 94 % 1034,9 hPa 0,0 mm 1,6 km/h (1 Bft) O 91 ° 0 min 0,000 mm 0,0 UV-I 0 W/m² 1,2 °C 3,2 km/h (1 Bft)
29.10.2016 01:13 2,0 °C 2,1 °C 94 % 1034,8 hPa 0,0 mm 0,2 km/h (0 Bft) O 91 ° 0 min 0,000 mm 0,0 UV-I 0 W/m² 1,1 °C 1,6 km/h (1 Bft)
29.10.2016 01:14 1,9 °C 2,0 °C 94 % 1034,7 hPa 0,0 mm 0,1 km/h (0 Bft) O 91 ° 0 min 0,000 mm 0,0 UV-I 0 W/m² 1,0 °C 1,6 km/h (1 Bft)
29.10.2016 01:15 1,9 °C 1,9 °C 94 % 1034,7 hPa 0,0 mm 0,0 km/h (0 Bft) O 91 ° 0 min 0,000 mm 0,0 UV-I 0 W/m² 1,0 °C 0,0 km/h (0 Bft)
29.10.2016 01:16 1,9 °C 1,9 °C 94 % 1034,7 hPa 0,0 mm 0,0 km/h (0 Bft) O 91 ° 0 min 0,000 mm 0,0 UV-I 0 W/m² 1,0 °C 0,0 km/h (0 Bft)
29.10.2016 01:17 1,9 °C 1,9 °C 94 % 1034,7 hPa 0,0 mm 0,0 km/h (0 Bft) O 91 ° 0 min 0,000 mm 0,0 UV-I 0 W/m² 1,0 °C 0,0 km/h (0 Bft)
29.10.2016 01:18 1,9 °C 1,9 °C 94 % 1034,7 hPa 0,0 mm 0,0 km/h (0 Bft) O 91 ° 0 min 0,000 mm 0,0 UV-I 0 W/m² 1,0 °C 0,0 km/h (0 Bft)
29.10.2016 01:19 1,9 °C 1,9 °C 94 % 1034,7 hPa 0,0 mm 0,0 km/h (0 Bft) O 91 ° 0 min 0,000 mm 0,0 UV-I 0 W/m² 1,0 °C 0,0 km/h (0 Bft)
29.10.2016 01:20 1,9 °C 1,9 °C 94 % 1034,7 hPa 0,0 mm 0,0 km/h (0 Bft) O 91 ° 0 min 0,000 mm 0,0 UV-I 0 W/m² 1,0 °C 0,0 km/h (0 Bft)
29.10.2016 01:21 1,9 °C 1,9 °C 94 % 1034,7 hPa 0,0 mm 0,0 km/h (0 Bft) O 91 ° 0 min 0,000 mm 0,0 UV-I 0 W/m² 1,0 °C 0,0 km/h (0 Bft)
29.10.2016 01:22 1,9 °C 2,0 °C 94 % 1034,7 hPa 0,0 mm 0,0 km/h (0 Bft) O 91 ° 0 min 0,000 mm 0,0 UV-I 0 W/m² 1,0 °C 0,0 km/h (0 Bft)
29.10.2016 01:23 1,9 °C 2,0 °C 94 % 1034,7 hPa 0,0 mm 0,0 km/h (0 Bft) O 91 ° 0 min 0,000 mm 0,0 UV-I 0 W/m² 1,0 °C 0,0 km/h (0 Bft)
29.10.2016 01:24 1,8 °C 1,9 °C 94 % 1034,7 hPa 0,0 mm 0,0 km/h (0 Bft) O 91 ° 0 min 0,000 mm 0,0 UV-I 0 W/m² 0,9 °C 0,0 km/h (0 Bft)
29.10.2016 01:25 1,8 °C 1,8 °C 94 % 1034,7 hPa 0,0 mm 0,0 km/h (0 Bft) O 91 ° 0 min 0,000 mm 0,0 UV-I 0 W/m² 0,9 °C 0,0 km/h (0 Bft)
29.10.2016 01:26 1,8 °C 1,8 °C 94 % 1034,7 hPa 0,0 mm 0,0 km/h (0 Bft) O 91 ° 0 min 0,000 mm 0,0 UV-I 0 W/m² 0,9 °C 0,0 km/h (0 Bft)
29.10.2016 01:27 1,8 °C 1,8 °C 94 % 1034,6 hPa 0,0 mm 0,0 km/h (0 Bft) O 91 ° 0 min 0,000 mm 0,0 UV-I 0 W/m² 0,9 °C 0,0 km/h (0 Bft)
29.10.2016 01:28 1,8 °C 1,8 °C 94 % 1034,6 hPa 0,0 mm 0,0 km/h (0 Bft) O 91 ° 0 min 0,000 mm 0,0 UV-I 0 W/m² 0,9 °C 0,0 km/h (0 Bft)
29.10.2016 01:29 1,8 °C 1,8 °C 95 % 1034,5 hPa 0,0 mm 0,0 km/h (0 Bft) O 91 ° 0 min 0,000 mm 0,0 UV-I 0 W/m² 1,1 °C 0,0 km/h (0 Bft)
29.10.2016 01:30 1,8 °C 1,8 °C 95 % 1034,6 hPa 0,0 mm 0,0 km/h (0 Bft) O 91 ° 0 min 0,000 mm 0,0 UV-I 0 W/m² 1,1 °C 0,0 km/h (0 Bft)
29.10.2016 01:31 1,8 °C 1,8 °C 94 % 1034,6 hPa 0,0 mm 0,0 km/h (0 Bft) O 91 ° 0 min 0,000 mm 0,0 UV-I 0 W/m² 0,9 °C 0,0 km/h (0 Bft)
29.10.2016 01:32 1,8 °C 1,8 °C 94 % 1034,6 hPa 0,0 mm 0,0 km/h (0 Bft) O 91 ° 0 min 0,000 mm 0,0 UV-I 0 W/m² 0,9 °C 0,0 km/h (0 Bft)
29.10.2016 01:33 1,8 °C 1,8 °C 94 % 1034,6 hPa 0,0 mm 0,0 km/h (0 Bft) O 91 ° 0 min 0,000 mm 0,0 UV-I 0 W/m² 0,9 °C 0,0 km/h (0 Bft)
29.10.2016 01:34 1,9 °C 1,9 °C 94 % 1034,6 hPa 0,0 mm 0,0 km/h (0 Bft) O 91 ° 0 min 0,000 mm 0,0 UV-I 0 W/m² 1,0 °C 0,0 km/h (0 Bft)
29.10.2016 01:35 1,9 °C 1,9 °C 94 % 1034,6 hPa 0,0 mm 0,0 km/h (0 Bft) O 91 ° 0 min 0,000 mm 0,0 UV-I 0 W/m² 1,0 °C 0,0 km/h (0 Bft)
29.10.2016 01:36 1,9 °C 1,9 °C 94 % 1034,6 hPa 0,0 mm 0,0 km/h (0 Bft) O 91 ° 0 min 0,000 mm 0,0 UV-I 0 W/m² 1,0 °C 0,0 km/h (0 Bft)
29.10.2016 01:37 1,9 °C 1,9 °C 94 % 1034,6 hPa 0,0 mm 0,0 km/h (0 Bft) O 91 ° 0 min 0,000 mm 0,0 UV-I 0 W/m² 1,0 °C 0,0 km/h (0 Bft)
29.10.2016 01:38 1,9 °C 1,9 °C 94 % 1034,6 hPa 0,0 mm 0,0 km/h (0 Bft) O 91 ° 0 min 0,000 mm 0,0 UV-I 0 W/m² 1,0 °C 0,0 km/h (0 Bft)
29.10.2016 01:39 1,9 °C 1,9 °C 94 % 1034,6 hPa 0,0 mm 0,0 km/h (0 Bft) O 91 ° 0 min 0,000 mm 0,0 UV-I 0 W/m² 1,0 °C 0,0 km/h (0 Bft)
29.10.2016 01:40 1,9 °C 1,9 °C 94 % 1034,6 hPa 0,0 mm 0,0 km/h (0 Bft) O 91 ° 0 min 0,000 mm 0,0 UV-I 0 W/m² 1,0 °C 0,0 km/h (0 Bft)
29.10.2016 01:41 1,8 °C 1,9 °C 94 % 1034,6 hPa 0,0 mm 0,0 km/h (0 Bft) O 91 ° 0 min 0,000 mm 0,0 UV-I 0 W/m² 0,9 °C 0,0 km/h (0 Bft)
29.10.2016 01:42 1,8 °C 1,8 °C 94 % 1034,6 hPa 0,0 mm 0,0 km/h (0 Bft) O 91 ° 0 min 0,000 mm 0,0 UV-I 0 W/m² 0,9 °C 0,0 km/h (0 Bft)
29.10.2016 01:43 1,8 °C 1,8 °C 94 % 1034,6 hPa 0,0 mm 0,0 km/h (0 Bft) O 91 ° 0 min 0,000 mm 0,0 UV-I 0 W/m² 0,9 °C 0,0 km/h (0 Bft)
29.10.2016 01:44 1,8 °C 1,8 °C 94 % 1034,6 hPa 0,0 mm 0,0 km/h (0 Bft) O 91 ° 0 min 0,000 mm 0,0 UV-I 0 W/m² 0,9 °C 0,0 km/h (0 Bft)
29.10.2016 01:45 1,8 °C 1,8 °C 94 % 1034,6 hPa 0,0 mm 0,0 km/h (0 Bft) O 91 ° 0 min 0,000 mm 0,0 UV-I 0 W/m² 0,9 °C 0,0 km/h (0 Bft)
29.10.2016 01:46 1,8 °C 1,8 °C 94 % 1034,6 hPa 0,0 mm 0,0 km/h (0 Bft) O 91 ° 0 min 0,000 mm 0,0 UV-I 0 W/m² 0,9 °C 0,0 km/h (0 Bft)
29.10.2016 01:47 1,8 °C 1,8 °C 94 % 1034,6 hPa 0,0 mm 0,0 km/h (0 Bft) O 91 ° 0 min 0,000 mm 0,0 UV-I 0 W/m² 0,9 °C 0,0 km/h (0 Bft)
29.10.2016 01:48 1,8 °C 1,8 °C 94 % 1034,6 hPa 0,0 mm 0,0 km/h (0 Bft) O 91 ° 0 min 0,000 mm 0,0 UV-I 0 W/m² 0,9 °C 0,0 km/h (0 Bft)
29.10.2016 01:49 1,8 °C 1,8 °C 94 % 1034,6 hPa 0,0 mm 0,0 km/h (0 Bft) O 91 ° 0 min 0,000 mm 0,0 UV-I 0 W/m² 0,9 °C 0,0 km/h (0 Bft)
29.10.2016 01:50 1,8 °C 1,8 °C 94 % 1034,6 hPa 0,0 mm 0,0 km/h (0 Bft) O 91 ° 0 min 0,000 mm 0,0 UV-I 0 W/m² 0,9 °C 0,0 km/h (0 Bft)
29.10.2016 01:51 1,8 °C 1,8 °C 94 % 1034,6 hPa 0,0 mm 0,0 km/h (0 Bft) O 91 ° 0 min 0,000 mm 0,0 UV-I 0 W/m² 0,9 °C 0,0 km/h (0 Bft)
29.10.2016 01:52 1,8 °C 1,8 °C 94 % 1034,6 hPa 0,0 mm 0,0 km/h (0 Bft) O 91 ° 0 min 0,000 mm 0,0 UV-I 0 W/m² 0,9 °C 0,0 km/h (0 Bft)
29.10.2016 01:53 1,8 °C 1,8 °C 94 % 1034,6 hPa 0,0 mm 0,0 km/h (0 Bft) O 91 ° 0 min 0,000 mm 0,0 UV-I 0 W/m² 0,9 °C 0,0 km/h (0 Bft)
29.10.2016 01:54 1,8 °C 1,8 °C 94 % 1034,6 hPa 0,0 mm 0,0 km/h (0 Bft) O 91 ° 0 min 0,000 mm 0,0 UV-I 0 W/m² 0,9 °C 0,0 km/h (0 Bft)
29.10.2016 01:55 1,8 °C 1,8 °C 94 % 1034,6 hPa 0,0 mm 0,0 km/h (0 Bft) O 91 ° 0 min 0,000 mm 0,0 UV-I 0 W/m² 0,9 °C 0,0 km/h (0 Bft)
29.10.2016 01:56 1,8 °C 1,8 °C 94 % 1034,6 hPa 0,0 mm 0,0 km/h (0 Bft) O 91 ° 0 min 0,000 mm 0,0 UV-I 0 W/m² 0,9 °C 0,0 km/h (0 Bft)
29.10.2016 01:57 1,8 °C 1,8 °C 94 % 1034,6 hPa 0,0 mm 0,0 km/h (0 Bft) O 91 ° 0 min 0,000 mm 0,0 UV-I 0 W/m² 0,9 °C 0,0 km/h (0 Bft)
29.10.2016 01:58 1,8 °C 1,8 °C 94 % 1034,6 hPa 0,0 mm 0,0 km/h (0 Bft) O 91 ° 0 min 0,000 mm 0,0 UV-I 0 W/m² 0,9 °C 0,0 km/h (0 Bft)
29.10.2016 01:59 1,8 °C 1,8 °C 94 % 1034,6 hPa 0,0 mm 0,0 km/h (0 Bft) O 91 ° 0 min 0,000 mm 0,0 UV-I 0 W/m² 0,9 °C 0,0 km/h (0 Bft)
29.10.2016 02:00 1,8 °C 1,8 °C 94 % 1034,6 hPa 0,0 mm 0,0 km/h (0 Bft) O 91 ° 0 min 0,000 mm 0,0 UV-I 0 W/m² 0,9 °C 0,0 km/h (0 Bft)
29.10.2016 02:01 1,8 °C 1,8 °C 94 % 1034,6 hPa 0,0 mm 0,0 km/h (0 Bft) O 91 ° 0 min 0,000 mm 0,0 UV-I 0 W/m² 0,9 °C 0,0 km/h (0 Bft)
29.10.2016 02:02 1,8 °C 1,8 °C 94 % 1034,6 hPa 0,0 mm 0,0 km/h (0 Bft) O 91 ° 0 min 0,000 mm 0,0 UV-I 0 W/m² 0,9 °C 0,0 km/h (0 Bft)
29.10.2016 02:03 1,9 °C 1,9 °C 95 % 1034,6 hPa 0,0 mm 0,0 km/h (0 Bft) O 91 ° 0 min 0,000 mm 0,0 UV-I 0 W/m² 1,2 °C 0,0 km/h (0 Bft)
29.10.2016 02:04 1,9 °C 1,9 °C 95 % 1034,5 hPa 0,0 mm 0,0 km/h (0 Bft) O 91 ° 0 min 0,000 mm 0,0 UV-I 0 W/m² 1,2 °C 0,0 km/h (0 Bft)
29.10.2016 02:05 1,8 °C 1,9 °C 95 % 1034,5 hPa 0,0 mm 0,0 km/h (0 Bft) O 91 ° 0 min 0,000 mm 0,0 UV-I 0 W/m² 1,1 °C 0,0 km/h (0 Bft)
29.10.2016 02:06 1,8 °C 1,8 °C 94 % 1034,5 hPa 0,0 mm 0,3 km/h (0 Bft) O 91 ° 0 min 0,000 mm 0,0 UV-I 0 W/m² 0,9 °C 1,6 km/h (1 Bft)
29.10.2016 02:07 1,7 °C 1,8 °C 94 % 1034,5 hPa 0,0 mm 0,1 km/h (0 Bft) O 91 ° 0 min 0,000 mm 0,0 UV-I 0 W/m² 0,8 °C 1,6 km/h (1 Bft)
29.10.2016 02:08 1,7 °C 1,7 °C 94 % 1034,5 hPa 0,0 mm 0,7 km/h (0 Bft) O 91 ° 0 min 0,000 mm 0,0 UV-I 0 W/m² 0,8 °C 1,6 km/h (1 Bft)
29.10.2016 02:09 1,7 °C 1,7 °C 94 % 1034,5 hPa 0,0 mm 1,2 km/h (1 Bft) O 91 ° 0 min 0,000 mm 0,0 UV-I 0 W/m² 0,8 °C 1,6 km/h (1 Bft)
29.10.2016 02:10 1,7 °C 1,7 °C 95 % 1034,5 hPa 0,0 mm 0,8 km/h (0 Bft) O 91 ° 0 min 0,000 mm 0,0 UV-I 0 W/m² 1,0 °C 1,6 km/h (1 Bft)
29.10.2016 02:11 1,7 °C 1,7 °C 95 % 1034,5 hPa 0,0 mm 0,8 km/h (0 Bft) O 91 ° 0 min 0,000 mm 0,0 UV-I 0 W/m² 1,0 °C 1,6 km/h (1 Bft)
29.10.2016 02:12 1,7 °C 1,7 °C 94 % 1034,5 hPa 0,0 mm 0,0 km/h (0 Bft) O 91 ° 0 min 0,000 mm 0,0 UV-I 0 W/m² 0,8 °C 0,0 km/h (0 Bft)
29.10.2016 02:13 1,7 °C 1,7 °C 95 % 1034,6 hPa 0,0 mm 0,0 km/h (0 Bft) O 91 ° 0 min 0,000 mm 0,0 UV-I 0 W/m² 1,0 °C 0,0 km/h (0 Bft)
29.10.2016 02:14 1,6 °C 1,7 °C 95 % 1034,6 hPa 0,0 mm 0,0 km/h (0 Bft) O 91 ° 0 min 0,000 mm 0,0 UV-I 0 W/m² 0,9 °C 0,0 km/h (0 Bft)
29.10.2016 02:15 1,6 °C 1,6 °C 94 % 1034,5 hPa 0,0 mm 0,0 km/h (0 Bft) O 91 ° 0 min 0,000 mm 0,0 UV-I 0 W/m² 0,7 °C 0,0 km/h (0 Bft)
29.10.2016 02:16 1,6 °C 1,6 °C 94 % 1034,5 hPa 0,0 mm 0,4 km/h (0 Bft) O 91 ° 0 min 0,000 mm 0,0 UV-I 0 W/m² 0,7 °C 1,6 km/h (1 Bft)
29.10.2016 02:17 1,6 °C 1,6 °C 94 % 1034,5 hPa 0,0 mm 0,4 km/h (0 Bft) O 91 ° 0 min 0,000 mm 0,0 UV-I 0 W/m² 0,7 °C 1,6 km/h (1 Bft)
29.10.2016 02:18 1,6 °C 1,6 °C 95 % 1034,4 hPa 0,0 mm 0,0 km/h (0 Bft) O 91 ° 0 min 0,000 mm 0,0 UV-I 0 W/m² 0,9 °C 0,0 km/h (0 Bft)
29.10.2016 02:19 1,6 °C 1,6 °C 95 % 1034,4 hPa 0,0 mm 0,0 km/h (0 Bft) O 91 ° 0 min 0,000 mm 0,0 UV-I 0 W/m² 0,9 °C 0,0 km/h (0 Bft)
29.10.2016 02:20 1,6 °C 1,6 °C 95 % 1034,4 hPa 0,0 mm 0,0 km/h (0 Bft) O 91 ° 0 min 0,000 mm 0,0 UV-I 0 W/m² 0,9 °C 0,0 km/h (0 Bft)
29.10.2016 02:21 1,6 °C 1,6 °C 95 % 1034,5 hPa 0,0 mm 1,0 km/h (0 Bft) O 91 ° 0 min 0,000 mm 0,0 UV-I 0 W/m² 0,9 °C 1,6 km/h (1 Bft)
29.10.2016 02:22 1,5 °C 1,6 °C 94 % 1034,5 hPa 0,0 mm 1,1 km/h (1 Bft) O 91 ° 0 min 0,000 mm 0,0 UV-I 0 W/m² 0,6 °C 1,6 km/h (1 Bft)
29.10.2016 02:23 1,4 °C 1,5 °C 94 % 1034,5 hPa 0,0 mm 1,5 km/h (1 Bft) O 91 ° 0 min 0,000 mm 0,0 UV-I 0 W/m² 0,5 °C 1,6 km/h (1 Bft)
29.10.2016 02:24 1,4 °C 1,4 °C 94 % 1034,5 hPa 0,0 mm 0,2 km/h (0 Bft) O 91 ° 0 min 0,000 mm 0,0 UV-I 0 W/m² 0,5 °C 1,6 km/h (1 Bft)
29.10.2016 02:25 1,4 °C 1,4 °C 94 % 1034,5 hPa 0,0 mm 0,0 km/h (0 Bft) O 91 ° 0 min 0,000 mm 0,0 UV-I 0 W/m² 0,5 °C 0,0 km/h (0 Bft)
29.10.2016 02:26 1,5 °C 1,5 °C 95 % 1034,5 hPa 0,0 mm 0,0 km/h (0 Bft) O 91 ° 0 min 0,000 mm 0,0 UV-I 0 W/m² 0,8 °C 0,0 km/h (0 Bft)
29.10.2016 02:27 1,7 °C 1,7 °C 95 % 1034,4 hPa 0,0 mm 0,0 km/h (0 Bft) O 91 ° 0 min 0,000 mm 0,0 UV-I 0 W/m² 1,0 °C 0,0 km/h (0 Bft)
29.10.2016 02:28 1,8 °C 1,8 °C 95 % 1034,4 hPa 0,0 mm 0,0 km/h (0 Bft) O 91 ° 0 min 0,000 mm 0,0 UV-I 0 W/m² 1,1 °C 0,0 km/h (0 Bft)
29.10.2016 02:29 2,0 °C 2,0 °C 95 % 1034,4 hPa 0,0 mm 0,0 km/h (0 Bft) O 91 ° 0 min 0,000 mm 0,0 UV-I 0 W/m² 1,3 °C 0,0 km/h (0 Bft)
29.10.2016 02:30 2,2 °C 2,2 °C 95 % 1034,4 hPa 0,0 mm 2,8 km/h (1 Bft) O 92 ° 0 min 0,000 mm 0,0 UV-I 0 W/m² 1,5 °C 4,8 km/h (1 Bft)
29.10.2016 02:31 2,3 °C 2,3 °C 96 % 1034,3 hPa 0,0 mm 2,9 km/h (1 Bft) O 92 ° 0 min 0,000 mm 0,0 UV-I 0 W/m² 1,7 °C 4,8 km/h (1 Bft)
29.10.2016 02:32 2,3 °C 2,3 °C 96 % 1034,3 hPa 0,0 mm 4,0 km/h (1 Bft) SO 125 ° 0 min 0,000 mm 0,0 UV-I 0 W/m² 1,7 °C 4,8 km/h (1 Bft)
29.10.2016 02:33 2,4 °C 2,4 °C 96 % 1034,3 hPa 0,0 mm 4,6 km/h (1 Bft) SO 146 ° 0 min 0,000 mm 0,0 UV-I 0 W/m² 1,8 °C 6,4 km/h (2 Bft)
29.10.2016 02:34 2,4 °C 2,4 °C 96 % 1034,2 hPa 0,0 mm 5,1 km/h (1 Bft) S-SO 156 ° 0 min 0,000 mm 0,0 UV-I 0 W/m² 1,8 °C 6,4 km/h (2 Bft)
29.10.2016 02:35 2,6 °C 2,6 °C 96 % 1034,2 hPa 0,0 mm 7,4 km/h (2 Bft) S-SO 157 ° 0 min 0,000 mm 0,0 UV-I 0 W/m² 2,0 °C 8,0 km/h (2 Bft)
29.10.2016 02:36 2,6 °C 2,6 °C 96 % 1034,1 hPa 0,0 mm 7,7 km/h (2 Bft) S-SO 159 ° 0 min 0,000 mm 0,0 UV-I 0 W/m² 2,0 °C 9,7 km/h (2 Bft)
29.10.2016 02:37 2,6 °C 2,6 °C 96 % 1034,1 hPa 0,0 mm 8,1 km/h (2 Bft) S-SO 159 ° 0 min 0,000 mm 0,0 UV-I 0 W/m² 2,0 °C 9,7 km/h (2 Bft)
29.10.2016 02:38 2,7 °C 2,7 °C 95 % 1034,0 hPa 0,0 mm 7,8 km/h (2 Bft) S-SO 159 ° 0 min 0,000 mm 0,0 UV-I 0 W/m² 2,0 °C 8,0 km/h (2 Bft)
29.10.2016 02:39 2,7 °C 2,7 °C 95 % 1034,0 hPa 0,0 mm 8,0 km/h (2 Bft) S-SO 158 ° 0 min 0,000 mm 0,0 UV-I 0 W/m² 2,0 °C 9,7 km/h (2 Bft)
29.10.2016 02:40 2,8 °C 2,8 °C 95 % 1034,0 hPa 0,0 mm 8,0 km/h (2 Bft) S-SO 158 ° 0 min 0,000 mm 0,0 UV-I 0 W/m² 2,1 °C 9,7 km/h (2 Bft)
29.10.2016 02:41 2,9 °C 2,9 °C 95 % 1034,0 hPa 0,0 mm 7,9 km/h (2 Bft) S-SO 157 ° 0 min 0,000 mm 0,0 UV-I 0 W/m² 2,2 °C 9,7 km/h (2 Bft)
29.10.2016 02:42 2,9 °C 2,9 °C 95 % 1033,9 hPa 0,0 mm 7,0 km/h (2 Bft) S-SO 157 ° 0 min 0,000 mm 0,0 UV-I 0 W/m² 2,2 °C 8,0 km/h (2 Bft)
29.10.2016 02:43 3,1 °C 3,1 °C 95 % 1033,9 hPa 0,0 mm 4,8 km/h (1 Bft) S-SO 158 ° 0 min 0,000 mm 0,0 UV-I 0 W/m² 2,4 °C 8,0 km/h (2 Bft)
29.10.2016 02:44 3,2 °C 3,2 °C 95 % 1033,9 hPa 0,0 mm 3,6 km/h (1 Bft) S-SO 158 ° 0 min 0,000 mm 0,0 UV-I 0 W/m² 2,5 °C 4,8 km/h (1 Bft)
29.10.2016 02:45 3,3 °C 3,3 °C 95 % 1034,0 hPa 0,0 mm 1,6 km/h (1 Bft) S-SO 158 ° 0 min 0,000 mm 0,0 UV-I 0 W/m² 2,6 °C 3,2 km/h (1 Bft)
29.10.2016 02:46 3,3 °C 3,4 °C 95 % 1034,1 hPa 0,0 mm 3,2 km/h (1 Bft) S-SO 158 ° 0 min 0,000 mm 0,0 UV-I 0 W/m² 2,6 °C 4,8 km/h (1 Bft)
29.10.2016 02:47 3,3 °C 3,3 °C 94 % 1034,1 hPa 0,0 mm 1,1 km/h (1 Bft) S-SO 158 ° 0 min 0,000 mm 0,0 UV-I 0 W/m² 2,4 °C 3,2 km/h (1 Bft)
29.10.2016 02:48 3,2 °C 3,3 °C 93 % 1034,2 hPa 0,0 mm 2,0 km/h (1 Bft) S-SO 158 ° 0 min 0,000 mm 0,0 UV-I 0 W/m² 2,2 °C 3,2 km/h (1 Bft)
29.10.2016 02:49 3,0 °C 3,2 °C 91 % 1034,2 hPa 0,0 mm 0,8 km/h (0 Bft) S-SO 158 ° 0 min 0,000 mm 0,0 UV-I 0 W/m² 1,7 °C 1,6 km/h (1 Bft)
29.10.2016 02:50 2,8 °C 3,0 °C 91 % 1034,2 hPa 0,0 mm 0,0 km/h (0 Bft) S-SO 158 ° 0 min 0,000 mm 0,0 UV-I 0 W/m² 1,5 °C 0,0 km/h (0 Bft)
29.10.2016 02:51 2,7 °C 2,8 °C 92 % 1034,2 hPa 0,0 mm 0,2 km/h (0 Bft) S-SO 158 ° 0 min 0,000 mm 0,0 UV-I 0 W/m² 1,5 °C 1,6 km/h (1 Bft)
29.10.2016 02:52 2,6 °C 2,7 °C 92 % 1034,1 hPa 0,0 mm 1,1 km/h (1 Bft) S-SO 158 ° 0 min 0,000 mm 0,0 UV-I 0 W/m² 1,4 °C 3,2 km/h (1 Bft)
29.10.2016 02:53 2,6 °C 2,6 °C 92 % 1034,1 hPa 0,0 mm 2,8 km/h (1 Bft) S-SO 158 ° 0 min 0,000 mm 0,0 UV-I 0 W/m² 1,4 °C 3,2 km/h (1 Bft)
29.10.2016 02:54 2,7 °C 2,7 °C 93 % 1034,2 hPa 0,0 mm 2,8 km/h (1 Bft) S-SO 158 ° 0 min 0,000 mm 0,0 UV-I 0 W/m² 1,7 °C 3,2 km/h (1 Bft)
29.10.2016 02:55 2,9 °C 2,9 °C 94 % 1034,2 hPa 0,0 mm 3,2 km/h (1 Bft) S-SO 157 ° 0 min 0,000 mm 0,0 UV-I 0 W/m² 2,0 °C 4,8 km/h (1 Bft)
29.10.2016 02:56 2,9 °C 2,9 °C 94 % 1034,2 hPa 0,0 mm 3,0 km/h (1 Bft) N-NO 17 ° 0 min 0,000 mm 0,0 UV-I 0 W/m² 2,0 °C 4,8 km/h (1 Bft)
29.10.2016 02:57 2,9 °C 2,9 °C 93 % 1034,2 hPa 0,0 mm 5,9 km/h (2 Bft) NO 55 ° 0 min 0,000 mm 0,0 UV-I 0 W/m² 1,9 °C 8,0 km/h (2 Bft)
29.10.2016 02:58 2,8 °C 2,9 °C 92 % 1034,3 hPa 0,0 mm 5,0 km/h (1 Bft) O 90 ° 0 min 0,000 mm 0,0 UV-I 0 W/m² 1,6 °C 6,4 km/h (2 Bft)
29.10.2016 02:59 2,7 °C 2,8 °C 92 % 1034,3 hPa 0,0 mm 4,1 km/h (1 Bft) O-SO 105 ° 0 min 0,000 mm 0,0 UV-I 0 W/m² 1,5 °C 4,8 km/h (1 Bft)
29.10.2016 03:00 2,7 °C 2,7 °C 93 % 1034,2 hPa 0,0 mm 4,4 km/h (1 Bft) S-SO 149 ° 0 min 0,000 mm 0,0 UV-I 0 W/m² 1,7 °C 6,4 km/h (2 Bft)
29.10.2016 03:01 2,8 °C 2,8 °C 93 % 1034,2 hPa 0,0 mm 3,6 km/h (1 Bft) S 173 ° 0 min 0,000 mm 0,0 UV-I 0 W/m² 1,8 °C 6,4 km/h (2 Bft)
29.10.2016 03:02 2,8 °C 2,8 °C 93 % 1034,2 hPa 0,0 mm 3,2 km/h (1 Bft) S 184 ° 0 min 0,000 mm 0,0 UV-I 0 W/m² 1,8 °C 4,8 km/h (1 Bft)
29.10.2016 03:03 2,8 °C 2,8 °C 93 % 1034,2 hPa 0,0 mm 2,3 km/h (1 Bft) W-NW 290 ° 0 min 0,000 mm 0,0 UV-I 0 W/m² 1,8 °C 3,2 km/h (1 Bft)
29.10.2016 03:04 2,8 °C 2,8 °C 93 % 1034,2 hPa 0,0 mm 1,9 km/h (1 Bft) W-NW 291 ° 0 min 0,000 mm 0,0 UV-I 0 W/m² 1,8 °C 3,2 km/h (1 Bft)
29.10.2016 03:05 2,7 °C 2,8 °C 92 % 1034,3 hPa 0,0 mm 0,3 km/h (0 Bft) W-NW 291 ° 0 min 0,000 mm 0,0 UV-I 0 W/m² 1,5 °C 1,6 km/h (1 Bft)
29.10.2016 03:06 2,7 °C 2,7 °C 92 % 1034,3 hPa 0,0 mm 0,0 km/h (0 Bft) W-NW 292 ° 0 min 0,000 mm 0,0 UV-I 0 W/m² 1,5 °C 0,0 km/h (0 Bft)
29.10.2016 03:07 2,6 °C 2,7 °C 93 % 1034,3 hPa 0,0 mm 0,0 km/h (0 Bft) W-NW 291 ° 0 min 0,000 mm 0,0 UV-I 0 W/m² 1,6 °C 0,0 km/h (0 Bft)
29.10.2016 03:08 2,6 °C 2,6 °C 93 % 1034,3 hPa 0,0 mm 0,0 km/h (0 Bft) W-NW 291 ° 0 min 0,000 mm 0,0 UV-I 0 W/m² 1,6 °C 0,0 km/h (0 Bft)
29.10.2016 03:09 2,6 °C 2,6 °C 93 % 1034,3 hPa 0,0 mm 0,0 km/h (0 Bft) W-NW 291 ° 0 min 0,000 mm 0,0 UV-I 0 W/m² 1,6 °C 0,0 km/h (0 Bft)
29.10.2016 03:10 2,6 °C 2,6 °C 93 % 1034,3 hPa 0,0 mm 0,0 km/h (0 Bft) W-NW 292 ° 0 min 0,000 mm 0,0 UV-I 0 W/m² 1,6 °C 0,0 km/h (0 Bft)
29.10.2016 03:11 2,5 °C 2,6 °C 93 % 1034,3 hPa 0,0 mm 0,0 km/h (0 Bft) W-NW 291 ° 0 min 0,000 mm 0,0 UV-I 0 W/m² 1,5 °C 0,0 km/h (0 Bft)
29.10.2016 03:12 2,4 °C 2,5 °C 93 % 1034,3 hPa 0,0 mm 0,0 km/h (0 Bft) W-NW 291 ° 0 min 0,000 mm 0,0 UV-I 0 W/m² 1,4 °C 0,0 km/h (0 Bft)
29.10.2016 03:13 2,4 °C 2,4 °C 93 % 1034,3 hPa 0,0 mm 0,0 km/h (0 Bft) W-NW 291 ° 0 min 0,000 mm 0,0 UV-I 0 W/m² 1,4 °C 0,0 km/h (0 Bft)
29.10.2016 03:14 2,4 °C 2,4 °C 93 % 1034,3 hPa 0,0 mm 1,5 km/h (1 Bft) W-NW 291 ° 0 min 0,000 mm 0,0 UV-I 0 W/m² 1,4 °C 3,2 km/h (1 Bft)
29.10.2016 03:15 2,3 °C 2,4 °C 93 % 1034,3 hPa 0,0 mm 0,6 km/h (0 Bft) W-NW 292 ° 0 min 0,000 mm 0,0 UV-I 0 W/m² 1,3 °C 1,6 km/h (1 Bft)
29.10.2016 03:16 2,3 °C 2,3 °C 93 % 1034,3 hPa 0,0 mm 1,2 km/h (1 Bft) W-NW 291 ° 0 min 0,000 mm 0,0 UV-I 0 W/m² 1,3 °C 3,2 km/h (1 Bft)
29.10.2016 03:17 2,2 °C 2,3 °C 93 % 1034,2 hPa 0,0 mm 2,7 km/h (1 Bft) W-NW 290 ° 0 min 0,000 mm 0,0 UV-I 0 W/m² 1,2 °C 4,8 km/h (1 Bft)
29.10.2016 03:18 2,2 °C 2,2 °C 93 % 1034,2 hPa 0,0 mm 3,1 km/h (1 Bft) W-NW 290 ° 0 min 0,000 mm 0,0 UV-I 0 W/m² 1,2 °C 4,8 km/h (1 Bft)
29.10.2016 03:19 2,2 °C 2,2 °C 93 % 1034,2 hPa 0,0 mm 1,9 km/h (1 Bft) W-NW 290 ° 0 min 0,000 mm 0,0 UV-I 0 W/m² 1,2 °C 3,2 km/h (1 Bft)
29.10.2016 03:20 2,3 °C 2,3 °C 93 % 1034,3 hPa 0,0 mm 1,5 km/h (1 Bft) W-NW 290 ° 0 min 0,000 mm 0,0 UV-I 0 W/m² 1,3 °C 3,2 km/h (1 Bft)
29.10.2016 03:21 2,3 °C 2,3 °C 93 % 1034,2 hPa 0,0 mm 1,9 km/h (1 Bft) W-NW 288 ° 0 min 0,000 mm 0,0 UV-I 0 W/m² 1,3 °C 3,2 km/h (1 Bft)
29.10.2016 03:22 2,3 °C 2,3 °C 93 % 1034,2 hPa 0,0 mm 0,1 km/h (0 Bft) W-NW 288 ° 0 min 0,000 mm 0,0 UV-I 0 W/m² 1,3 °C 1,6 km/h (1 Bft)
29.10.2016 03:23 2,3 °C 2,3 °C 93 % 1034,3 hPa 0,0 mm 0,0 km/h (0 Bft) W-NW 288 ° 0 min 0,000 mm 0,0 UV-I 0 W/m² 1,3 °C 0,0 km/h (0 Bft)
29.10.2016 03:24 2,3 °C 2,3 °C 93 % 1034,2 hPa 0,0 mm 0,5 km/h (0 Bft) W-NW 288 ° 0 min 0,000 mm 0,0 UV-I 0 W/m² 1,3 °C 1,6 km/h (1 Bft)
29.10.2016 03:25 2,3 °C 2,3 °C 93 % 1034,2 hPa 0,0 mm 1,6 km/h (1 Bft) W-NW 288 ° 0 min 0,000 mm 0,0 UV-I 0 W/m² 1,3 °C 3,2 km/h (1 Bft)
29.10.2016 03:26 2,2 °C 2,3 °C 93 % 1034,2 hPa 0,0 mm 0,5 km/h (0 Bft) W-NW 288 ° 0 min 0,000 mm 0,0 UV-I 0 W/m² 1,2 °C 1,6 km/h (1 Bft)
29.10.2016 03:27 2,2 °C 2,2 °C 93 % 1034,2 hPa 0,0 mm 0,6 km/h (0 Bft) W-NW 288 ° 0 min 0,000 mm 0,0 UV-I 0 W/m² 1,2 °C 1,6 km/h (1 Bft)
29.10.2016 03:28 2,1 °C 2,2 °C 93 % 1034,2 hPa 0,0 mm 0,3 km/h (0 Bft) W-NW 288 ° 0 min 0,000 mm 0,0 UV-I 0 W/m² 1,1 °C 1,6 km/h (1 Bft)
29.10.2016 03:29 2,2 °C 2,2 °C 93 % 1034,2 hPa 0,0 mm 1,3 km/h (1 Bft) W-NW 288 ° 0 min 0,000 mm 0,0 UV-I 0 W/m² 1,2 °C 1,6 km/h (1 Bft)
29.10.2016 03:30 2,2 °C 2,2 °C 94 % 1034,2 hPa 0,0 mm 0,3 km/h (0 Bft) W-NW 288 ° 0 min 0,000 mm 0,0 UV-I 0 W/m² 1,3 °C 1,6 km/h (1 Bft)
29.10.2016 03:31 2,3 °C 2,3 °C 94 % 1034,3 hPa 0,0 mm 0,0 km/h (0 Bft) W-NW 288 ° 0 min 0,000 mm 0,0 UV-I 0 W/m² 1,4 °C 0,0 km/h (0 Bft)
29.10.2016 03:32 2,3 °C 2,3 °C 94 % 1034,3 hPa 0,0 mm 0,0 km/h (0 Bft) W-NW 288 ° 0 min 0,000 mm 0,0 UV-I 0 W/m² 1,4 °C 0,0 km/h (0 Bft)
29.10.2016 03:33 2,2 °C 2,3 °C 94 % 1034,3 hPa 0,0 mm 0,5 km/h (0 Bft) W-NW 288 ° 0 min 0,000 mm 0,0 UV-I 0 W/m² 1,3 °C 1,6 km/h (1 Bft)
29.10.2016 03:34 2,2 °C 2,2 °C 93 % 1034,4 hPa 0,0 mm 0,1 km/h (0 Bft) W-NW 288 ° 0 min 0,000 mm 0,0 UV-I 0 W/m² 1,2 °C 1,6 km/h (1 Bft)
29.10.2016 03:35 2,1 °C 2,2 °C 93 % 1034,4 hPa 0,0 mm 0,0 km/h (0 Bft) W-NW 288 ° 0 min 0,000 mm 0,0 UV-I 0 W/m² 1,1 °C 0,0 km/h (0 Bft)
29.10.2016 03:36 2,1 °C 2,1 °C 93 % 1034,3 hPa 0,0 mm 0,1 km/h (0 Bft) W-NW 288 ° 0 min 0,000 mm 0,0 UV-I 0 W/m² 1,1 °C 1,6 km/h (1 Bft)
29.10.2016 03:37 2,1 °C 2,1 °C 93 % 1034,3 hPa 0,0 mm 1,0 km/h (0 Bft) W-NW 288 ° 0 min 0,000 mm 0,0 UV-I 0 W/m² 1,1 °C 1,6 km/h (1 Bft)
29.10.2016 03:38 2,1 °C 2,1 °C 94 % 1034,3 hPa 0,0 mm 1,0 km/h (0 Bft) W-NW 288 ° 0 min 0,000 mm 0,0 UV-I 0 W/m² 1,2 °C 1,6 km/h (1 Bft)
29.10.2016 03:39 2,1 °C 2,1 °C 94 % 1034,3 hPa 0,0 mm 1,1 km/h (1 Bft) W-NW 288 ° 0 min 0,000 mm 0,0 UV-I 0 W/m² 1,2 °C 1,6 km/h (1 Bft)
29.10.2016 03:40 2,2 °C 2,2 °C 94 % 1034,3 hPa 0,0 mm 0,3 km/h (0 Bft) W-NW 288 ° 0 min 0,000 mm 0,0 UV-I 0 W/m² 1,3 °C 1,6 km/h (1 Bft)
29.10.2016 03:41 2,3 °C 2,3 °C 94 % 1034,3 hPa 0,0 mm 0,3 km/h (0 Bft) W-NW 288 ° 0 min 0,000 mm 0,0 UV-I 0 W/m² 1,4 °C 1,6 km/h (1 Bft)
29.10.2016 03:42 2,3 °C 2,3 °C 94 % 1034,4 hPa 0,0 mm 0,0 km/h (0 Bft) W-NW 288 ° 0 min 0,000 mm 0,0 UV-I 0 W/m² 1,4 °C 0,0 km/h (0 Bft)
29.10.2016 03:43 2,3 °C 2,3 °C 94 % 1034,4 hPa 0,0 mm 0,0 km/h (0 Bft) W-NW 288 ° 0 min 0,000 mm 0,0 UV-I 0 W/m² 1,4 °C 0,0 km/h (0 Bft)
29.10.2016 03:44 2,3 °C 2,3 °C 94 % 1034,5 hPa 0,0 mm 0,8 km/h (0 Bft) W-NW 288 ° 0 min 0,000 mm 0,0 UV-I 0 W/m² 1,4 °C 1,6 km/h (1 Bft)
29.10.2016 03:45 2,3 °C 2,3 °C 94 % 1034,5 hPa 0,0 mm 1,7 km/h (1 Bft) W-NW 288 ° 0 min 0,000 mm 0,0 UV-I 0 W/m² 1,4 °C 3,2 km/h (1 Bft)
29.10.2016 03:46 2,3 °C 2,3 °C 94 % 1034,5 hPa 0,0 mm 1,6 km/h (1 Bft) W-NW 288 ° 0 min 0,000 mm 0,0 UV-I 0 W/m² 1,4 °C 1,6 km/h (1 Bft)
29.10.2016 03:47 2,3 °C 2,3 °C 94 % 1034,5 hPa 0,0 mm 2,2 km/h (1 Bft) W-NW 288 ° 0 min 0,000 mm 0,0 UV-I 0 W/m² 1,4 °C 3,2 km/h (1 Bft)
29.10.2016 03:48 2,4 °C 2,4 °C 94 % 1034,5 hPa 0,0 mm 2,6 km/h (1 Bft) SW 229 ° 0 min 0,000 mm 0,0 UV-I 0 W/m² 1,5 °C 3,2 km/h (1 Bft)
29.10.2016 03:49 2,5 °C 2,5 °C 94 % 1034,6 hPa 0,0 mm 1,5 km/h (1 Bft) SW 228 ° 0 min 0,000 mm 0,0 UV-I 0 W/m² 1,6 °C 3,2 km/h (1 Bft)
29.10.2016 03:50 2,6 °C 2,6 °C 94 % 1034,5 hPa 0,0 mm 2,5 km/h (1 Bft) SW 228 ° 0 min 0,000 mm 0,0 UV-I 0 W/m² 1,7 °C 3,2 km/h (1 Bft)
29.10.2016 03:51 2,6 °C 2,6 °C 94 % 1034,6 hPa 0,0 mm 2,9 km/h (1 Bft) SW 221 ° 0 min 0,000 mm 0,0 UV-I 0 W/m² 1,7 °C 3,2 km/h (1 Bft)
29.10.2016 03:52 2,7 °C 2,7 °C 94 % 1034,5 hPa 0,0 mm 2,7 km/h (1 Bft) S-SW 193 ° 0 min 0,000 mm 0,0 UV-I 0 W/m² 1,8 °C 4,8 km/h (1 Bft)
29.10.2016 03:53 2,7 °C 2,7 °C 94 % 1034,5 hPa 0,0 mm 3,0 km/h (1 Bft) S 188 ° 0 min 0,000 mm 0,0 UV-I 0 W/m² 1,8 °C 4,8 km/h (1 Bft)
29.10.2016 03:54 2,7 °C 2,7 °C 94 % 1034,5 hPa 0,0 mm 2,1 km/h (1 Bft) S 187 ° 0 min 0,000 mm 0,0 UV-I 0 W/m² 1,8 °C 3,2 km/h (1 Bft)
29.10.2016 03:55 2,8 °C 2,8 °C 94 % 1034,5 hPa 0,0 mm 2,9 km/h (1 Bft) S 182 ° 0 min 0,000 mm 0,0 UV-I 0 W/m² 1,9 °C 4,8 km/h (1 Bft)
29.10.2016 03:56 2,8 °C 2,8 °C 94 % 1034,5 hPa 0,0 mm 1,7 km/h (1 Bft) S 182 ° 0 min 0,000 mm 0,0 UV-I 0 W/m² 1,9 °C 3,2 km/h (1 Bft)
29.10.2016 03:57 2,9 °C 2,9 °C 94 % 1034,4 hPa 0,0 mm 0,2 km/h (0 Bft) S 182 ° 0 min 0,000 mm 0,0 UV-I 0 W/m² 2,0 °C 1,6 km/h (1 Bft)
29.10.2016 03:58 2,9 °C 2,9 °C 94 % 1034,4 hPa 0,0 mm 0,0 km/h (0 Bft) S 182 ° 0 min 0,000 mm 0,0 UV-I 0 W/m² 2,0 °C 0,0 km/h (0 Bft)
29.10.2016 03:59 2,9 °C 2,9 °C 94 % 1034,4 hPa 0,0 mm 0,0 km/h (0 Bft) S 182 ° 0 min 0,000 mm 0,0 UV-I 0 W/m² 2,0 °C 0,0 km/h (0 Bft)
29.10.2016 04:00 3,0 °C 3,0 °C 94 % 1034,4 hPa 0,0 mm 0,0 km/h (0 Bft) S 182 ° 0 min 0,000 mm 0,0 UV-I 0 W/m² 2,1 °C 0,0 km/h (0 Bft)
29.10.2016 04:02 2,8 °C 3,0 °C 93 % 1034,4 hPa 0,0 mm 0,0 km/h (0 Bft) S 182 ° 0 min 0,000 mm 0,0 UV-I 0 W/m² 1,8 °C 0,0 km/h (0 Bft)
29.10.2016 04:03 2,7 °C 2,8 °C 93 % 1034,4 hPa 0,0 mm 0,0 km/h (0 Bft) S 182 ° 0 min 0,000 mm 0,0 UV-I 0 W/m² 1,7 °C 0,0 km/h (0 Bft)
29.10.2016 04:04 2,7 °C 2,7 °C 93 % 1034,3 hPa 0,0 mm 0,0 km/h (0 Bft) S 182 ° 0 min 0,000 mm 0,0 UV-I 0 W/m² 1,7 °C 0,0 km/h (0 Bft)
29.10.2016 04:05 2,7 °C 2,7 °C 93 % 1034,4 hPa 0,0 mm 0,0 km/h (0 Bft) S 182 ° 0 min 0,000 mm 0,0 UV-I 0 W/m² 1,7 °C 0,0 km/h (0 Bft)
29.10.2016 04:06 2,8 °C 2,8 °C 94 % 1034,4 hPa 0,0 mm 0,0 km/h (0 Bft) S 182 ° 0 min 0,000 mm 0,0 UV-I 0 W/m² 1,9 °C 0,0 km/h (0 Bft)
29.10.2016 04:07 2,9 °C 2,9 °C 95 % 1034,4 hPa 0,0 mm 0,0 km/h (0 Bft) S 182 ° 0 min 0,000 mm 0,0 UV-I 0 W/m² 2,2 °C 0,0 km/h (0 Bft)
29.10.2016 04:08 2,9 °C 3,0 °C 95 % 1034,3 hPa 0,0 mm 0,0 km/h (0 Bft) S 182 ° 0 min 0,000 mm 0,0 UV-I 0 W/m² 2,2 °C 0,0 km/h (0 Bft)
29.10.2016 04:09 2,8 °C 2,9 °C 94 % 1034,4 hPa 0,0 mm 1,2 km/h (1 Bft) S 182 ° 0 min 0,000 mm 0,0 UV-I 0 W/m² 1,9 °C 1,6 km/h (1 Bft)
29.10.2016 04:10 2,6 °C 2,8 °C 93 % 1034,4 hPa 0,0 mm 0,7 km/h (0 Bft) S 182 ° 0 min 0,000 mm 0,0 UV-I 0 W/m² 1,6 °C 1,6 km/h (1 Bft)
29.10.2016 04:11 2,4 °C 2,6 °C 92 % 1034,4 hPa 0,0 mm 0,1 km/h (0 Bft) S 182 ° 0 min 0,000 mm 0,0 UV-I 0 W/m² 1,2 °C 1,6 km/h (1 Bft)
29.10.2016 04:12 2,3 °C 2,4 °C 93 % 1034,4 hPa 0,0 mm 0,3 km/h (0 Bft) S 182 ° 0 min 0,000 mm 0,0 UV-I 0 W/m² 1,3 °C 1,6 km/h (1 Bft)
29.10.2016 04:13 2,2 °C 2,3 °C 93 % 1034,3 hPa 0,0 mm 0,5 km/h (0 Bft) S 182 ° 0 min 0,000 mm 0,0 UV-I 0 W/m² 1,2 °C 1,6 km/h (1 Bft)
29.10.2016 04:14 2,3 °C 2,3 °C 93 % 1034,3 hPa 0,0 mm 0,8 km/h (0 Bft) S 182 ° 0 min 0,000 mm 0,0 UV-I 0 W/m² 1,3 °C 1,6 km/h (1 Bft)
29.10.2016 04:15 2,3 °C 2,3 °C 94 % 1034,3 hPa 0,0 mm 0,2 km/h (0 Bft) S 182 ° 0 min 0,000 mm 0,0 UV-I 0 W/m² 1,4 °C 1,6 km/h (1 Bft)
29.10.2016 04:16 2,2 °C 2,3 °C 94 % 1034,3 hPa 0,0 mm 0,3 km/h (0 Bft) S 182 ° 0 min 0,000 mm 0,0 UV-I 0 W/m² 1,3 °C 1,6 km/h (1 Bft)
29.10.2016 04:17 2,2 °C 2,2 °C 94 % 1034,4 hPa 0,0 mm 2,4 km/h (1 Bft) S 182 ° 0 min 0,000 mm 0,0 UV-I 0 W/m² 1,3 °C 3,2 km/h (1 Bft)
29.10.2016 04:18 2,2 °C 2,2 °C 94 % 1034,3 hPa 0,0 mm 2,1 km/h (1 Bft) S-SO 157 ° 0 min 0,000 mm 0,0 UV-I 0 W/m² 1,3 °C 3,2 km/h (1 Bft)
29.10.2016 04:19 2,2 °C 2,2 °C 94 % 1034,3 hPa 0,0 mm 3,0 km/h (1 Bft) S-SO 156 ° 0 min 0,000 mm 0,0 UV-I 0 W/m² 1,3 °C 3,2 km/h (1 Bft)
29.10.2016 04:20 2,2 °C 2,2 °C 94 % 1034,4 hPa 0,0 mm 2,2 km/h (1 Bft) S-SO 156 ° 0 min 0,000 mm 0,0 UV-I 0 W/m² 1,3 °C 3,2 km/h (1 Bft)
29.10.2016 04:21 2,2 °C 2,2 °C 94 % 1034,4 hPa 0,0 mm 1,7 km/h (1 Bft) S-SO 156 ° 0 min 0,000 mm 0,0 UV-I 0 W/m² 1,3 °C 3,2 km/h (1 Bft)
29.10.2016 04:22 2,2 °C 2,2 °C 94 % 1034,4 hPa 0,0 mm 1,3 km/h (1 Bft) S-SO 156 ° 0 min 0,000 mm 0,0 UV-I 0 W/m² 1,3 °C 1,6 km/h (1 Bft)
29.10.2016 04:23 2,3 °C 2,3 °C 94 % 1034,3 hPa 0,0 mm 0,8 km/h (0 Bft) S-SO 156 ° 0 min 0,000 mm 0,0 UV-I 0 W/m² 1,4 °C 1,6 km/h (1 Bft)
29.10.2016 04:24 2,3 °C 2,3 °C 94 % 1034,4 hPa 0,0 mm 0,5 km/h (0 Bft) S-SO 156 ° 0 min 0,000 mm 0,0 UV-I 0 W/m² 1,4 °C 1,6 km/h (1 Bft)
29.10.2016 04:25 2,4 °C 2,4 °C 94 % 1034,4 hPa 0,0 mm 0,8 km/h (0 Bft) S-SO 156 ° 0 min 0,000 mm 0,0 UV-I 0 W/m² 1,5 °C 1,6 km/h (1 Bft)
29.10.2016 04:26 2,5 °C 2,5 °C 95 % 1034,3 hPa 0,0 mm 0,0 km/h (0 Bft) S-SO 156 ° 0 min 0,000 mm 0,0 UV-I 0 W/m² 1,8 °C 0,0 km/h (0 Bft)
29.10.2016 04:27 2,7 °C 2,7 °C 95 % 1034,3 hPa 0,0 mm 0,0 km/h (0 Bft) S-SO 156 ° 0 min 0,000 mm 0,0 UV-I 0 W/m² 2,0 °C 0,0 km/h (0 Bft)
29.10.2016 04:28 2,8 °C 2,8 °C 95 % 1034,3 hPa 0,0 mm 0,0 km/h (0 Bft) S-SO 156 ° 0 min 0,000 mm 0,0 UV-I 0 W/m² 2,1 °C 0,0 km/h (0 Bft)
29.10.2016 04:29 2,9 °C 2,9 °C 95 % 1034,3 hPa 0,0 mm 0,0 km/h (0 Bft) S-SO 156 ° 0 min 0,000 mm 0,0 UV-I 0 W/m² 2,2 °C 0,0 km/h (0 Bft)
29.10.2016 04:30 2,9 °C 2,9 °C 95 % 1034,2 hPa 0,0 mm 0,0 km/h (0 Bft) S-SO 156 ° 0 min 0,000 mm 0,0 UV-I 0 W/m² 2,2 °C 0,0 km/h (0 Bft)
29.10.2016 04:31 2,9 °C 3,0 °C 95 % 1034,2 hPa 0,0 mm 0,0 km/h (0 Bft) S-SO 156 ° 0 min 0,000 mm 0,0 UV-I 0 W/m² 2,2 °C 0,0 km/h (0 Bft)
29.10.2016 04:32 3,0 °C 3,0 °C 95 % 1034,2 hPa 0,0 mm 0,0 km/h (0 Bft) S-SO 156 ° 0 min 0,000 mm 0,0 UV-I 0 W/m² 2,3 °C 0,0 km/h (0 Bft)
29.10.2016 04:33 3,1 °C 3,1 °C 95 % 1034,2 hPa 0,0 mm 0,1 km/h (0 Bft) S-SO 156 ° 0 min 0,000 mm 0,0 UV-I 0 W/m² 2,4 °C 1,6 km/h (1 Bft)
29.10.2016 04:34 3,1 °C 3,1 °C 95 % 1034,2 hPa 0,0 mm 0,1 km/h (0 Bft) S-SO 156 ° 0 min 0,000 mm 0,0 UV-I 0 W/m² 2,4 °C 1,6 km/h (1 Bft)
29.10.2016 04:35 3,2 °C 3,2 °C 94 % 1034,3 hPa 0,0 mm 0,1 km/h (0 Bft) S-SO 156 ° 0 min 0,000 mm 0,0 UV-I 0 W/m² 2,3 °C 1,6 km/h (1 Bft)
29.10.2016 04:36 3,3 °C 3,3 °C 95 % 1034,3 hPa 0,0 mm 0,0 km/h (0 Bft) S-SO 156 ° 0 min 0,000 mm 0,0 UV-I 0 W/m² 2,6 °C 0,0 km/h (0 Bft)
29.10.2016 04:37 3,3 °C 3,3 °C 94 % 1034,3 hPa 0,0 mm 0,0 km/h (0 Bft) S-SO 156 ° 0 min 0,000 mm 0,0 UV-I 0 W/m² 2,4 °C 0,0 km/h (0 Bft)
29.10.2016 04:38 3,3 °C 3,3 °C 94 % 1034,3 hPa 0,0 mm 0,0 km/h (0 Bft) S-SO 156 ° 0 min 0,000 mm 0,0 UV-I 0 W/m² 2,4 °C 0,0 km/h (0 Bft)
29.10.2016 04:39 3,2 °C 3,3 °C 94 % 1034,3 hPa 0,0 mm 0,0 km/h (0 Bft) S-SO 156 ° 0 min 0,000 mm 0,0 UV-I 0 W/m² 2,3 °C 0,0 km/h (0 Bft)
29.10.2016 04:40 3,2 °C 3,2 °C 94 % 1034,3 hPa 0,0 mm 1,4 km/h (1 Bft) S-SO 156 ° 0 min 0,000 mm 0,0 UV-I 0 W/m² 2,3 °C 3,2 km/h (1 Bft)
29.10.2016 04:41 3,2 °C 3,2 °C 94 % 1034,3 hPa 0,0 mm 1,4 km/h (1 Bft) S-SO 156 ° 0 min 0,000 mm 0,0 UV-I 0 W/m² 2,3 °C 3,2 km/h (1 Bft)
29.10.2016 04:42 3,2 °C 3,2 °C 93 % 1034,3 hPa 0,0 mm 1,3 km/h (1 Bft) S-SO 156 ° 0 min 0,000 mm 0,0 UV-I 0 W/m² 2,2 °C 1,6 km/h (1 Bft)
29.10.2016 04:43 3,2 °C 3,2 °C 94 % 1034,3 hPa 0,0 mm 0,7 km/h (0 Bft) S-SO 156 ° 0 min 0,000 mm 0,0 UV-I 0 W/m² 2,3 °C 1,6 km/h (1 Bft)
29.10.2016 04:44 3,2 °C 3,2 °C 94 % 1034,2 hPa 0,0 mm 0,0 km/h (0 Bft) S-SO 156 ° 0 min 0,000 mm 0,0 UV-I 0 W/m² 2,3 °C 0,0 km/h (0 Bft)
29.10.2016 04:45 3,2 °C 3,2 °C 94 % 1034,2 hPa 0,0 mm 0,0 km/h (0 Bft) S-SO 156 ° 0 min 0,000 mm 0,0 UV-I 0 W/m² 2,3 °C 0,0 km/h (0 Bft)
29.10.2016 04:46 3,2 °C 3,2 °C 94 % 1034,1 hPa 0,0 mm 0,0 km/h (0 Bft) S-SO 156 ° 0 min 0,000 mm 0,0 UV-I 0 W/m² 2,3 °C 0,0 km/h (0 Bft)
29.10.2016 04:47 3,3 °C 3,3 °C 94 % 1034,1 hPa 0,0 mm 0,0 km/h (0 Bft) S-SO 156 ° 0 min 0,000 mm 0,0 UV-I 0 W/m² 2,4 °C 0,0 km/h (0 Bft)
29.10.2016 04:48 3,3 °C 3,3 °C 94 % 1034,1 hPa 0,0 mm 0,0 km/h (0 Bft) S-SO 156 ° 0 min 0,000 mm 0,0 UV-I 0 W/m² 2,4 °C 0,0 km/h (0 Bft)
29.10.2016 04:49 3,3 °C 3,3 °C 94 % 1034,1 hPa 0,0 mm 0,0 km/h (0 Bft) S-SO 156 ° 0 min 0,000 mm 0,0 UV-I 0 W/m² 2,4 °C 0,0 km/h (0 Bft)
29.10.2016 04:50 3,4 °C 3,4 °C 94 % 1034,1 hPa 0,0 mm 0,3 km/h (0 Bft) S-SO 156 ° 0 min 0,000 mm 0,0 UV-I 0 W/m² 2,5 °C 1,6 km/h (1 Bft)
29.10.2016 04:51 3,5 °C 3,5 °C 94 % 1034,1 hPa 0,0 mm 0,6 km/h (0 Bft) S-SO 156 ° 0 min 0,000 mm 0,0 UV-I 0 W/m² 2,6 °C 1,6 km/h (1 Bft)
29.10.2016 04:52 3,6 °C 3,6 °C 94 % 1034,1 hPa 0,0 mm 0,5 km/h (0 Bft) S-SO 156 ° 0 min 0,000 mm 0,0 UV-I 0 W/m² 2,7 °C 1,6 km/h (1 Bft)
29.10.2016 04:53 3,7 °C 3,7 °C 95 % 1034,2 hPa 0,0 mm 0,0 km/h (0 Bft) S-SO 156 ° 0 min 0,000 mm 0,0 UV-I 0 W/m² 3,0 °C 0,0 km/h (0 Bft)
29.10.2016 04:54 3,8 °C 3,8 °C 95 % 1034,1 hPa 0,0 mm 0,0 km/h (0 Bft) S-SO 156 ° 0 min 0,000 mm 0,0 UV-I 0 W/m² 3,1 °C 0,0 km/h (0 Bft)
29.10.2016 04:55 3,8 °C 3,9 °C 94 % 1034,2 hPa 0,0 mm 0,3 km/h (0 Bft) S-SO 156 ° 0 min 0,000 mm 0,0 UV-I 0 W/m² 2,9 °C 1,6 km/h (1 Bft)
29.10.2016 04:56 3,8 °C 3,8 °C 94 % 1034,2 hPa 0,0 mm 0,6 km/h (0 Bft) S-SO 156 ° 0 min 0,000 mm 0,0 UV-I 0 W/m² 2,9 °C 1,6 km/h (1 Bft)
29.10.2016 04:57 3,7 °C 3,8 °C 93 % 1034,2 hPa 0,0 mm 0,3 km/h (0 Bft) S-SO 156 ° 0 min 0,000 mm 0,0 UV-I 0 W/m² 2,7 °C 1,6 km/h (1 Bft)
29.10.2016 04:58 3,7 °C 3,7 °C 93 % 1034,2 hPa 0,0 mm 0,3 km/h (0 Bft) S-SO 156 ° 0 min 0,000 mm 0,0 UV-I 0 W/m² 2,7 °C 1,6 km/h (1 Bft)
29.10.2016 04:59 3,6 °C 3,7 °C 93 % 1034,2 hPa 0,0 mm 2,0 km/h (1 Bft) S-SO 156 ° 0 min 0,000 mm 0,0 UV-I 0 W/m² 2,6 °C 3,2 km/h (1 Bft)
29.10.2016 05:00 3,6 °C 3,6 °C 93 % 1034,3 hPa 0,0 mm 2,1 km/h (1 Bft) S-SO 156 ° 0 min 0,000 mm 0,0 UV-I 0 W/m² 2,6 °C 3,2 km/h (1 Bft)
29.10.2016 05:01 3,6 °C 3,6 °C 93 % 1034,3 hPa 0,0 mm 2,2 km/h (1 Bft) S-SO 156 ° 0 min 0,000 mm 0,0 UV-I 0 W/m² 2,6 °C 3,2 km/h (1 Bft)
29.10.2016 05:02 3,6 °C 3,6 °C 94 % 1034,3 hPa 0,0 mm 2,3 km/h (1 Bft) S-SO 156 ° 0 min 0,000 mm 0,0 UV-I 0 W/m² 2,7 °C 3,2 km/h (1 Bft)
29.10.2016 05:03 3,6 °C 3,6 °C 94 % 1034,4 hPa 0,0 mm 2,0 km/h (1 Bft) S-SO 156 ° 0 min 0,000 mm 0,0 UV-I 0 W/m² 2,7 °C 3,2 km/h (1 Bft)
29.10.2016 05:04 3,6 °C 3,6 °C 94 % 1034,3 hPa 0,0 mm 1,6 km/h (1 Bft) S-SO 156 ° 0 min 0,000 mm 0,0 UV-I 0 W/m² 2,7 °C 3,2 km/h (1 Bft)
29.10.2016 05:05 3,6 °C 3,6 °C 94 % 1034,4 hPa 0,0 mm 1,4 km/h (1 Bft) S-SO 156 ° 0 min 0,000 mm 0,0 UV-I 0 W/m² 2,7 °C 1,6 km/h (1 Bft)
29.10.2016 05:06 3,7 °C 3,7 °C 94 % 1034,4 hPa 0,0 mm 0,3 km/h (0 Bft) S-SO 156 ° 0 min 0,000 mm 0,0 UV-I 0 W/m² 2,8 °C 1,6 km/h (1 Bft)
29.10.2016 05:07 3,7 °C 3,7 °C 94 % 1034,4 hPa 0,0 mm 0,1 km/h (0 Bft) S-SO 156 ° 0 min 0,000 mm 0,0 UV-I 0 W/m² 2,8 °C 1,6 km/h (1 Bft)
29.10.2016 05:08 3,7 °C 3,7 °C 94 % 1034,4 hPa 0,0 mm 1,2 km/h (1 Bft) S-SO 156 ° 0 min 0,000 mm 0,0 UV-I 0 W/m² 2,8 °C 1,6 km/h (1 Bft)
29.10.2016 05:09 3,7 °C 3,7 °C 93 % 1034,4 hPa 0,0 mm 0,3 km/h (0 Bft) S-SO 156 ° 0 min 0,000 mm 0,0 UV-I 0 W/m² 2,7 °C 1,6 km/h (1 Bft)
29.10.2016 05:10 3,8 °C 3,8 °C 93 % 1034,3 hPa 0,0 mm 0,1 km/h (0 Bft) S-SO 156 ° 0 min 0,000 mm 0,0 UV-I 0 W/m² 2,8 °C 1,6 km/h (1 Bft)
29.10.2016 05:11 3,8 °C 3,8 °C 93 % 1034,3 hPa 0,0 mm 0,6 km/h (0 Bft) S-SO 156 ° 0 min 0,000 mm 0,0 UV-I 0 W/m² 2,8 °C 1,6 km/h (1 Bft)
29.10.2016 05:12 3,8 °C 3,8 °C 93 % 1034,3 hPa 0,0 mm 0,3 km/h (0 Bft) S-SO 156 ° 0 min 0,000 mm 0,0 UV-I 0 W/m² 2,8 °C 1,6 km/h (1 Bft)
29.10.2016 05:13 3,9 °C 3,9 °C 93 % 1034,2 hPa 0,0 mm 0,0 km/h (0 Bft) S-SO 156 ° 0 min 0,000 mm 0,0 UV-I 0 W/m² 2,9 °C 0,0 km/h (0 Bft)
29.10.2016 05:14 3,9 °C 3,9 °C 93 % 1034,2 hPa 0,0 mm 0,3 km/h (0 Bft) S-SO 156 ° 0 min 0,000 mm 0,0 UV-I 0 W/m² 2,9 °C 1,6 km/h (1 Bft)
29.10.2016 05:15 3,9 °C 3,9 °C 93 % 1034,1 hPa 0,0 mm 1,6 km/h (1 Bft) S-SO 156 ° 0 min 0,000 mm 0,0 UV-I 0 W/m² 2,9 °C 1,6 km/h (1 Bft)
29.10.2016 05:16 3,9 °C 4,0 °C 93 % 1034,2 hPa 0,0 mm 1,5 km/h (1 Bft) S-SO 156 ° 0 min 0,000 mm 0,0 UV-I 0 W/m² 2,9 °C 1,6 km/h (1 Bft)
29.10.2016 05:17 4,0 °C 4,0 °C 93 % 1034,1 hPa 0,0 mm 1,2 km/h (1 Bft) S-SO 156 ° 0 min 0,000 mm 0,0 UV-I 0 W/m² 3,0 °C 1,6 km/h (1 Bft)
29.10.2016 05:18 4,0 °C 4,0 °C 93 % 1034,1 hPa 0,0 mm 1,3 km/h (1 Bft) S-SO 157 ° 0 min 0,000 mm 0,0 UV-I 0 W/m² 3,0 °C 3,2 km/h (1 Bft)
29.10.2016 05:19 4,0 °C 4,0 °C 93 % 1034,1 hPa 0,0 mm 1,5 km/h (1 Bft) S-SO 157 ° 0 min 0,000 mm 0,0 UV-I 0 W/m² 3,0 °C 1,6 km/h (1 Bft)
29.10.2016 05:20 4,1 °C 4,1 °C 93 % 1034,1 hPa 0,0 mm 0,6 km/h (0 Bft) S-SO 157 ° 0 min 0,000 mm 0,0 UV-I 0 W/m² 3,1 °C 1,6 km/h (1 Bft)
29.10.2016 05:21 4,1 °C 4,1 °C 93 % 1034,0 hPa 0,0 mm 0,1 km/h (0 Bft) S-SO 157 ° 0 min 0,000 mm 0,0 UV-I 0 W/m² 3,1 °C 1,6 km/h (1 Bft)
29.10.2016 05:22 4,1 °C 4,1 °C 93 % 1034,0 hPa 0,0 mm 0,0 km/h (0 Bft) S-SO 157 ° 0 min 0,000 mm 0,0 UV-I 0 W/m² 3,1 °C 0,0 km/h (0 Bft)
29.10.2016 05:23 4,1 °C 4,1 °C 93 % 1033,9 hPa 0,0 mm 0,0 km/h (0 Bft) S-SO 157 ° 0 min 0,000 mm 0,0 UV-I 0 W/m² 3,1 °C 0,0 km/h (0 Bft)
29.10.2016 05:24 4,2 °C 4,2 °C 93 % 1033,9 hPa 0,0 mm 0,1 km/h (0 Bft) S-SO 157 ° 0 min 0,000 mm 0,0 UV-I 0 W/m² 3,2 °C 1,6 km/h (1 Bft)
29.10.2016 05:25 4,2 °C 4,2 °C 93 % 1034,0 hPa 0,0 mm 0,0 km/h (0 Bft) S-SO 157 ° 0 min 0,000 mm 0,0 UV-I 0 W/m² 3,2 °C 0,0 km/h (0 Bft)
29.10.2016 05:26 4,2 °C 4,2 °C 93 % 1034,0 hPa 0,0 mm 0,3 km/h (0 Bft) S-SO 157 ° 0 min 0,000 mm 0,0 UV-I 0 W/m² 3,2 °C 1,6 km/h (1 Bft)
29.10.2016 05:27 4,2 °C 4,2 °C 93 % 1034,0 hPa 0,0 mm 1,3 km/h (1 Bft) S-SO 157 ° 0 min 0,000 mm 0,0 UV-I 0 W/m² 3,2 °C 3,2 km/h (1 Bft)
29.10.2016 05:28 4,2 °C 4,2 °C 93 % 1034,0 hPa 0,0 mm 2,1 km/h (1 Bft) S-SO 156 ° 0 min 0,000 mm 0,0 UV-I 0 W/m² 3,2 °C 3,2 km/h (1 Bft)
29.10.2016 05:29 4,2 °C 4,2 °C 93 % 1034,0 hPa 0,0 mm 1,6 km/h (1 Bft) S-SO 156 ° 0 min 0,000 mm 0,0 UV-I 0 W/m² 3,2 °C 1,6 km/h (1 Bft)
29.10.2016 05:30 4,2 °C 4,2 °C 93 % 1034,0 hPa 0,0 mm 1,3 km/h (1 Bft) S-SO 156 ° 0 min 0,000 mm 0,0 UV-I 0 W/m² 3,2 °C 1,6 km/h (1 Bft)
29.10.2016 05:31 4,2 °C 4,2 °C 93 % 1034,0 hPa 0,0 mm 1,0 km/h (0 Bft) S-SO 156 ° 0 min 0,000 mm 0,0 UV-I 0 W/m² 3,2 °C 1,6 km/h (1 Bft)
29.10.2016 05:32 4,1 °C 4,2 °C 93 % 1034,0 hPa 0,0 mm 0,8 km/h (0 Bft) S-SO 156 ° 0 min 0,000 mm 0,0 UV-I 0 W/m² 3,1 °C 3,2 km/h (1 Bft)
29.10.2016 05:33 4,1 °C 4,1 °C 92 % 1034,0 hPa 0,0 mm 2,4 km/h (1 Bft) S-SO 156 ° 0 min 0,000 mm 0,0 UV-I 0 W/m² 2,9 °C 3,2 km/h (1 Bft)
29.10.2016 05:34 4,1 °C 4,1 °C 92 % 1034,0 hPa 0,0 mm 1,8 km/h (1 Bft) S-SO 156 ° 0 min 0,000 mm 0,0 UV-I 0 W/m² 2,9 °C 3,2 km/h (1 Bft)
29.10.2016 05:35 4,1 °C 4,1 °C 92 % 1034,0 hPa 0,0 mm 0,6 km/h (0 Bft) S-SO 156 ° 0 min 0,000 mm 0,0 UV-I 0 W/m² 2,9 °C 1,6 km/h (1 Bft)
29.10.2016 05:36 4,2 °C 4,2 °C 92 % 1034,0 hPa 0,0 mm 0,0 km/h (0 Bft) S-SO 156 ° 0 min 0,000 mm 0,0 UV-I 0 W/m² 3,0 °C 0,0 km/h (0 Bft)
29.10.2016 05:37 4,2 °C 4,2 °C 92 % 1034,1 hPa 0,0 mm 0,1 km/h (0 Bft) S-SO 156 ° 0 min 0,000 mm 0,0 UV-I 0 W/m² 3,0 °C 1,6 km/h (1 Bft)
29.10.2016 05:38 4,2 °C 4,2 °C 92 % 1034,0 hPa 0,0 mm 0,5 km/h (0 Bft) S-SO 156 ° 0 min 0,000 mm 0,0 UV-I 0 W/m² 3,0 °C 1,6 km/h (1 Bft)
29.10.2016 05:39 4,2 °C 4,2 °C 92 % 1034,0 hPa 0,0 mm 1,4 km/h (1 Bft) S-SO 156 ° 0 min 0,000 mm 0,0 UV-I 0 W/m² 3,0 °C 1,6 km/h (1 Bft)
29.10.2016 05:40 4,2 °C 4,2 °C 92 % 1034,0 hPa 0,0 mm 0,8 km/h (0 Bft) S-SO 156 ° 0 min 0,000 mm 0,0 UV-I 0 W/m² 3,0 °C 1,6 km/h (1 Bft)
29.10.2016 05:41 4,2 °C 4,2 °C 92 % 1034,0 hPa 0,0 mm 0,0 km/h (0 Bft) S-SO 156 ° 0 min 0,000 mm 0,0 UV-I 0 W/m² 3,0 °C 0,0 km/h (0 Bft)
29.10.2016 05:42 4,2 °C 4,2 °C 92 % 1034,0 hPa 0,0 mm 0,0 km/h (0 Bft) S-SO 156 ° 0 min 0,000 mm 0,0 UV-I 0 W/m² 3,0 °C 0,0 km/h (0 Bft)
29.10.2016 05:43 4,2 °C 4,2 °C 92 % 1034,0 hPa 0,0 mm 0,0 km/h (0 Bft) S-SO 156 ° 0 min 0,000 mm 0,0 UV-I 0 W/m² 3,0 °C 0,0 km/h (0 Bft)
29.10.2016 05:44 4,2 °C 4,2 °C 92 % 1034,0 hPa 0,0 mm 0,0 km/h (0 Bft) S-SO 156 ° 0 min 0,000 mm 0,0 UV-I 0 W/m² 3,0 °C 0,0 km/h (0 Bft)
29.10.2016 05:45 4,2 °C 4,2 °C 92 % 1034,0 hPa 0,0 mm 0,0 km/h (0 Bft) S-SO 156 ° 0 min 0,000 mm 0,0 UV-I 0 W/m² 3,0 °C 0,0 km/h (0 Bft)
29.10.2016 05:46 4,2 °C 4,2 °C 92 % 1034,0 hPa 0,0 mm 0,0 km/h (0 Bft) S-SO 156 ° 0 min 0,000 mm 0,0 UV-I 0 W/m² 3,0 °C 0,0 km/h (0 Bft)
29.10.2016 05:47 4,2 °C 4,3 °C 92 % 1034,0 hPa 0,0 mm 0,0 km/h (0 Bft) S-SO 156 ° 0 min 0,000 mm 0,0 UV-I 0 W/m² 3,0 °C 0,0 km/h (0 Bft)
29.10.2016 05:48 4,2 °C 4,2 °C 92 % 1034,0 hPa 0,0 mm 0,0 km/h (0 Bft) S-SO 156 ° 0 min 0,000 mm 0,0 UV-I 0 W/m² 3,0 °C 0,0 km/h (0 Bft)
29.10.2016 05:49 4,2 °C 4,3 °C 92 % 1034,0 hPa 0,0 mm 0,0 km/h (0 Bft) S-SO 156 ° 0 min 0,000 mm 0,0 UV-I 0 W/m² 3,0 °C 0,0 km/h (0 Bft)
29.10.2016 05:50 4,3 °C 4,3 °C 92 % 1034,0 hPa 0,0 mm 0,0 km/h (0 Bft) S-SO 156 ° 0 min 0,000 mm 0,0 UV-I 0 W/m² 3,1 °C 0,0 km/h (0 Bft)
29.10.2016 05:51 4,3 °C 4,3 °C 92 % 1034,0 hPa 0,0 mm 0,9 km/h (0 Bft) S-SO 156 ° 0 min 0,000 mm 0,0 UV-I 0 W/m² 3,1 °C 1,6 km/h (1 Bft)
29.10.2016 05:52 4,3 °C 4,3 °C 92 % 1033,9 hPa 0,0 mm 1,0 km/h (0 Bft) S-SO 156 ° 0 min 0,000 mm 0,0 UV-I 0 W/m² 3,1 °C 1,6 km/h (1 Bft)
29.10.2016 05:53 4,3 °C 4,3 °C 92 % 1034,0 hPa 0,0 mm 0,6 km/h (0 Bft) S-SO 156 ° 0 min 0,000 mm 0,0 UV-I 0 W/m² 3,1 °C 1,6 km/h (1 Bft)
29.10.2016 05:54 4,3 °C 4,3 °C 93 % 1034,0 hPa 0,0 mm 0,1 km/h (0 Bft) S-SO 156 ° 0 min 0,000 mm 0,0 UV-I 0 W/m² 3,3 °C 1,6 km/h (1 Bft)
29.10.2016 05:55 4,3 °C 4,3 °C 93 % 1033,9 hPa 0,0 mm 0,0 km/h (0 Bft) S-SO 156 ° 0 min 0,000 mm 0,0 UV-I 0 W/m² 3,3 °C 0,0 km/h (0 Bft)
29.10.2016 05:56 4,4 °C 4,4 °C 93 % 1033,9 hPa 0,0 mm 0,1 km/h (0 Bft) S-SO 156 ° 0 min 0,000 mm 0,0 UV-I 0 W/m² 3,4 °C 1,6 km/h (1 Bft)
29.10.2016 05:57 4,4 °C 4,4 °C 93 % 1033,9 hPa 0,0 mm 1,1 km/h (1 Bft) S-SO 156 ° 0 min 0,000 mm 0,0 UV-I 0 W/m² 3,4 °C 1,6 km/h (1 Bft)
29.10.2016 05:58 4,4 °C 4,4 °C 93 % 1033,8 hPa 0,0 mm 0,5 km/h (0 Bft) S-SO 156 ° 0 min 0,000 mm 0,0 UV-I 0 W/m² 3,4 °C 1,6 km/h (1 Bft)
29.10.2016 05:59 4,4 °C 4,4 °C 93 % 1033,9 hPa 0,0 mm 0,0 km/h (0 Bft) S-SO 156 ° 0 min 0,000 mm 0,0 UV-I 0 W/m² 3,4 °C 0,0 km/h (0 Bft)
29.10.2016 06:00 4,4 °C 4,5 °C 93 % 1033,9 hPa 0,0 mm 0,0 km/h (0 Bft) S-SO 156 ° 0 min 0,000 mm 0,0 UV-I 0 W/m² 3,4 °C 0,0 km/h (0 Bft)
29.10.2016 06:01 4,5 °C 4,5 °C 93 % 1033,8 hPa 0,0 mm 0,0 km/h (0 Bft) S-SO 156 ° 0 min 0,000 mm 0,0 UV-I 0 W/m² 3,5 °C 0,0 km/h (0 Bft)
29.10.2016 06:02 4,5 °C 4,5 °C 92 % 1033,8 hPa 0,0 mm 0,0 km/h (0 Bft) S-SO 156 ° 0 min 0,000 mm 0,0 UV-I 0 W/m² 3,3 °C 0,0 km/h (0 Bft)
29.10.2016 06:03 4,5 °C 4,5 °C 92 % 1033,8 hPa 0,0 mm 0,0 km/h (0 Bft) S-SO 156 ° 0 min 0,000 mm 0,0 UV-I 0 W/m² 3,3 °C 0,0 km/h (0 Bft)
29.10.2016 06:04 4,5 °C 4,5 °C 92 % 1033,8 hPa 0,0 mm 0,0 km/h (0 Bft) S-SO 156 ° 0 min 0,000 mm 0,0 UV-I 0 W/m² 3,3 °C 0,0 km/h (0 Bft)
29.10.2016 06:05 4,5 °C 4,5 °C 93 % 1033,8 hPa 0,0 mm 0,0 km/h (0 Bft) S-SO 156 ° 0 min 0,000 mm 0,0 UV-I 0 W/m² 3,5 °C 0,0 km/h (0 Bft)
29.10.2016 06:06 4,5 °C 4,5 °C 93 % 1033,8 hPa 0,0 mm 0,0 km/h (0 Bft) S-SO 156 ° 0 min 0,000 mm 0,0 UV-I 0 W/m² 3,5 °C 0,0 km/h (0 Bft)
29.10.2016 06:07 4,4 °C 4,5 °C 93 % 1033,8 hPa 0,0 mm 0,0 km/h (0 Bft) S-SO 156 ° 0 min 0,000 mm 0,0 UV-I 0 W/m² 3,4 °C 0,0 km/h (0 Bft)
29.10.2016 06:08 4,4 °C 4,4 °C 93 % 1033,7 hPa 0,0 mm 1,3 km/h (1 Bft) S-SO 156 ° 0 min 0,000 mm 0,0 UV-I 0 W/m² 3,4 °C 1,6 km/h (1 Bft)
29.10.2016 06:09 4,4 °C 4,4 °C 93 % 1033,8 hPa 0,0 mm 2,6 km/h (1 Bft) SW 221 ° 0 min 0,000 mm 0,0 UV-I 0 W/m² 3,4 °C 4,8 km/h (1 Bft)
29.10.2016 06:10 4,4 °C 4,4 °C 93 % 1033,7 hPa 0,0 mm 2,3 km/h (1 Bft) SW 221 ° 0 min 0,000 mm 0,0 UV-I 0 W/m² 3,4 °C 3,2 km/h (1 Bft)
29.10.2016 06:11 4,3 °C 4,4 °C 93 % 1033,7 hPa 0,0 mm 0,7 km/h (0 Bft) SW 221 ° 0 min 0,000 mm 0,0 UV-I 0 W/m² 3,3 °C 1,6 km/h (1 Bft)
29.10.2016 06:12 4,3 °C 4,3 °C 93 % 1033,8 hPa 0,0 mm 0,0 km/h (0 Bft) SW 221 ° 0 min 0,000 mm 0,0 UV-I 0 W/m² 3,3 °C 0,0 km/h (0 Bft)
29.10.2016 06:13 4,3 °C 4,3 °C 93 % 1033,8 hPa 0,0 mm 0,0 km/h (0 Bft) SW 221 ° 0 min 0,000 mm 0,0 UV-I 0 W/m² 3,3 °C 0,0 km/h (0 Bft)
29.10.2016 06:14 4,3 °C 4,3 °C 93 % 1033,8 hPa 0,0 mm 0,0 km/h (0 Bft) SW 221 ° 0 min 0,000 mm 0,0 UV-I 0 W/m² 3,3 °C 0,0 km/h (0 Bft)
29.10.2016 06:15 4,3 °C 4,3 °C 93 % 1033,8 hPa 0,0 mm 0,0 km/h (0 Bft) SW 221 ° 0 min 0,000 mm 0,0 UV-I 0 W/m² 3,3 °C 0,0 km/h (0 Bft)
29.10.2016 06:16 4,3 °C 4,3 °C 93 % 1033,8 hPa 0,0 mm 0,0 km/h (0 Bft) SW 221 ° 0 min 0,000 mm 0,0 UV-I 0 W/m² 3,3 °C 0,0 km/h (0 Bft)
29.10.2016 06:17 4,3 °C 4,3 °C 93 % 1033,8 hPa 0,0 mm 0,0 km/h (0 Bft) SW 221 ° 0 min 0,000 mm 0,0 UV-I 0 W/m² 3,3 °C 0,0 km/h (0 Bft)
29.10.2016 06:18 4,3 °C 4,3 °C 93 % 1033,8 hPa 0,0 mm 0,0 km/h (0 Bft) SW 221 ° 0 min 0,000 mm 0,0 UV-I 0 W/m² 3,3 °C 0,0 km/h (0 Bft)
29.10.2016 06:19 4,3 °C 4,3 °C 93 % 1033,8 hPa 0,0 mm 0,0 km/h (0 Bft) SW 221 ° 0 min 0,000 mm 0,0 UV-I 0 W/m² 3,3 °C 0,0 km/h (0 Bft)
29.10.2016 06:20 4,3 °C 4,3 °C 93 % 1033,8 hPa 0,0 mm 0,0 km/h (0 Bft) SW 221 ° 0 min 0,000 mm 0,0 UV-I 0 W/m² 3,3 °C 0,0 km/h (0 Bft)
29.10.2016 06:21 4,3 °C 4,3 °C 93 % 1033,8 hPa 0,0 mm 0,2 km/h (0 Bft) SW 221 ° 0 min 0,000 mm 0,0 UV-I 0 W/m² 3,3 °C 1,6 km/h (1 Bft)
29.10.2016 06:22 4,3 °C 4,3 °C 93 % 1033,8 hPa 0,0 mm 0,3 km/h (0 Bft) SW 221 ° 0 min 0,000 mm 0,0 UV-I 0 W/m² 3,3 °C 1,6 km/h (1 Bft)
29.10.2016 06:23 4,3 °C 4,3 °C 93 % 1033,8 hPa 0,0 mm 0,5 km/h (0 Bft) SW 221 ° 0 min 0,000 mm 0,0 UV-I 0 W/m² 3,3 °C 1,6 km/h (1 Bft)
29.10.2016 06:24 4,3 °C 4,3 °C 93 % 1033,8 hPa 0,0 mm 0,0 km/h (0 Bft) SW 221 ° 0 min 0,000 mm 0,0 UV-I 0 W/m² 3,3 °C 0,0 km/h (0 Bft)
29.10.2016 06:25 4,3 °C 4,3 °C 93 % 1033,8 hPa 0,0 mm 0,0 km/h (0 Bft) SW 221 ° 0 min 0,000 mm 0,0 UV-I 0 W/m² 3,3 °C 0,0 km/h (0 Bft)
29.10.2016 06:26 4,3 °C 4,3 °C 93 % 1033,8 hPa 0,0 mm 0,0 km/h (0 Bft) SW 221 ° 0 min 0,000 mm 0,0 UV-I 0 W/m² 3,3 °C 0,0 km/h (0 Bft)
29.10.2016 06:27 4,3 °C 4,3 °C 93 % 1033,8 hPa 0,0 mm 0,1 km/h (0 Bft) SW 221 ° 0 min 0,000 mm 0,0 UV-I 0 W/m² 3,3 °C 1,6 km/h (1 Bft)
29.10.2016 06:28 4,3 °C 4,3 °C 93 % 1033,8 hPa 0,0 mm 0,1 km/h (0 Bft) SW 221 ° 0 min 0,000 mm 0,0 UV-I 0 W/m² 3,3 °C 1,6 km/h (1 Bft)
29.10.2016 06:29 4,3 °C 4,3 °C 93 % 1033,7 hPa 0,0 mm 0,4 km/h (0 Bft) SW 221 ° 0 min 0,000 mm 0,0 UV-I 0 W/m² 3,3 °C 1,6 km/h (1 Bft)
29.10.2016 06:30 4,3 °C 4,3 °C 93 % 1033,6 hPa 0,0 mm 0,7 km/h (0 Bft) SW 221 ° 0 min 0,000 mm 0,0 UV-I 0 W/m² 3,3 °C 1,6 km/h (1 Bft)
29.10.2016 06:31 4,3 °C 4,3 °C 93 % 1033,6 hPa 0,0 mm 0,9 km/h (0 Bft) SW 221 ° 0 min 0,000 mm 0,0 UV-I 0 W/m² 3,3 °C 1,6 km/h (1 Bft)
29.10.2016 06:32 4,3 °C 4,3 °C 93 % 1033,6 hPa 0,0 mm 0,0 km/h (0 Bft) SW 221 ° 0 min 0,000 mm 0,0 UV-I 0 W/m² 3,3 °C 0,0 km/h (0 Bft)
29.10.2016 06:33 4,3 °C 4,3 °C 93 % 1033,6 hPa 0,0 mm 0,0 km/h (0 Bft) SW 221 ° 0 min 0,000 mm 0,0 UV-I 0 W/m² 3,3 °C 0,0 km/h (0 Bft)
29.10.2016 06:34 4,3 °C 4,3 °C 93 % 1033,6 hPa 0,0 mm 0,0 km/h (0 Bft) SW 221 ° 0 min 0,000 mm 0,0 UV-I 0 W/m² 3,3 °C 0,0 km/h (0 Bft)
29.10.2016 06:35 4,3 °C 4,3 °C 93 % 1033,6 hPa 0,0 mm 0,0 km/h (0 Bft) SW 221 ° 0 min 0,000 mm 0,0 UV-I 0 W/m² 3,3 °C 0,0 km/h (0 Bft)
29.10.2016 06:36 4,3 °C 4,3 °C 93 % 1033,6 hPa 0,0 mm 0,0 km/h (0 Bft) SW 221 ° 0 min 0,000 mm 0,0 UV-I 0 W/m² 3,3 °C 0,0 km/h (0 Bft)
29.10.2016 06:37 4,3 °C 4,3 °C 93 % 1033,6 hPa 0,0 mm 0,0 km/h (0 Bft) SW 221 ° 0 min 0,000 mm 0,0 UV-I 0 W/m² 3,3 °C 0,0 km/h (0 Bft)
29.10.2016 06:38 4,3 °C 4,3 °C 93 % 1033,5 hPa 0,0 mm 0,0 km/h (0 Bft) SW 221 ° 0 min 0,000 mm 0,0 UV-I 0 W/m² 3,3 °C 0,0 km/h (0 Bft)
29.10.2016 06:39 4,3 °C 4,3 °C 93 % 1033,6 hPa 0,0 mm 0,0 km/h (0 Bft) SW 221 ° 0 min 0,000 mm 0,0 UV-I 0 W/m² 3,3 °C 0,0 km/h (0 Bft)
29.10.2016 06:40 4,3 °C 4,3 °C 93 % 1033,5 hPa 0,0 mm 0,0 km/h (0 Bft) SW 221 ° 0 min 0,000 mm 0,0 UV-I 0 W/m² 3,3 °C 0,0 km/h (0 Bft)
29.10.2016 06:41 4,2 °C 4,3 °C 93 % 1033,6 hPa 0,0 mm 0,0 km/h (0 Bft) SW 221 ° 0 min 0,000 mm 0,0 UV-I 0 W/m² 3,2 °C 0,0 km/h (0 Bft)
29.10.2016 06:42 4,3 °C 4,3 °C 93 % 1033,6 hPa 0,0 mm 0,0 km/h (0 Bft) SW 221 ° 0 min 0,000 mm 0,0 UV-I 0 W/m² 3,3 °C 0,0 km/h (0 Bft)
29.10.2016 06:43 4,3 °C 4,3 °C 93 % 1033,6 hPa 0,0 mm 0,0 km/h (0 Bft) SW 221 ° 0 min 0,000 mm 0,0 UV-I 0 W/m² 3,3 °C 0,0 km/h (0 Bft)
29.10.2016 06:44 4,2 °C 4,3 °C 94 % 1033,6 hPa 0,0 mm 0,0 km/h (0 Bft) SW 221 ° 0 min 0,000 mm 0,0 UV-I 0 W/m² 3,3 °C 0,0 km/h (0 Bft)
29.10.2016 06:45 4,3 °C 4,3 °C 94 % 1033,6 hPa 0,0 mm 0,0 km/h (0 Bft) SW 221 ° 0 min 0,000 mm 0,0 UV-I 0 W/m² 3,4 °C 0,0 km/h (0 Bft)
29.10.2016 06:46 4,3 °C 4,3 °C 94 % 1033,6 hPa 0,0 mm 0,0 km/h (0 Bft) SW 221 ° 0 min 0,000 mm 0,0 UV-I 0 W/m² 3,4 °C 0,0 km/h (0 Bft)
29.10.2016 06:47 4,3 °C 4,3 °C 94 % 1033,6 hPa 0,0 mm 0,0 km/h (0 Bft) SW 221 ° 0 min 0,000 mm 0,0 UV-I 0 W/m² 3,4 °C 0,0 km/h (0 Bft)
29.10.2016 06:48 4,3 °C 4,3 °C 94 % 1033,6 hPa 0,0 mm 0,0 km/h (0 Bft) SW 221 ° 0 min 0,000 mm 0,0 UV-I 0 W/m² 3,4 °C 0,0 km/h (0 Bft)
29.10.2016 06:49 4,2 °C 4,3 °C 94 % 1033,6 hPa 0,0 mm 0,0 km/h (0 Bft) SW 221 ° 0 min 0,000 mm 0,0 UV-I 0 W/m² 3,3 °C 0,0 km/h (0 Bft)
29.10.2016 06:50 4,3 °C 4,3 °C 94 % 1033,6 hPa 0,0 mm 0,0 km/h (0 Bft) S-SW 201 ° 0 min 0,000 mm 0,0 UV-I 0 W/m² 3,4 °C 0,0 km/h (0 Bft)
29.10.2016 06:51 4,3 °C 4,3 °C 94 % 1033,7 hPa 0,0 mm 0,0 km/h (0 Bft) S-SW 201 ° 0 min 0,000 mm 0,0 UV-I 0 W/m² 3,4 °C 0,0 km/h (0 Bft)
29.10.2016 06:52 4,3 °C 4,3 °C 93 % 1033,6 hPa 0,0 mm 0,0 km/h (0 Bft) S-SW 201 ° 0 min 0,000 mm 0,0 UV-I 0 W/m² 3,3 °C 0,0 km/h (0 Bft)
29.10.2016 06:53 4,3 °C 4,3 °C 93 % 1033,6 hPa 0,0 mm 0,0 km/h (0 Bft) S-SW 201 ° 0 min 0,000 mm 0,0 UV-I 0 W/m² 3,3 °C 0,0 km/h (0 Bft)
29.10.2016 06:54 4,3 °C 4,3 °C 93 % 1033,6 hPa 0,0 mm 0,0 km/h (0 Bft) S-SW 201 ° 0 min 0,000 mm 0,0 UV-I 0 W/m² 3,3 °C 0,0 km/h (0 Bft)
29.10.2016 06:55 4,3 °C 4,3 °C 93 % 1033,6 hPa 0,0 mm 0,0 km/h (0 Bft) S-SW 201 ° 0 min 0,000 mm 0,0 UV-I 0 W/m² 3,3 °C 0,0 km/h (0 Bft)
29.10.2016 06:56 4,3 °C 4,3 °C 93 % 1033,5 hPa 0,0 mm 0,0 km/h (0 Bft) S-SW 201 ° 0 min 0,000 mm 0,0 UV-I 0 W/m² 3,3 °C 0,0 km/h (0 Bft)
29.10.2016 06:57 4,3 °C 4,3 °C 93 % 1033,6 hPa 0,0 mm 0,0 km/h (0 Bft) S-SW 201 ° 0 min 0,000 mm 0,0 UV-I 0 W/m² 3,3 °C 0,0 km/h (0 Bft)
29.10.2016 06:58 4,4 °C 4,4 °C 93 % 1033,5 hPa 0,0 mm 0,0 km/h (0 Bft) S-SW 201 ° 0 min 0,000 mm 0,0 UV-I 0 W/m² 3,4 °C 0,0 km/h (0 Bft)
29.10.2016 06:59 4,4 °C 4,4 °C 93 % 1033,5 hPa 0,0 mm 0,0 km/h (0 Bft) S-SW 201 ° 0 min 0,000 mm 0,0 UV-I 0 W/m² 3,4 °C 0,0 km/h (0 Bft)
29.10.2016 07:00 4,4 °C 4,4 °C 93 % 1033,5 hPa 0,0 mm 0,0 km/h (0 Bft) S-SW 201 ° 0 min 0,000 mm 0,0 UV-I 0 W/m² 3,4 °C 0,0 km/h (0 Bft)
29.10.2016 07:01 4,4 °C 4,4 °C 93 % 1033,6 hPa 0,0 mm 0,0 km/h (0 Bft) S-SW 201 ° 0 min 0,000 mm 0,0 UV-I 0 W/m² 3,4 °C 0,0 km/h (0 Bft)
29.10.2016 07:02 4,4 °C 4,4 °C 93 % 1033,6 hPa 0,0 mm 0,0 km/h (0 Bft) S-SW 201 ° 0 min 0,000 mm 0,0 UV-I 0 W/m² 3,4 °C 0,0 km/h (0 Bft)
29.10.2016 07:03 4,5 °C 4,5 °C 93 % 1033,5 hPa 0,0 mm 0,0 km/h (0 Bft) S-SW 201 ° 0 min 0,000 mm 0,0 UV-I 0 W/m² 3,5 °C 0,0 km/h (0 Bft)
29.10.2016 07:04 4,4 °C 4,5 °C 93 % 1033,5 hPa 0,0 mm 0,0 km/h (0 Bft) S-SW 201 ° 0 min 0,000 mm 0,0 UV-I 0 W/m² 3,4 °C 0,0 km/h (0 Bft)
29.10.2016 07:05 4,4 °C 4,5 °C 93 % 1033,5 hPa 0,0 mm 0,0 km/h (0 Bft) S-SW 201 ° 0 min 0,000 mm 0,0 UV-I 0 W/m² 3,4 °C 0,0 km/h (0 Bft)
29.10.2016 07:06 4,5 °C 4,5 °C 93 % 1033,5 hPa 0,0 mm 0,0 km/h (0 Bft) S-SW 201 ° 0 min 0,000 mm 0,0 UV-I 0 W/m² 3,5 °C 0,0 km/h (0 Bft)
29.10.2016 07:07 4,5 °C 4,5 °C 93 % 1033,5 hPa 0,0 mm 0,0 km/h (0 Bft) S-SW 201 ° 0 min 0,000 mm 0,0 UV-I 0 W/m² 3,5 °C 0,0 km/h (0 Bft)
29.10.2016 07:08 4,5 °C 4,5 °C 93 % 1033,5 hPa 0,0 mm 0,0 km/h (0 Bft) S-SW 201 ° 0 min 0,000 mm 0,0 UV-I 0 W/m² 3,5 °C 0,0 km/h (0 Bft)
29.10.2016 07:09 4,5 °C 4,5 °C 93 % 1033,5 hPa 0,0 mm 0,0 km/h (0 Bft) S-SW 201 ° 0 min 0,000 mm 0,0 UV-I 0 W/m² 3,5 °C 0,0 km/h (0 Bft)
29.10.2016 07:10 4,5 °C 4,6 °C 93 % 1033,5 hPa 0,0 mm 0,0 km/h (0 Bft) S-SW 201 ° 0 min 0,000 mm 0,0 UV-I 0 W/m² 3,5 °C 0,0 km/h (0 Bft)
29.10.2016 07:11 4,6 °C 4,6 °C 93 % 1033,5 hPa 0,0 mm 0,0 km/h (0 Bft) S-SW 201 ° 0 min 0,000 mm 0,0 UV-I 0 W/m² 3,6 °C 0,0 km/h (0 Bft)
29.10.2016 07:12 4,6 °C 4,6 °C 93 % 1033,5 hPa 0,0 mm 0,0 km/h (0 Bft) S-SW 201 ° 0 min 0,000 mm 0,0 UV-I 0 W/m² 3,6 °C 0,0 km/h (0 Bft)
29.10.2016 07:13 4,6 °C 4,6 °C 93 % 1033,5 hPa 0,0 mm 0,0 km/h (0 Bft) S-SW 201 ° 0 min 0,000 mm 0,0 UV-I 0 W/m² 3,6 °C 0,0 km/h (0 Bft)
29.10.2016 07:14 4,6 °C 4,6 °C 93 % 1033,5 hPa 0,0 mm 0,0 km/h (0 Bft) S-SW 201 ° 0 min 0,000 mm 0,0 UV-I 0 W/m² 3,6 °C 0,0 km/h (0 Bft)
29.10.2016 07:15 4,6 °C 4,6 °C 93 % 1033,6 hPa 0,0 mm 0,0 km/h (0 Bft) S-SW 201 ° 0 min 0,000 mm 0,0 UV-I 0 W/m² 3,6 °C 0,0 km/h (0 Bft)
29.10.2016 07:16 4,6 °C 4,6 °C 93 % 1033,6 hPa 0,0 mm 0,0 km/h (0 Bft) S-SW 201 ° 0 min 0,000 mm 0,0 UV-I 0 W/m² 3,6 °C 0,0 km/h (0 Bft)
29.10.2016 07:17 4,6 °C 4,6 °C 93 % 1033,6 hPa 0,0 mm 0,0 km/h (0 Bft) S-SW 201 ° 0 min 0,000 mm 0,0 UV-I 0 W/m² 3,6 °C 0,0 km/h (0 Bft)
29.10.2016 07:18 4,6 °C 4,6 °C 93 % 1033,6 hPa 0,0 mm 0,0 km/h (0 Bft) S-SW 201 ° 0 min 0,000 mm 0,0 UV-I 0 W/m² 3,6 °C 0,0 km/h (0 Bft)
29.10.2016 07:19 4,6 °C 4,6 °C 93 % 1033,6 hPa 0,0 mm 0,0 km/h (0 Bft) S-SW 201 ° 0 min 0,000 mm 0,0 UV-I 0 W/m² 3,6 °C 0,0 km/h (0 Bft)
29.10.2016 07:20 4,6 °C 4,6 °C 93 % 1033,6 hPa 0,0 mm 0,0 km/h (0 Bft) S-SW 201 ° 0 min 0,000 mm 0,0 UV-I 0 W/m² 3,6 °C 0,0 km/h (0 Bft)
29.10.2016 07:21 4,6 °C 4,6 °C 93 % 1033,6 hPa 0,0 mm 0,0 km/h (0 Bft) S-SW 201 ° 0 min 0,000 mm 0,0 UV-I 0 W/m² 3,6 °C 0,0 km/h (0 Bft)
29.10.2016 07:22 4,6 °C 4,6 °C 93 % 1033,6 hPa 0,0 mm 0,0 km/h (0 Bft) S-SW 201 ° 0 min 0,000 mm 0,0 UV-I 0 W/m² 3,6 °C 0,0 km/h (0 Bft)
29.10.2016 07:23 4,6 °C 4,6 °C 93 % 1033,6 hPa 0,0 mm 0,0 km/h (0 Bft) S-SW 201 ° 0 min 0,000 mm 0,0 UV-I 0 W/m² 3,6 °C 0,0 km/h (0 Bft)
29.10.2016 07:24 4,6 °C 4,6 °C 93 % 1033,6 hPa 0,0 mm 0,0 km/h (0 Bft) S-SW 201 ° 0 min 0,000 mm 0,0 UV-I 0 W/m² 3,6 °C 0,0 km/h (0 Bft)
29.10.2016 07:25 4,6 °C 4,6 °C 92 % 1033,6 hPa 0,0 mm 0,0 km/h (0 Bft) S-SW 201 ° 0 min 0,000 mm 0,0 UV-I 0 W/m² 3,4 °C 0,0 km/h (0 Bft)
29.10.2016 07:26 4,6 °C 4,6 °C 92 % 1033,6 hPa 0,0 mm 0,0 km/h (0 Bft) S-SW 201 ° 0 min 0,000 mm 0,0 UV-I 0 W/m² 3,4 °C 0,0 km/h (0 Bft)
29.10.2016 07:27 4,6 °C 4,6 °C 93 % 1033,6 hPa 0,0 mm 0,0 km/h (0 Bft) S-SW 201 ° 0 min 0,000 mm 0,0 UV-I 0 W/m² 3,6 °C 0,0 km/h (0 Bft)
29.10.2016 07:28 4,6 °C 4,6 °C 93 % 1033,6 hPa 0,0 mm 0,0 km/h (0 Bft) S-SW 201 ° 0 min 0,000 mm 0,0 UV-I 0 W/m² 3,6 °C 0,0 km/h (0 Bft)
29.10.2016 07:29 4,6 °C 4,6 °C 93 % 1033,6 hPa 0,0 mm 0,0 km/h (0 Bft) S-SW 201 ° 0 min 0,000 mm 0,0 UV-I 0 W/m² 3,6 °C 0,0 km/h (0 Bft)
29.10.2016 07:30 4,6 °C 4,6 °C 93 % 1033,6 hPa 0,0 mm 0,0 km/h (0 Bft) S-SW 201 ° 0 min 0,000 mm 0,0 UV-I 0 W/m² 3,6 °C 0,0 km/h (0 Bft)
29.10.2016 07:31 4,6 °C 4,6 °C 93 % 1033,6 hPa 0,0 mm 0,0 km/h (0 Bft) S-SW 201 ° 0 min 0,000 mm 0,0 UV-I 0 W/m² 3,6 °C 0,0 km/h (0 Bft)
29.10.2016 07:32 4,6 °C 4,6 °C 93 % 1033,6 hPa 0,0 mm 0,0 km/h (0 Bft) S-SW 201 ° 0 min 0,000 mm 0,0 UV-I 0 W/m² 3,6 °C 0,0 km/h (0 Bft)
29.10.2016 07:33 4,7 °C 4,7 °C 93 % 1033,6 hPa 0,0 mm 0,0 km/h (0 Bft) S-SW 201 ° 0 min 0,000 mm 0,0 UV-I 0 W/m² 3,7 °C 0,0 km/h (0 Bft)
29.10.2016 07:34 4,7 °C 4,7 °C 93 % 1033,6 hPa 0,0 mm 0,0 km/h (0 Bft) S-SW 201 ° 0 min 0,000 mm 0,0 UV-I 0 W/m² 3,7 °C 0,0 km/h (0 Bft)
29.10.2016 07:35 4,7 °C 4,7 °C 93 % 1033,6 hPa 0,0 mm 0,0 km/h (0 Bft) S-SW 201 ° 0 min 0,000 mm 0,0 UV-I 0 W/m² 3,7 °C 0,0 km/h (0 Bft)
29.10.2016 07:36 4,7 °C 4,7 °C 93 % 1033,6 hPa 0,0 mm 0,0 km/h (0 Bft) S-SW 201 ° 0 min 0,000 mm 0,0 UV-I 0 W/m² 3,7 °C 0,0 km/h (0 Bft)
29.10.2016 07:37 4,7 °C 4,7 °C 93 % 1033,6 hPa 0,0 mm 0,0 km/h (0 Bft) S-SW 201 ° 0 min 0,000 mm 0,0 UV-I 0 W/m² 3,7 °C 0,0 km/h (0 Bft)
29.10.2016 07:38 4,7 °C 4,7 °C 93 % 1033,6 hPa 0,0 mm 0,0 km/h (0 Bft) S-SW 201 ° 0 min 0,000 mm 0,0 UV-I 0 W/m² 3,7 °C 0,0 km/h (0 Bft)
29.10.2016 07:39 4,7 °C 4,7 °C 93 % 1033,6 hPa 0,0 mm 0,0 km/h (0 Bft) S-SW 201 ° 0 min 0,000 mm 0,0 UV-I 0 W/m² 3,7 °C 0,0 km/h (0 Bft)
29.10.2016 07:40 4,7 °C 4,7 °C 93 % 1033,6 hPa 0,0 mm 0,0 km/h (0 Bft) S-SW 201 ° 0 min 0,000 mm 0,0 UV-I 0 W/m² 3,7 °C 0,0 km/h (0 Bft)
29.10.2016 07:41 4,8 °C 4,8 °C 93 % 1033,6 hPa 0,0 mm 0,0 km/h (0 Bft) S-SW 201 ° 0 min 0,000 mm 0,0 UV-I 0 W/m² 3,8 °C 0,0 km/h (0 Bft)
29.10.2016 07:42 4,8 °C 4,8 °C 93 % 1033,6 hPa 0,0 mm 0,0 km/h (0 Bft) S-SW 201 ° 0 min 0,000 mm 0,0 UV-I 0 W/m² 3,8 °C 0,0 km/h (0 Bft)
29.10.2016 07:43 4,8 °C 4,8 °C 93 % 1033,6 hPa 0,0 mm 0,0 km/h (0 Bft) S-SW 201 ° 0 min 0,000 mm 0,0 UV-I 0 W/m² 3,8 °C 0,0 km/h (0 Bft)
29.10.2016 07:44 4,8 °C 4,8 °C 93 % 1033,6 hPa 0,0 mm 0,0 km/h (0 Bft) S-SW 201 ° 0 min 0,000 mm 0,0 UV-I 0 W/m² 3,8 °C 0,0 km/h (0 Bft)
29.10.2016 07:45 4,8 °C 4,8 °C 93 % 1033,6 hPa 0,0 mm 0,0 km/h (0 Bft) S-SW 201 ° 0 min 0,000 mm 0,0 UV-I 0 W/m² 3,8 °C 0,0 km/h (0 Bft)
29.10.2016 07:46 4,8 °C 4,8 °C 93 % 1033,6 hPa 0,0 mm 0,0 km/h (0 Bft) S-SW 201 ° 0 min 0,000 mm 0,0 UV-I 0 W/m² 3,8 °C 0,0 km/h (0 Bft)
29.10.2016 07:47 4,8 °C 4,8 °C 93 % 1033,6 hPa 0,0 mm 0,0 km/h (0 Bft) S-SW 201 ° 0 min 0,000 mm 0,0 UV-I 0 W/m² 3,8 °C 0,0 km/h (0 Bft)
29.10.2016 07:48 4,8 °C 4,8 °C 93 % 1033,6 hPa 0,0 mm 0,0 km/h (0 Bft) S-SW 201 ° 0 min 0,000 mm 0,0 UV-I 0 W/m² 3,8 °C 0,0 km/h (0 Bft)
29.10.2016 07:49 4,8 °C 4,8 °C 93 % 1033,7 hPa 0,0 mm 0,0 km/h (0 Bft) S-SW 201 ° 0 min 0,000 mm 0,0 UV-I 0 W/m² 3,8 °C 0,0 km/h (0 Bft)
29.10.2016 07:50 4,9 °C 4,9 °C 93 % 1033,6 hPa 0,0 mm 0,0 km/h (0 Bft) S-SW 201 ° 0 min 0,000 mm 0,0 UV-I 0 W/m² 3,9 °C 0,0 km/h (0 Bft)
29.10.2016 07:51 4,9 °C 4,9 °C 93 % 1033,6 hPa 0,0 mm 0,0 km/h (0 Bft) S-SW 201 ° 0 min 0,000 mm 0,0 UV-I 0 W/m² 3,9 °C 0,0 km/h (0 Bft)
29.10.2016 07:52 4,9 °C 4,9 °C 93 % 1033,6 hPa 0,0 mm 0,0 km/h (0 Bft) S-SW 201 ° 0 min 0,000 mm 0,0 UV-I 0 W/m² 3,9 °C 0,0 km/h (0 Bft)
29.10.2016 07:53 4,9 °C 4,9 °C 93 % 1033,7 hPa 0,0 mm 0,0 km/h (0 Bft) S-SW 201 ° 0 min 0,000 mm 0,0 UV-I 0 W/m² 3,9 °C 0,0 km/h (0 Bft)
29.10.2016 07:54 4,9 °C 4,9 °C 93 % 1033,6 hPa 0,0 mm 0,0 km/h (0 Bft) S-SW 201 ° 0 min 0,000 mm 0,0 UV-I 0 W/m² 3,9 °C 0,0 km/h (0 Bft)
29.10.2016 07:55 4,9 °C 5,0 °C 93 % 1033,7 hPa 0,0 mm 0,0 km/h (0 Bft) S-SW 201 ° 0 min 0,000 mm 0,0 UV-I 0 W/m² 3,9 °C 0,0 km/h (0 Bft)
29.10.2016 07:56 5,0 °C 5,0 °C 93 % 1033,7 hPa 0,0 mm 0,0 km/h (0 Bft) S-SW 201 ° 0 min 0,000 mm 0,0 UV-I 0 W/m² 4,0 °C 0,0 km/h (0 Bft)
29.10.2016 07:57 5,0 °C 5,0 °C 93 % 1033,8 hPa 0,0 mm 0,0 km/h (0 Bft) S-SW 201 ° 0 min 0,000 mm 0,0 UV-I 0 W/m² 4,0 °C 0,0 km/h (0 Bft)
29.10.2016 07:58 5,0 °C 5,1 °C 93 % 1033,8 hPa 0,0 mm 0,0 km/h (0 Bft) S-SW 201 ° 0 min 0,000 mm 0,0 UV-I 0 W/m² 4,0 °C 0,0 km/h (0 Bft)
29.10.2016 07:59 5,0 °C 5,0 °C 93 % 1033,8 hPa 0,0 mm 0,0 km/h (0 Bft) S-SW 201 ° 0 min 0,000 mm 0,0 UV-I 0 W/m² 4,0 °C 0,0 km/h (0 Bft)
29.10.2016 08:00 5,0 °C 5,1 °C 93 % 1033,8 hPa 0,0 mm 0,0 km/h (0 Bft) S-SW 201 ° 0 min 0,000 mm 0,0 UV-I 0 W/m² 4,0 °C 0,0 km/h (0 Bft)
29.10.2016 08:01 5,1 °C 5,1 °C 93 % 1033,9 hPa 0,0 mm 0,0 km/h (0 Bft) S-SW 201 ° 0 min 0,000 mm 0,0 UV-I 0 W/m² 4,1 °C 0,0 km/h (0 Bft)
29.10.2016 08:02 5,1 °C 5,1 °C 93 % 1033,9 hPa 0,0 mm 0,0 km/h (0 Bft) S-SW 201 ° 0 min 0,000 mm 0,0 UV-I 0 W/m² 4,1 °C 0,0 km/h (0 Bft)
29.10.2016 08:03 5,1 °C 5,1 °C 93 % 1033,9 hPa 0,0 mm 0,0 km/h (0 Bft) S-SW 201 ° 0 min 0,000 mm 0,0 UV-I 0 W/m² 4,1 °C 0,0 km/h (0 Bft)
29.10.2016 08:04 5,1 °C 5,1 °C 93 % 1033,9 hPa 0,0 mm 0,0 km/h (0 Bft) S-SW 201 ° 0 min 0,000 mm 0,0 UV-I 0 W/m² 4,1 °C 0,0 km/h (0 Bft)
29.10.2016 08:05 5,1 °C 5,1 °C 94 % 1033,9 hPa 0,0 mm 0,0 km/h (0 Bft) S-SW 201 ° 0 min 0,000 mm 0,0 UV-I 0 W/m² 4,2 °C 0,0 km/h (0 Bft)
29.10.2016 08:06 5,1 °C 5,1 °C 94 % 1033,9 hPa 0,0 mm 0,0 km/h (0 Bft) S-SW 201 ° 0 min 0,000 mm 0,0 UV-I 0 W/m² 4,2 °C 0,0 km/h (0 Bft)
29.10.2016 08:07 5,1 °C 5,1 °C 93 % 1033,9 hPa 0,0 mm 0,0 km/h (0 Bft) S-SW 201 ° 0 min 0,000 mm 0,0 UV-I 0 W/m² 4,1 °C 0,0 km/h (0 Bft)
29.10.2016 08:08 5,2 °C 5,2 °C 94 % 1033,9 hPa 0,0 mm 0,0 km/h (0 Bft) S-SW 201 ° 0 min 0,000 mm 0,0 UV-I 0 W/m² 4,3 °C 0,0 km/h (0 Bft)
29.10.2016 08:09 5,2 °C 5,2 °C 94 % 1034,0 hPa 0,0 mm 0,0 km/h (0 Bft) S-SW 201 ° 0 min 0,000 mm 0,0 UV-I 0 W/m² 4,3 °C 0,0 km/h (0 Bft)
29.10.2016 08:10 5,2 °C 5,2 °C 93 % 1034,0 hPa 0,0 mm 0,0 km/h (0 Bft) S-SW 211 ° 0 min 0,000 mm 0,0 UV-I 5 W/m² 4,2 °C 0,0 km/h (0 Bft)
29.10.2016 08:11 5,2 °C 5,2 °C 93 % 1034,0 hPa 0,0 mm 0,0 km/h (0 Bft) S-SW 213 ° 0 min 0,000 mm 0,0 UV-I 5 W/m² 4,2 °C 0,0 km/h (0 Bft)
29.10.2016 08:12 5,1 °C 5,2 °C 93 % 1034,0 hPa 0,0 mm 0,0 km/h (0 Bft) S-SW 213 ° 0 min 0,000 mm 0,0 UV-I 5 W/m² 4,1 °C 0,0 km/h (0 Bft)
29.10.2016 08:13 5,1 °C 5,2 °C 93 % 1034,1 hPa 0,0 mm 0,0 km/h (0 Bft) S-SW 213 ° 0 min 0,000 mm 0,0 UV-I 5 W/m² 4,1 °C 0,0 km/h (0 Bft)
29.10.2016 08:14 5,1 °C 5,1 °C 93 % 1034,0 hPa 0,0 mm 0,0 km/h (0 Bft) S-SW 213 ° 0 min 0,000 mm 0,0 UV-I 7 W/m² 4,1 °C 0,0 km/h (0 Bft)
29.10.2016 08:15 5,1 °C 5,1 °C 93 % 1034,1 hPa 0,0 mm 0,0 km/h (0 Bft) S-SW 213 ° 0 min 0,000 mm 0,0 UV-I 7 W/m² 4,1 °C 0,0 km/h (0 Bft)
29.10.2016 08:16 5,1 °C 5,1 °C 93 % 1034,1 hPa 0,0 mm 0,0 km/h (0 Bft) S-SW 213 ° 0 min 0,000 mm 0,0 UV-I 9 W/m² 4,1 °C 0,0 km/h (0 Bft)
29.10.2016 08:17 5,1 °C 5,1 °C 93 % 1034,1 hPa 0,0 mm 0,0 km/h (0 Bft) S-SW 213 ° 0 min 0,000 mm 0,0 UV-I 9 W/m² 4,1 °C 0,0 km/h (0 Bft)
29.10.2016 08:18 5,1 °C 5,1 °C 93 % 1034,1 hPa 0,0 mm 1,8 km/h (1 Bft) S-SW 213 ° 0 min 0,000 mm 0,0 UV-I 9 W/m² 4,1 °C 3,2 km/h (1 Bft)
29.10.2016 08:19 5,2 °C 5,2 °C 93 % 1034,1 hPa 0,0 mm 1,1 km/h (1 Bft) S-SW 213 ° 0 min 0,000 mm 0,0 UV-I 9 W/m² 4,2 °C 1,6 km/h (1 Bft)
29.10.2016 08:20 5,2 °C 5,2 °C 94 % 1034,1 hPa 0,0 mm 1,3 km/h (1 Bft) S-SW 213 ° 0 min 0,000 mm 0,0 UV-I 9 W/m² 4,3 °C 3,2 km/h (1 Bft)
29.10.2016 08:21 5,3 °C 5,3 °C 94 % 1034,1 hPa 0,0 mm 1,1 km/h (1 Bft) S-SW 213 ° 0 min 0,000 mm 0,0 UV-I 9 W/m² 4,4 °C 1,6 km/h (1 Bft)
29.10.2016 08:22 5,4 °C 5,4 °C 93 % 1034,0 hPa 0,0 mm 0,1 km/h (0 Bft) S-SW 213 ° 0 min 0,000 mm 0,0 UV-I 9 W/m² 4,4 °C 1,6 km/h (1 Bft)
29.10.2016 08:23 5,4 °C 5,4 °C 93 % 1034,1 hPa 0,0 mm 0,0 km/h (0 Bft) S-SW 213 ° 0 min 0,000 mm 0,0 UV-I 9 W/m² 4,4 °C 0,0 km/h (0 Bft)
29.10.2016 08:24 5,4 °C 5,5 °C 93 % 1034,0 hPa 0,0 mm 0,0 km/h (0 Bft) S-SW 213 ° 0 min 0,000 mm 0,0 UV-I 9 W/m² 4,4 °C 0,0 km/h (0 Bft)
29.10.2016 08:25 5,5 °C 5,5 °C 93 % 1034,1 hPa 0,0 mm 0,0 km/h (0 Bft) S-SW 213 ° 0 min 0,000 mm 0,0 UV-I 7 W/m² 4,5 °C 0,0 km/h (0 Bft)
29.10.2016 08:26 5,5 °C 5,5 °C 93 % 1034,1 hPa 0,0 mm 0,0 km/h (0 Bft) S-SW 213 ° 0 min 0,000 mm 0,0 UV-I 7 W/m² 4,5 °C 0,0 km/h (0 Bft)
29.10.2016 08:27 5,5 °C 5,5 °C 93 % 1034,1 hPa 0,0 mm 0,7 km/h (0 Bft) S-SW 212 ° 0 min 0,000 mm 0,0 UV-I 7 W/m² 4,5 °C 1,6 km/h (1 Bft)
29.10.2016 08:28 5,6 °C 5,6 °C 93 % 1034,0 hPa 0,0 mm 2,1 km/h (1 Bft) S-SW 209 ° 0 min 0,000 mm 0,0 UV-I 7 W/m² 4,6 °C 4,8 km/h (1 Bft)
29.10.2016 08:29 5,7 °C 5,7 °C 93 % 1034,0 hPa 0,0 mm 1,5 km/h (1 Bft) S-SW 209 ° 0 min 0,000 mm 0,0 UV-I 9 W/m² 4,7 °C 3,2 km/h (1 Bft)
29.10.2016 08:30 5,8 °C 5,8 °C 93 % 1034,0 hPa 0,0 mm 0,6 km/h (0 Bft) S-SW 209 ° 0 min 0,000 mm 0,0 UV-I 9 W/m² 4,8 °C 1,6 km/h (1 Bft)
29.10.2016 08:31 5,8 °C 5,8 °C 93 % 1034,0 hPa 0,0 mm 0,8 km/h (0 Bft) S-SW 209 ° 0 min 0,000 mm 0,0 UV-I 9 W/m² 4,8 °C 1,6 km/h (1 Bft)
29.10.2016 08:32 5,9 °C 5,9 °C 92 % 1034,1 hPa 0,0 mm 0,2 km/h (0 Bft) S-SW 209 ° 0 min 0,000 mm 0,0 UV-I 11 W/m² 4,7 °C 1,6 km/h (1 Bft)
29.10.2016 08:33 5,9 °C 5,9 °C 92 % 1034,0 hPa 0,0 mm 0,4 km/h (0 Bft) S-SW 209 ° 0 min 0,000 mm 0,0 UV-I 11 W/m² 4,7 °C 1,6 km/h (1 Bft)
29.10.2016 08:34 6,0 °C 6,0 °C 92 % 1034,1 hPa 0,0 mm 0,1 km/h (0 Bft) S-SW 209 ° 0 min 0,000 mm 0,0 UV-I 11 W/m² 4,8 °C 1,6 km/h (1 Bft)
29.10.2016 08:35 6,1 °C 6,1 °C 93 % 1034,1 hPa 0,0 mm 0,3 km/h (0 Bft) S-SW 209 ° 0 min 0,000 mm 0,0 UV-I 12 W/m² 5,1 °C 1,6 km/h (1 Bft)
29.10.2016 08:36 6,1 °C 6,1 °C 92 % 1034,0 hPa 0,0 mm 0,5 km/h (0 Bft) S-SW 209 ° 0 min 0,000 mm 0,0 UV-I 12 W/m² 4,9 °C 1,6 km/h (1 Bft)
29.10.2016 08:37 6,2 °C 6,2 °C 93 % 1034,0 hPa 0,0 mm 0,1 km/h (0 Bft) S-SW 209 ° 0 min 0,000 mm 0,0 UV-I 16 W/m² 5,2 °C 1,6 km/h (1 Bft)
29.10.2016 08:38 6,2 °C 6,2 °C 92 % 1034,1 hPa 0,0 mm 0,0 km/h (0 Bft) S-SW 209 ° 0 min 0,000 mm 0,0 UV-I 16 W/m² 5,0 °C 0,0 km/h (0 Bft)
29.10.2016 08:39 6,2 °C 6,2 °C 92 % 1034,0 hPa 0,0 mm 0,3 km/h (0 Bft) S-SW 209 ° 0 min 0,000 mm 0,0 UV-I 16 W/m² 5,0 °C 1,6 km/h (1 Bft)
29.10.2016 08:40 6,2 °C 6,2 °C 92 % 1034,1 hPa 0,0 mm 0,0 km/h (0 Bft) S-SW 209 ° 0 min 0,000 mm 0,0 UV-I 16 W/m² 5,0 °C 0,0 km/h (0 Bft)
29.10.2016 08:41 6,2 °C 6,3 °C 92 % 1034,0 hPa 0,0 mm 0,5 km/h (0 Bft) S-SW 209 ° 0 min 0,000 mm 0,0 UV-I 18 W/m² 5,0 °C 1,6 km/h (1 Bft)
29.10.2016 08:42 6,2 °C 6,2 °C 92 % 1034,1 hPa 0,0 mm 1,5 km/h (1 Bft) S-SW 209 ° 0 min 0,000 mm 0,0 UV-I 19 W/m² 5,0 °C 1,6 km/h (1 Bft)
29.10.2016 08:43 6,1 °C 6,2 °C 92 % 1034,0 hPa 0,0 mm 0,4 km/h (0 Bft) S-SW 209 ° 0 min 0,000 mm 0,0 UV-I 21 W/m² 4,9 °C 1,6 km/h (1 Bft)
29.10.2016 08:44 6,1 °C 6,1 °C 92 % 1034,0 hPa 0,0 mm 0,2 km/h (0 Bft) S-SW 209 ° 0 min 0,000 mm 0,0 UV-I 23 W/m² 4,9 °C 1,6 km/h (1 Bft)
29.10.2016 08:45 5,9 °C 6,1 °C 92 % 1034,0 hPa 0,0 mm 0,0 km/h (0 Bft) S-SW 209 ° 0 min 0,000 mm 0,0 UV-I 25 W/m² 4,7 °C 0,0 km/h (0 Bft)
29.10.2016 08:46 5,9 °C 5,9 °C 92 % 1034,0 hPa 0,0 mm 0,1 km/h (0 Bft) S-SW 209 ° 0 min 0,000 mm 0,0 UV-I 25 W/m² 4,7 °C 1,6 km/h (1 Bft)
29.10.2016 08:47 5,9 °C 5,9 °C 92 % 1034,0 hPa 0,0 mm 0,0 km/h (0 Bft) S-SW 209 ° 0 min 0,000 mm 0,0 UV-I 25 W/m² 4,7 °C 0,0 km/h (0 Bft)
29.10.2016 08:48 5,8 °C 5,9 °C 93 % 1033,9 hPa 0,0 mm 0,1 km/h (0 Bft) S-SW 209 ° 0 min 0,000 mm 0,0 UV-I 26 W/m² 4,8 °C 1,6 km/h (1 Bft)
29.10.2016 08:49 5,8 °C 5,8 °C 93 % 1033,9 hPa 0,0 mm 1,1 km/h (1 Bft) S-SW 206 ° 0 min 0,000 mm 0,0 UV-I 33 W/m² 4,8 °C 3,2 km/h (1 Bft)
29.10.2016 08:50 5,8 °C 5,8 °C 93 % 1033,9 hPa 0,0 mm 0,5 km/h (0 Bft) S-SW 206 ° 0 min 0,000 mm 0,0 UV-I 35 W/m² 4,8 °C 1,6 km/h (1 Bft)
29.10.2016 08:51 5,8 °C 5,8 °C 93 % 1033,9 hPa 0,0 mm 0,0 km/h (0 Bft) S-SW 206 ° 0 min 0,000 mm 0,0 UV-I 37 W/m² 4,8 °C 0,0 km/h (0 Bft)
29.10.2016 08:52 5,9 °C 5,9 °C 93 % 1033,9 hPa 0,0 mm 0,1 km/h (0 Bft) S-SW 206 ° 0 min 0,000 mm 0,0 UV-I 37 W/m² 4,9 °C 1,6 km/h (1 Bft)
29.10.2016 08:53 5,9 °C 5,9 °C 93 % 1034,0 hPa 0,0 mm 0,0 km/h (0 Bft) S-SW 206 ° 0 min 0,000 mm 0,0 UV-I 35 W/m² 4,9 °C 0,0 km/h (0 Bft)
29.10.2016 08:54 5,9 °C 5,9 °C 94 % 1033,9 hPa 0,0 mm 0,0 km/h (0 Bft) S-SW 206 ° 0 min 0,000 mm 0,0 UV-I 32 W/m² 5,0 °C 0,0 km/h (0 Bft)
29.10.2016 08:55 6,0 °C 6,0 °C 94 % 1033,9 hPa 0,0 mm 0,0 km/h (0 Bft) S-SW 206 ° 0 min 0,000 mm 0,0 UV-I 32 W/m² 5,1 °C 0,0 km/h (0 Bft)
29.10.2016 08:56 6,1 °C 6,1 °C 93 % 1033,9 hPa 0,0 mm 0,1 km/h (0 Bft) S-SW 206 ° 0 min 0,000 mm 0,0 UV-I 33 W/m² 5,1 °C 1,6 km/h (1 Bft)
29.10.2016 08:57 6,1 °C 6,1 °C 93 % 1033,9 hPa 0,0 mm 1,5 km/h (1 Bft) S-SW 206 ° 0 min 0,000 mm 0,0 UV-I 35 W/m² 5,1 °C 1,6 km/h (1 Bft)
29.10.2016 08:58 6,1 °C 6,1 °C 93 % 1033,9 hPa 0,0 mm 0,8 km/h (0 Bft) S-SW 206 ° 0 min 0,000 mm 0,0 UV-I 39 W/m² 5,1 °C 1,6 km/h (1 Bft)
29.10.2016 08:59 6,1 °C 6,1 °C 93 % 1033,9 hPa 0,0 mm 0,0 km/h (0 Bft) S-SW 206 ° 0 min 0,000 mm 0,0 UV-I 42 W/m² 5,1 °C 0,0 km/h (0 Bft)
29.10.2016 09:00 6,1 °C 6,1 °C 93 % 1033,9 hPa 0,0 mm 0,0 km/h (0 Bft) S-SW 206 ° 0 min 0,000 mm 0,0 UV-I 42 W/m² 5,1 °C 0,0 km/h (0 Bft)
29.10.2016 09:01 6,1 °C 6,1 °C 93 % 1033,9 hPa 0,0 mm 0,0 km/h (0 Bft) S-SW 206 ° 0 min 0,000 mm 0,0 UV-I 40 W/m² 5,1 °C 0,0 km/h (0 Bft)
29.10.2016 09:02 6,1 °C 6,1 °C 93 % 1033,8 hPa 0,0 mm 0,1 km/h (0 Bft) S-SW 206 ° 0 min 0,000 mm 0,0 UV-I 40 W/m² 5,1 °C 1,6 km/h (1 Bft)
29.10.2016 09:03 6,1 °C 6,1 °C 93 % 1033,8 hPa 0,0 mm 0,6 km/h (0 Bft) S-SW 206 ° 0 min 0,000 mm 0,0 UV-I 39 W/m² 5,1 °C 1,6 km/h (1 Bft)
29.10.2016 09:04 6,1 °C 6,1 °C 93 % 1033,9 hPa 0,0 mm 0,2 km/h (0 Bft) S-SW 206 ° 0 min 0,000 mm 0,0 UV-I 39 W/m² 5,1 °C 1,6 km/h (1 Bft)
29.10.2016 09:05 6,1 °C 6,1 °C 92 % 1033,9 hPa 0,0 mm 1,3 km/h (1 Bft) S-SW 207 ° 0 min 0,000 mm 0,0 UV-I 39 W/m² 4,9 °C 3,2 km/h (1 Bft)
29.10.2016 09:06 6,1 °C 6,1 °C 92 % 1033,9 hPa 0,0 mm 1,7 km/h (1 Bft) S-SW 207 ° 0 min 0,000 mm 0,0 UV-I 40 W/m² 4,9 °C 3,2 km/h (1 Bft)
29.10.2016 09:07 6,1 °C 6,1 °C 92 % 1034,0 hPa 0,0 mm 1,9 km/h (1 Bft) S-SW 208 ° 0 min 0,000 mm 0,0 UV-I 40 W/m² 4,9 °C 3,2 km/h (1 Bft)
29.10.2016 09:08 6,2 °C 6,2 °C 92 % 1034,0 hPa 0,0 mm 0,1 km/h (0 Bft) S-SW 208 ° 0 min 0,000 mm 0,0 UV-I 40 W/m² 5,0 °C 1,6 km/h (1 Bft)
29.10.2016 09:09 6,2 °C 6,2 °C 92 % 1034,0 hPa 0,0 mm 0,7 km/h (0 Bft) S-SW 208 ° 0 min 0,000 mm 0,0 UV-I 39 W/m² 5,0 °C 1,6 km/h (1 Bft)
29.10.2016 09:10 6,2 °C 6,2 °C 92 % 1034,1 hPa 0,0 mm 0,1 km/h (0 Bft) S-SW 208 ° 0 min 0,000 mm 0,0 UV-I 39 W/m² 5,0 °C 1,6 km/h (1 Bft)
29.10.2016 09:11 6,2 °C 6,2 °C 92 % 1034,1 hPa 0,0 mm 0,0 km/h (0 Bft) S-SW 208 ° 0 min 0,000 mm 0,0 UV-I 39 W/m² 5,0 °C 0,0 km/h (0 Bft)
29.10.2016 09:12 6,3 °C 6,3 °C 92 % 1034,1 hPa 0,0 mm 0,0 km/h (0 Bft) S-SW 208 ° 0 min 0,000 mm 0,0 UV-I 42 W/m² 5,1 °C 0,0 km/h (0 Bft)
29.10.2016 09:13 6,3 °C 6,3 °C 92 % 1034,0 hPa 0,0 mm 0,0 km/h (0 Bft) S-SW 208 ° 0 min 0,000 mm 0,0 UV-I 47 W/m² 5,1 °C 0,0 km/h (0 Bft)
29.10.2016 09:14 6,3 °C 6,3 °C 92 % 1034,1 hPa 0,0 mm 0,0 km/h (0 Bft) S-SW 208 ° 0 min 0,000 mm 0,0 UV-I 54 W/m² 5,1 °C 0,0 km/h (0 Bft)
29.10.2016 09:15 6,4 °C 6,4 °C 91 % 1034,1 hPa 0,0 mm 0,0 km/h (0 Bft) S-SW 208 ° 0 min 0,000 mm 0,0 UV-I 60 W/m² 5,0 °C 0,0 km/h (0 Bft)
29.10.2016 09:16 6,4 °C 6,4 °C 91 % 1034,1 hPa 0,0 mm 0,0 km/h (0 Bft) S-SW 208 ° 0 min 0,000 mm 0,0 UV-I 60 W/m² 5,0 °C 0,0 km/h (0 Bft)
29.10.2016 09:17 6,4 °C 6,4 °C 91 % 1034,1 hPa 0,0 mm 0,0 km/h (0 Bft) S-SW 208 ° 0 min 0,000 mm 0,0 UV-I 62 W/m² 5,0 °C 0,0 km/h (0 Bft)
29.10.2016 09:18 6,4 °C 6,4 °C 91 % 1034,1 hPa 0,0 mm 0,0 km/h (0 Bft) S-SW 208 ° 0 min 0,000 mm 0,0 UV-I 60 W/m² 5,0 °C 0,0 km/h (0 Bft)
29.10.2016 09:19 6,4 °C 6,5 °C 91 % 1034,0 hPa 0,0 mm 0,0 km/h (0 Bft) S-SW 208 ° 0 min 0,000 mm 0,0 UV-I 62 W/m² 5,0 °C 0,0 km/h (0 Bft)
29.10.2016 09:20 6,5 °C 6,5 °C 91 % 1034,0 hPa 0,0 mm 0,0 km/h (0 Bft) S-SW 208 ° 0 min 0,000 mm 0,5 UV-I 63 W/m² 5,1 °C 0,0 km/h (0 Bft)
29.10.2016 09:21 6,6 °C 6,6 °C 91 % 1034,0 hPa 0,0 mm 0,6 km/h (0 Bft) S-SW 208 ° 0 min 0,000 mm 0,5 UV-I 69 W/m² 5,2 °C 1,6 km/h (1 Bft)
29.10.2016 09:22 6,6 °C 6,6 °C 91 % 1033,9 hPa 0,0 mm 0,4 km/h (0 Bft) S-SW 208 ° 0 min 0,000 mm 0,5 UV-I 74 W/m² 5,2 °C 1,6 km/h (1 Bft)
29.10.2016 09:23 6,6 °C 6,6 °C 91 % 1034,0 hPa 0,0 mm 1,0 km/h (0 Bft) S-SW 208 ° 0 min 0,000 mm 0,5 UV-I 81 W/m² 5,2 °C 1,6 km/h (1 Bft)
29.10.2016 09:24 6,7 °C 6,7 °C 91 % 1034,0 hPa 0,0 mm 1,4 km/h (1 Bft) S-SW 208 ° 0 min 0,000 mm 0,5 UV-I 95 W/m² 5,3 °C 3,2 km/h (1 Bft)
29.10.2016 09:25 6,7 °C 6,7 °C 91 % 1033,9 hPa 0,0 mm 1,2 km/h (1 Bft) S-SW 208 ° 0 min 0,000 mm 0,5 UV-I 102 W/m² 5,3 °C 1,6 km/h (1 Bft)
29.10.2016 09:26 6,7 °C 6,7 °C 91 % 1033,9 hPa 0,0 mm 0,7 km/h (0 Bft) S-SW 208 ° 0 min 0,000 mm 0,5 UV-I 111 W/m² 5,3 °C 1,6 km/h (1 Bft)
29.10.2016 09:27 6,8 °C 6,8 °C 91 % 1033,9 hPa 0,0 mm 1,1 km/h (1 Bft) S-SW 208 ° 0 min 0,000 mm 0,5 UV-I 118 W/m² 5,4 °C 1,6 km/h (1 Bft)
29.10.2016 09:28 6,8 °C 6,8 °C 91 % 1033,9 hPa 0,0 mm 1,3 km/h (1 Bft) S-SW 208 ° 1 min 0,000 mm 0,5 UV-I 127 W/m² 5,4 °C 3,2 km/h (1 Bft)
29.10.2016 09:29 6,9 °C 6,9 °C 91 % 1033,9 hPa 0,0 mm 0,6 km/h (0 Bft) S-SW 208 ° 1 min 0,000 mm 0,5 UV-I 132 W/m² 5,5 °C 1,6 km/h (1 Bft)
29.10.2016 09:30 6,9 °C 7,0 °C 91 % 1033,9 hPa 0,0 mm 1,0 km/h (0 Bft) S-SW 208 ° 0 min 0,000 mm 0,5 UV-I 116 W/m² 5,5 °C 1,6 km/h (1 Bft)
29.10.2016 09:31 7,1 °C 7,1 °C 91 % 1034,0 hPa 0,0 mm 0,9 km/h (0 Bft) S-SW 208 ° 0 min 0,000 mm 0,5 UV-I 102 W/m² 5,7 °C 1,6 km/h (1 Bft)
29.10.2016 09:32 7,1 °C 7,1 °C 91 % 1033,9 hPa 0,0 mm 0,4 km/h (0 Bft) S-SW 208 ° 0 min 0,000 mm 0,5 UV-I 93 W/m² 5,7 °C 1,6 km/h (1 Bft)
29.10.2016 09:33 7,2 °C 7,2 °C 91 % 1033,9 hPa 0,0 mm 1,7 km/h (1 Bft) S-SW 208 ° 0 min 0,000 mm 0,5 UV-I 88 W/m² 5,8 °C 3,2 km/h (1 Bft)
29.10.2016 09:34 7,3 °C 7,3 °C 90 % 1033,9 hPa 0,0 mm 1,1 km/h (1 Bft) S-SW 208 ° 0 min 0,000 mm 0,5 UV-I 83 W/m² 5,8 °C 3,2 km/h (1 Bft)
29.10.2016 09:35 7,4 °C 7,4 °C 91 % 1033,9 hPa 0,0 mm 0,3 km/h (0 Bft) S-SW 208 ° 0 min 0,000 mm 0,0 UV-I 79 W/m² 6,0 °C 1,6 km/h (1 Bft)
29.10.2016 09:36 7,4 °C 7,4 °C 91 % 1033,9 hPa 0,0 mm 0,5 km/h (0 Bft) S-SW 208 ° 0 min 0,000 mm 0,0 UV-I 76 W/m² 6,0 °C 1,6 km/h (1 Bft)
29.10.2016 09:37 7,5 °C 7,5 °C 90 % 1033,9 hPa 0,0 mm 0,1 km/h (0 Bft) S-SW 208 ° 0 min 0,000 mm 0,0 UV-I 74 W/m² 6,0 °C 1,6 km/h (1 Bft)
29.10.2016 09:38 7,6 °C 7,6 °C 90 % 1033,9 hPa 0,0 mm 0,0 km/h (0 Bft) S-SW 208 ° 0 min 0,000 mm 0,0 UV-I 74 W/m² 6,1 °C 0,0 km/h (0 Bft)
29.10.2016 09:39 7,7 °C 7,7 °C 87 % 1033,9 hPa 0,0 mm 0,9 km/h (0 Bft) S-SW 204 ° 0 min 0,000 mm 0,0 UV-I 74 W/m² 5,7 °C 3,2 km/h (1 Bft)
29.10.2016 09:40 7,7 °C 7,7 °C 86 % 1033,9 hPa 0,0 mm 1,2 km/h (1 Bft) S-SW 196 ° 0 min 0,000 mm 0,5 UV-I 74 W/m² 5,5 °C 6,4 km/h (2 Bft)
29.10.2016 09:41 7,8 °C 7,8 °C 86 % 1033,9 hPa 0,0 mm 3,3 km/h (1 Bft) S-SW 198 ° 0 min 0,000 mm 0,5 UV-I 76 W/m² 5,6 °C 6,4 km/h (2 Bft)
29.10.2016 09:42 7,8 °C 7,8 °C 86 % 1034,0 hPa 0,0 mm 3,4 km/h (1 Bft) S-SW 211 ° 0 min 0,000 mm 0,5 UV-I 77 W/m² 5,6 °C 4,8 km/h (1 Bft)
29.10.2016 09:43 7,8 °C 7,8 °C 85 % 1033,9 hPa 0,0 mm 0,7 km/h (0 Bft) S-SW 211 ° 0 min 0,000 mm 0,5 UV-I 81 W/m² 5,4 °C 1,6 km/h (1 Bft)
29.10.2016 09:44 7,9 °C 7,9 °C 85 % 1033,9 hPa 0,0 mm 1,5 km/h (1 Bft) SW 215 ° 0 min 0,000 mm 0,5 UV-I 83 W/m² 5,5 °C 3,2 km/h (1 Bft)
29.10.2016 09:45 7,9 °C 7,9 °C 85 % 1033,9 hPa 0,0 mm 0,3 km/h (0 Bft) SW 215 ° 0 min 0,000 mm 0,5 UV-I 83 W/m² 5,5 °C 1,6 km/h (1 Bft)
29.10.2016 09:46 7,9 °C 7,9 °C 84 % 1033,9 hPa 0,0 mm 1,0 km/h (0 Bft) SW 215 ° 0 min 0,000 mm 0,5 UV-I 84 W/m² 5,4 °C 1,6 km/h (1 Bft)
29.10.2016 09:47 8,0 °C 8,0 °C 84 % 1033,8 hPa 0,0 mm 0,1 km/h (0 Bft) SW 215 ° 0 min 0,000 mm 0,5 UV-I 86 W/m² 5,5 °C 1,6 km/h (1 Bft)
29.10.2016 09:48 8,1 °C 8,1 °C 84 % 1033,9 hPa 0,0 mm 1,2 km/h (1 Bft) W 271 ° 0 min 0,000 mm 0,5 UV-I 83 W/m² 5,6 °C 3,2 km/h (1 Bft)
29.10.2016 09:49 8,1 °C 8,1 °C 85 % 1033,9 hPa 0,0 mm 2,8 km/h (1 Bft) W 281 ° 0 min 0,000 mm 0,5 UV-I 79 W/m² 5,7 °C 4,8 km/h (1 Bft)
29.10.2016 09:50 8,1 °C 8,1 °C 85 % 1033,9 hPa 0,0 mm 3,1 km/h (1 Bft) W-NW 298 ° 0 min 0,000 mm 0,5 UV-I 77 W/m² 5,7 °C 3,2 km/h (1 Bft)
29.10.2016 09:51 8,1 °C 8,1 °C 86 % 1033,9 hPa 0,0 mm 1,6 km/h (1 Bft) W-NW 298 ° 0 min 0,000 mm 0,5 UV-I 79 W/m² 5,9 °C 3,2 km/h (1 Bft)
29.10.2016 09:52 8,1 °C 8,1 °C 86 % 1033,9 hPa 0,0 mm 1,1 km/h (1 Bft) W-NW 298 ° 0 min 0,000 mm 0,6 UV-I 81 W/m² 5,9 °C 3,2 km/h (1 Bft)
29.10.2016 09:53 8,1 °C 8,1 °C 85 % 1033,9 hPa 0,0 mm 0,7 km/h (0 Bft) W-NW 298 ° 0 min 0,000 mm 0,6 UV-I 88 W/m² 5,7 °C 1,6 km/h (1 Bft)
29.10.2016 09:54 8,1 °C 8,1 °C 86 % 1033,9 hPa 0,0 mm 0,3 km/h (0 Bft) W-NW 298 ° 0 min 0,000 mm 0,6 UV-I 91 W/m² 5,9 °C 1,6 km/h (1 Bft)
29.10.2016 09:55 8,1 °C 8,1 °C 86 % 1033,8 hPa 0,0 mm 0,5 km/h (0 Bft) W-NW 298 ° 0 min 0,000 mm 0,6 UV-I 91 W/m² 5,9 °C 1,6 km/h (1 Bft)
29.10.2016 09:56 8,1 °C 8,1 °C 84 % 1033,8 hPa 0,0 mm 0,4 km/h (0 Bft) W-NW 296 ° 0 min 0,000 mm 0,7 UV-I 98 W/m² 5,6 °C 1,6 km/h (1 Bft)
29.10.2016 09:57 8,2 °C 8,2 °C 85 % 1033,8 hPa 0,0 mm 0,0 km/h (0 Bft) W-NW 296 ° 0 min 0,000 mm 0,7 UV-I 105 W/m² 5,8 °C 0,0 km/h (0 Bft)
29.10.2016 09:58 8,2 °C 8,2 °C 85 % 1033,7 hPa 0,0 mm 1,0 km/h (0 Bft) W-NW 296 ° 0 min 0,000 mm 0,7 UV-I 111 W/m² 5,8 °C 3,2 km/h (1 Bft)
29.10.2016 09:59 8,3 °C 8,3 °C 85 % 1033,7 hPa 0,0 mm 1,0 km/h (0 Bft) W-NW 296 ° 0 min 0,000 mm 0,7 UV-I 116 W/m² 5,9 °C 1,6 km/h (1 Bft)
29.10.2016 10:00 8,3 °C 8,3 °C 85 % 1033,7 hPa 0,0 mm 2,2 km/h (1 Bft) W-SW 241 ° 0 min 0,000 mm 0,7 UV-I 109 W/m² 5,9 °C 4,8 km/h (1 Bft)
29.10.2016 10:01 8,3 °C 8,3 °C 83 % 1033,7 hPa 0,0 mm 1,3 km/h (1 Bft) W-SW 241 ° 0 min 0,025 mm 0,7 UV-I 100 W/m² 5,6 °C 3,2 km/h (1 Bft)
29.10.2016 10:02 8,3 °C 8,3 °C 83 % 1033,6 hPa 0,0 mm 3,7 km/h (1 Bft) W-SW 252 ° 0 min 0,000 mm 0,8 UV-I 91 W/m² 5,6 °C 4,8 km/h (1 Bft)
29.10.2016 10:03 8,4 °C 8,4 °C 84 % 1033,7 hPa 0,0 mm 3,8 km/h (1 Bft) W-SW 240 ° 0 min 0,000 mm 0,8 UV-I 88 W/m² 5,9 °C 4,8 km/h (1 Bft)
29.10.2016 10:04 8,4 °C 8,4 °C 84 % 1033,7 hPa 0,0 mm 4,0 km/h (1 Bft) W 264 ° 0 min 0,000 mm 0,8 UV-I 84 W/m² 5,9 °C 6,4 km/h (2 Bft)
29.10.2016 10:05 8,4 °C 8,4 °C 84 % 1033,7 hPa 0,0 mm 4,0 km/h (1 Bft) W 269 ° 0 min 0,000 mm 0,8 UV-I 93 W/m² 5,9 °C 4,8 km/h (1 Bft)
29.10.2016 10:06 8,3 °C 8,4 °C 84 % 1033,7 hPa 0,0 mm 2,9 km/h (1 Bft) W 267 ° 0 min 0,000 mm 0,9 UV-I 102 W/m² 5,8 °C 4,8 km/h (1 Bft)
29.10.2016 10:07 8,3 °C 8,4 °C 83 % 1033,6 hPa 0,0 mm 1,7 km/h (1 Bft) W 267 ° 0 min 0,000 mm 0,9 UV-I 109 W/m² 5,6 °C 3,2 km/h (1 Bft)
29.10.2016 10:08 8,3 °C 8,3 °C 86 % 1033,6 hPa 0,0 mm 0,6 km/h (0 Bft) W 267 ° 0 min 0,000 mm 0,9 UV-I 111 W/m² 6,1 °C 1,6 km/h (1 Bft)
29.10.2016 10:09 8,3 °C 8,3 °C 85 % 1033,7 hPa 0,0 mm 1,8 km/h (1 Bft) W-SW 244 ° 0 min 0,000 mm 0,9 UV-I 109 W/m² 5,9 °C 4,8 km/h (1 Bft)
29.10.2016 10:10 8,3 °C 8,3 °C 87 % 1033,6 hPa 0,0 mm 2,2 km/h (1 Bft) W-SW 246 ° 0 min 0,000 mm 0,8 UV-I 104 W/m² 6,3 °C 3,2 km/h (1 Bft)
29.10.2016 10:11 8,3 °C 8,3 °C 87 % 1033,7 hPa 0,0 mm 1,8 km/h (1 Bft) W-SW 246 ° 0 min 0,000 mm 0,8 UV-I 102 W/m² 6,3 °C 3,2 km/h (1 Bft)
29.10.2016 10:12 8,3 °C 8,3 °C 87 % 1033,7 hPa 0,0 mm 0,9 km/h (0 Bft) W-SW 246 ° 0 min 0,000 mm 0,9 UV-I 107 W/m² 6,3 °C 1,6 km/h (1 Bft)
29.10.2016 10:13 8,4 °C 8,4 °C 86 % 1033,7 hPa 0,0 mm 1,9 km/h (1 Bft) W-SW 243 ° 0 min 0,000 mm 0,9 UV-I 116 W/m² 6,2 °C 4,8 km/h (1 Bft)
29.10.2016 10:14 8,4 °C 8,4 °C 85 % 1033,7 hPa 0,0 mm 1,5 km/h (1 Bft) W-SW 243 ° 0 min 0,000 mm 0,9 UV-I 127 W/m² 6,0 °C 3,2 km/h (1 Bft)
29.10.2016 10:15 8,4 °C 8,4 °C 85 % 1033,7 hPa 0,0 mm 0,2 km/h (0 Bft) W-SW 243 ° 0 min 0,000 mm 0,9 UV-I 135 W/m² 6,0 °C 1,6 km/h (1 Bft)
29.10.2016 10:16 8,4 °C 8,4 °C 85 % 1033,7 hPa 0,0 mm 0,1 km/h (0 Bft) W-SW 243 ° 0 min 0,000 mm 0,9 UV-I 130 W/m² 6,0 °C 1,6 km/h (1 Bft)
29.10.2016 10:17 8,4 °C 8,4 °C 85 % 1033,7 hPa 0,0 mm 0,0 km/h (0 Bft) W-SW 243 ° 0 min 0,000 mm 0,9 UV-I 125 W/m² 6,0 °C 0,0 km/h (0 Bft)
29.10.2016 10:18 8,4 °C 8,4 °C 85 % 1033,7 hPa 0,0 mm 0,0 km/h (0 Bft) W-SW 243 ° 0 min 0,000 mm 0,9 UV-I 123 W/m² 6,0 °C 0,0 km/h (0 Bft)
29.10.2016 10:19 8,5 °C 8,5 °C 85 % 1033,7 hPa 0,0 mm 0,2 km/h (0 Bft) W-SW 243 ° 0 min 0,000 mm 0,9 UV-I 125 W/m² 6,1 °C 1,6 km/h (1 Bft)
29.10.2016 10:20 8,6 °C 8,6 °C 84 % 1033,7 hPa 0,0 mm 0,1 km/h (0 Bft) W-SW 243 ° 0 min 0,000 mm 0,9 UV-I 128 W/m² 6,1 °C 1,6 km/h (1 Bft)
29.10.2016 10:21 8,6 °C 8,6 °C 84 % 1033,6 hPa 0,0 mm 1,3 km/h (1 Bft) W-SW 244 ° 0 min 0,000 mm 1,0 UV-I 134 W/m² 6,1 °C 1,6 km/h (1 Bft)
29.10.2016 10:22 8,6 °C 8,6 °C 84 % 1033,6 hPa 0,0 mm 2,1 km/h (1 Bft) W-SW 244 ° 0 min 0,000 mm 1,0 UV-I 137 W/m² 6,1 °C 3,2 km/h (1 Bft)
29.10.2016 10:23 8,7 °C 8,7 °C 85 % 1033,7 hPa 0,0 mm 1,5 km/h (1 Bft) W-SW 244 ° 0 min 0,000 mm 1,0 UV-I 137 W/m² 6,3 °C 3,2 km/h (1 Bft)
29.10.2016 10:24 8,7 °C 8,7 °C 83 % 1033,6 hPa 0,0 mm 1,3 km/h (1 Bft) W-SW 244 ° 0 min 0,000 mm 1,0 UV-I 137 W/m² 6,0 °C 3,2 km/h (1 Bft)
29.10.2016 10:25 8,8 °C 8,8 °C 83 % 1033,6 hPa 0,0 mm 0,9 km/h (0 Bft) W-SW 244 ° 0 min 0,000 mm 1,0 UV-I 135 W/m² 6,1 °C 1,6 km/h (1 Bft)
29.10.2016 10:26 8,9 °C 8,9 °C 84 % 1033,6 hPa 0,0 mm 0,3 km/h (0 Bft) W-SW 244 ° 0 min 0,000 mm 1,0 UV-I 134 W/m² 6,3 °C 1,6 km/h (1 Bft)
29.10.2016 10:27 8,9 °C 8,9 °C 84 % 1033,6 hPa 0,0 mm 0,2 km/h (0 Bft) W-SW 244 ° 0 min 0,000 mm 1,0 UV-I 139 W/m² 6,3 °C 1,6 km/h (1 Bft)
29.10.2016 10:28 8,9 °C 8,9 °C 83 % 1033,6 hPa 0,0 mm 0,0 km/h (0 Bft) W-SW 244 ° 0 min 0,000 mm 1,0 UV-I 158 W/m² 6,2 °C 0,0 km/h (0 Bft)
29.10.2016 10:29 9,0 °C 9,0 °C 83 % 1033,6 hPa 0,0 mm 1,0 km/h (0 Bft) W-SW 244 ° 0 min 0,000 mm 1,0 UV-I 163 W/m² 6,3 °C 3,2 km/h (1 Bft)
29.10.2016 10:30 9,0 °C 9,0 °C 83 % 1033,6 hPa 0,0 mm 0,8 km/h (0 Bft) W-SW 244 ° 0 min 0,000 mm 1,0 UV-I 162 W/m² 6,3 °C 1,6 km/h (1 Bft)
29.10.2016 10:31 9,1 °C 9,1 °C 83 % 1033,5 hPa 0,0 mm 0,7 km/h (0 Bft) W-SW 244 ° 0 min 0,000 mm 1,0 UV-I 156 W/m² 6,4 °C 1,6 km/h (1 Bft)
29.10.2016 10:32 9,1 °C 9,1 °C 82 % 1033,6 hPa 0,0 mm 1,3 km/h (1 Bft) W-SW 244 ° 0 min 0,000 mm 1,0 UV-I 151 W/m² 6,2 °C 1,6 km/h (1 Bft)
29.10.2016 10:33 9,1 °C 9,1 °C 82 % 1033,5 hPa 0,0 mm 0,1 km/h (0 Bft) W-SW 244 ° 0 min 0,000 mm 1,0 UV-I 144 W/m² 6,2 °C 1,6 km/h (1 Bft)
29.10.2016 10:34 9,1 °C 9,1 °C 83 % 1033,5 hPa 0,0 mm 0,6 km/h (0 Bft) W-SW 244 ° 0 min 0,000 mm 1,0 UV-I 144 W/m² 6,4 °C 1,6 km/h (1 Bft)
29.10.2016 10:35 9,2 °C 9,2 °C 82 % 1033,5 hPa 0,0 mm 0,4 km/h (0 Bft) W-SW 244 ° 0 min 0,000 mm 1,1 UV-I 144 W/m² 6,3 °C 1,6 km/h (1 Bft)
29.10.2016 10:36 9,1 °C 9,2 °C 82 % 1033,5 hPa 0,0 mm 0,9 km/h (0 Bft) W-SW 244 ° 0 min 0,000 mm 1,1 UV-I 144 W/m² 6,2 °C 1,6 km/h (1 Bft)
29.10.2016 10:37 9,2 °C 9,2 °C 82 % 1033,5 hPa 0,0 mm 0,0 km/h (0 Bft) W-SW 244 ° 0 min 0,000 mm 1,1 UV-I 148 W/m² 6,3 °C 0,0 km/h (0 Bft)
29.10.2016 10:38 9,1 °C 9,2 °C 83 % 1033,5 hPa 0,0 mm 0,6 km/h (0 Bft) W-SW 244 ° 0 min 0,000 mm 1,1 UV-I 153 W/m² 6,4 °C 1,6 km/h (1 Bft)
29.10.2016 10:39 9,2 °C 9,2 °C 84 % 1033,5 hPa 0,0 mm 1,0 km/h (0 Bft) W-SW 244 ° 0 min 0,000 mm 1,1 UV-I 162 W/m² 6,6 °C 1,6 km/h (1 Bft)
29.10.2016 10:40 9,2 °C 9,2 °C 81 % 1033,5 hPa 0,0 mm 1,8 km/h (1 Bft) NW 326 ° 0 min 0,000 mm 1,2 UV-I 181 W/m² 6,1 °C 3,2 km/h (1 Bft)
29.10.2016 10:41 9,2 °C 9,2 °C 82 % 1033,5 hPa 0,0 mm 2,7 km/h (1 Bft) N-NO 13 ° 0 min 0,000 mm 1,2 UV-I 185 W/m² 6,3 °C 3,2 km/h (1 Bft)
29.10.2016 10:42 9,2 °C 9,2 °C 81 % 1033,5 hPa 0,0 mm 1,8 km/h (1 Bft) N-NO 13 ° 0 min 0,000 mm 1,2 UV-I 186 W/m² 6,1 °C 3,2 km/h (1 Bft)
29.10.2016 10:43 9,2 °C 9,2 °C 82 % 1033,4 hPa 0,0 mm 2,2 km/h (1 Bft) N-NO 13 ° 0 min 0,000 mm 1,2 UV-I 190 W/m² 6,3 °C 3,2 km/h (1 Bft)
29.10.2016 10:44 9,2 °C 9,2 °C 81 % 1033,4 hPa 0,0 mm 2,1 km/h (1 Bft) N-NO 13 ° 0 min 0,000 mm 1,2 UV-I 195 W/m² 6,1 °C 3,2 km/h (1 Bft)
29.10.2016 10:45 9,3 °C 9,3 °C 83 % 1033,5 hPa 0,0 mm 2,1 km/h (1 Bft) N-NO 15 ° 0 min 0,000 mm 1,2 UV-I 199 W/m² 6,6 °C 3,2 km/h (1 Bft)
29.10.2016 10:46 9,3 °C 9,3 °C 82 % 1033,4 hPa 0,0 mm 2,7 km/h (1 Bft) NO 49 ° 0 min 0,000 mm 1,2 UV-I 199 W/m² 6,4 °C 3,2 km/h (1 Bft)
29.10.2016 10:47 9,3 °C 9,3 °C 81 % 1033,5 hPa 0,0 mm 2,1 km/h (1 Bft) NO 49 ° 0 min 0,000 mm 1,2 UV-I 192 W/m² 6,2 °C 3,2 km/h (1 Bft)
29.10.2016 10:48 9,4 °C 9,4 °C 82 % 1033,5 hPa 0,0 mm 0,1 km/h (0 Bft) NO 49 ° 0 min 0,000 mm 1,2 UV-I 185 W/m² 6,5 °C 1,6 km/h (1 Bft)
29.10.2016 10:49 9,5 °C 9,5 °C 81 % 1033,5 hPa 0,0 mm 0,3 km/h (0 Bft) NO 48 ° 0 min 0,000 mm 1,2 UV-I 178 W/m² 6,4 °C 1,6 km/h (1 Bft)
29.10.2016 10:50 9,6 °C 9,6 °C 81 % 1033,5 hPa 0,0 mm 0,6 km/h (0 Bft) NO 48 ° 0 min 0,000 mm 1,2 UV-I 172 W/m² 6,5 °C 1,6 km/h (1 Bft)
29.10.2016 10:51 9,7 °C 9,7 °C 81 % 1033,4 hPa 0,0 mm 1,4 km/h (1 Bft) NO 34 ° 0 min 0,000 mm 1,2 UV-I 171 W/m² 6,6 °C 3,2 km/h (1 Bft)
29.10.2016 10:52 9,8 °C 9,8 °C 81 % 1033,4 hPa 0,0 mm 3,1 km/h (1 Bft) W-NW 294 ° 0 min 0,000 mm 1,2 UV-I 185 W/m² 6,7 °C 4,8 km/h (1 Bft)
29.10.2016 10:53 9,8 °C 9,8 °C 81 % 1033,4 hPa 0,0 mm 3,2 km/h (1 Bft) W-NW 288 ° 0 min 0,000 mm 1,2 UV-I 193 W/m² 6,7 °C 4,8 km/h (1 Bft)
29.10.2016 10:54 9,8 °C 9,8 °C 82 % 1033,4 hPa 0,0 mm 4,6 km/h (1 Bft) W 259 ° 0 min 0,000 mm 1,3 UV-I 199 W/m² 6,9 °C 6,4 km/h (2 Bft)
29.10.2016 10:55 9,8 °C 9,8 °C 82 % 1033,4 hPa 0,0 mm 4,9 km/h (1 Bft) W-NW 290 ° 0 min 0,000 mm 1,3 UV-I 199 W/m² 6,9 °C 6,4 km/h (2 Bft)
29.10.2016 10:56 9,8 °C 9,9 °C 81 % 1033,4 hPa 0,0 mm 3,9 km/h (1 Bft) W-NW 289 ° 0 min 0,000 mm 1,3 UV-I 197 W/m² 6,7 °C 4,8 km/h (1 Bft)
29.10.2016 10:57 9,8 °C 9,8 °C 81 % 1033,4 hPa 0,0 mm 4,8 km/h (1 Bft) W-SW 256 ° 0 min 0,000 mm 1,2 UV-I 192 W/m² 6,7 °C 6,4 km/h (2 Bft)
29.10.2016 10:58 9,8 °C 9,8 °C 81 % 1033,4 hPa 0,0 mm 5,3 km/h (1 Bft) W 268 ° 0 min 0,000 mm 1,2 UV-I 188 W/m² 6,7 °C 6,4 km/h (2 Bft)
29.10.2016 10:59 9,8 °C 9,8 °C 81 % 1033,4 hPa 0,0 mm 2,9 km/h (1 Bft) W 267 ° 0 min 0,000 mm 1,2 UV-I 186 W/m² 6,7 °C 4,8 km/h (1 Bft)
29.10.2016 11:00 9,9 °C 9,9 °C 79 % 1033,4 hPa 0,0 mm 3,4 km/h (1 Bft) W-SW 252 ° 0 min 0,000 mm 1,2 UV-I 179 W/m² 6,4 °C 4,8 km/h (1 Bft)
29.10.2016 11:01 9,9 °C 9,9 °C 80 % 1033,4 hPa 0,0 mm 2,3 km/h (1 Bft) W-NW 282 ° 0 min 0,077 mm 1,2 UV-I 169 W/m² 6,6 °C 3,2 km/h (1 Bft)
29.10.2016 11:02 9,9 °C 9,9 °C 80 % 1033,4 hPa 0,0 mm 4,6 km/h (1 Bft) W-NW 288 ° 0 min 0,000 mm 1,2 UV-I 160 W/m² 6,6 °C 6,4 km/h (2 Bft)
29.10.2016 11:03 10,0 °C 10,0 °C 80 % 1033,4 hPa 0,0 mm 4,3 km/h (1 Bft) W 273 ° 0 min 0,000 mm 1,2 UV-I 151 W/m² 6,7 °C 4,8 km/h (1 Bft)
29.10.2016 11:04 10,1 °C 10,1 °C 79 % 1033,4 hPa 0,0 mm 3,7 km/h (1 Bft) W-NW 282 ° 0 min 0,000 mm 1,2 UV-I 149 W/m² 6,6 °C 4,8 km/h (1 Bft)
29.10.2016 11:05 10,2 °C 10,2 °C 80 % 1033,4 hPa 0,0 mm 4,2 km/h (1 Bft) W-NW 296 ° 0 min 0,000 mm 1,2 UV-I 146 W/m² 6,9 °C 6,4 km/h (2 Bft)
29.10.2016 11:06 10,2 °C 10,2 °C 80 % 1033,4 hPa 0,0 mm 2,5 km/h (1 Bft) W-NW 300 ° 0 min 0,000 mm 1,2 UV-I 144 W/m² 6,9 °C 4,8 km/h (1 Bft)
29.10.2016 11:07 10,2 °C 10,2 °C 80 % 1033,4 hPa 0,0 mm 4,6 km/h (1 Bft) W-NW 288 ° 0 min 0,000 mm 1,2 UV-I 144 W/m² 6,9 °C 6,4 km/h (2 Bft)
29.10.2016 11:08 10,1 °C 10,2 °C 80 % 1033,4 hPa 0,0 mm 3,0 km/h (1 Bft) W-NW 290 ° 0 min 0,000 mm 1,2 UV-I 142 W/m² 6,8 °C 4,8 km/h (1 Bft)
29.10.2016 11:09 10,1 °C 10,1 °C 80 % 1033,4 hPa 0,0 mm 2,1 km/h (1 Bft) W-NW 296 ° 0 min 0,000 mm 1,2 UV-I 139 W/m² 6,8 °C 3,2 km/h (1 Bft)
29.10.2016 11:10 10,1 °C 10,1 °C 81 % 1033,4 hPa 0,0 mm 2,4 km/h (1 Bft) W-NW 300 ° 0 min 0,000 mm 1,2 UV-I 139 W/m² 7,0 °C 3,2 km/h (1 Bft)
29.10.2016 11:11 10,1 °C 10,1 °C 80 % 1033,4 hPa 0,0 mm 4,2 km/h (1 Bft) NW 306 ° 0 min 0,000 mm 1,2 UV-I 142 W/m² 6,8 °C 6,4 km/h (2 Bft)
29.10.2016 11:12 10,1 °C 10,1 °C 79 % 1033,4 hPa 0,0 mm 4,7 km/h (1 Bft) W 277 ° 0 min 0,000 mm 1,3 UV-I 148 W/m² 6,6 °C 6,4 km/h (2 Bft)
29.10.2016 11:13 10,1 °C 10,1 °C 80 % 1033,3 hPa 0,0 mm 3,2 km/h (1 Bft) W-NW 289 ° 0 min 0,000 mm 1,3 UV-I 153 W/m² 6,8 °C 4,8 km/h (1 Bft)
29.10.2016 11:14 10,1 °C 10,1 °C 80 % 1033,4 hPa 0,0 mm 2,4 km/h (1 Bft) W-NW 289 ° 0 min 0,000 mm 1,3 UV-I 156 W/m² 6,8 °C 3,2 km/h (1 Bft)
29.10.2016 11:15 10,1 °C 10,1 °C 80 % 1033,3 hPa 0,0 mm 3,2 km/h (1 Bft) W-NW 302 ° 0 min 0,000 mm 1,3 UV-I 162 W/m² 6,8 °C 4,8 km/h (1 Bft)
29.10.2016 11:16 10,2 °C 10,2 °C 80 % 1033,4 hPa 0,0 mm 1,6 km/h (1 Bft) NW 304 ° 0 min 0,000 mm 1,3 UV-I 160 W/m² 6,9 °C 3,2 km/h (1 Bft)
29.10.2016 11:17 10,2 °C 10,2 °C 79 % 1033,3 hPa 0,0 mm 1,2 km/h (1 Bft) NW 304 ° 0 min 0,000 mm 1,3 UV-I 158 W/m² 6,7 °C 3,2 km/h (1 Bft)
29.10.2016 11:18 10,2 °C 10,2 °C 79 % 1033,3 hPa 0,0 mm 4,5 km/h (1 Bft) W 278 ° 0 min 0,000 mm 1,3 UV-I 153 W/m² 6,7 °C 6,4 km/h (2 Bft)
29.10.2016 11:19 10,2 °C 10,2 °C 79 % 1033,3 hPa 0,0 mm 3,8 km/h (1 Bft) W 275 ° 0 min 0,000 mm 1,3 UV-I 148 W/m² 6,7 °C 4,8 km/h (1 Bft)
29.10.2016 11:20 10,2 °C 10,2 °C 78 % 1033,3 hPa 0,0 mm 4,6 km/h (1 Bft) W-NW 284 ° 0 min 0,000 mm 1,3 UV-I 142 W/m² 6,5 °C 6,4 km/h (2 Bft)
29.10.2016 11:21 10,2 °C 10,2 °C 77 % 1033,3 hPa 0,0 mm 5,2 km/h (1 Bft) W-SW 246 ° 0 min 0,000 mm 1,4 UV-I 141 W/m² 6,4 °C 8,0 km/h (2 Bft)
29.10.2016 11:22 10,2 °C 10,2 °C 76 % 1033,3 hPa 0,0 mm 4,0 km/h (1 Bft) W-SW 250 ° 0 min 0,000 mm 1,4 UV-I 141 W/m² 6,2 °C 6,4 km/h (2 Bft)
29.10.2016 11:23 10,1 °C 10,2 °C 76 % 1033,3 hPa 0,0 mm 3,4 km/h (1 Bft) W-SW 258 ° 0 min 0,000 mm 1,4 UV-I 141 W/m² 6,1 °C 6,4 km/h (2 Bft)
29.10.2016 11:24 10,1 °C 10,1 °C 77 % 1033,3 hPa 0,0 mm 4,8 km/h (1 Bft) W-SW 249 ° 0 min 0,000 mm 1,4 UV-I 141 W/m² 6,3 °C 6,4 km/h (2 Bft)
29.10.2016 11:25 10,0 °C 10,1 °C 76 % 1033,3 hPa 0,0 mm 4,0 km/h (1 Bft) W-SW 248 ° 0 min 0,000 mm 1,5 UV-I 141 W/m² 6,0 °C 6,4 km/h (2 Bft)
29.10.2016 11:26 9,9 °C 10,0 °C 76 % 1033,3 hPa 0,0 mm 3,7 km/h (1 Bft) W 270 ° 0 min 0,000 mm 1,5 UV-I 144 W/m² 5,9 °C 4,8 km/h (1 Bft)
29.10.2016 11:27 9,9 °C 9,9 °C 76 % 1033,3 hPa 0,0 mm 3,0 km/h (1 Bft) W 269 ° 0 min 0,000 mm 1,5 UV-I 162 W/m² 5,9 °C 3,2 km/h (1 Bft)
29.10.2016 11:28 9,9 °C 9,9 °C 75 % 1033,4 hPa 0,0 mm 1,7 km/h (1 Bft) W 269 ° 0 min 0,000 mm 1,5 UV-I 165 W/m² 5,7 °C 3,2 km/h (1 Bft)
29.10.2016 11:29 9,9 °C 9,9 °C 74 % 1033,3 hPa 0,0 mm 2,1 km/h (1 Bft) W 267 ° 0 min 0,000 mm 1,5 UV-I 167 W/m² 5,5 °C 4,8 km/h (1 Bft)
29.10.2016 11:30 9,9 °C 9,9 °C 77 % 1033,3 hPa 0,0 mm 1,7 km/h (1 Bft) W 267 ° 0 min 0,000 mm 1,5 UV-I 167 W/m² 6,1 °C 3,2 km/h (1 Bft)
29.10.2016 11:31 9,9 °C 9,9 °C 74 % 1033,3 hPa 0,0 mm 2,4 km/h (1 Bft) W 268 ° 0 min 0,000 mm 1,5 UV-I 174 W/m² 5,5 °C 3,2 km/h (1 Bft)
29.10.2016 11:32 9,9 °C 9,9 °C 77 % 1033,4 hPa 0,0 mm 3,8 km/h (1 Bft) W 265 ° 0 min 0,000 mm 1,5 UV-I 179 W/m² 6,1 °C 4,8 km/h (1 Bft)
29.10.2016 11:33 9,9 °C 9,9 °C 78 % 1033,4 hPa 0,0 mm 2,7 km/h (1 Bft) W 265 ° 0 min 0,000 mm 1,5 UV-I 181 W/m² 6,2 °C 4,8 km/h (1 Bft)
29.10.2016 11:34 9,9 °C 9,9 °C 75 % 1033,4 hPa 0,0 mm 2,4 km/h (1 Bft) W 276 ° 0 min 0,000 mm 1,5 UV-I 181 W/m² 5,7 °C 4,8 km/h (1 Bft)
29.10.2016 11:35 9,9 °C 9,9 °C 74 % 1033,5 hPa 0,0 mm 0,4 km/h (0 Bft) W-NW 288 ° 0 min 0,000 mm 1,5 UV-I 188 W/m² 5,5 °C 3,2 km/h (1 Bft)
29.10.2016 11:36 9,8 °C 9,9 °C 74 % 1033,5 hPa 0,0 mm 0,9 km/h (0 Bft) W-NW 298 ° 0 min 0,000 mm 1,6 UV-I 199 W/m² 5,4 °C 3,2 km/h (1 Bft)
29.10.2016 11:37 9,9 °C 9,9 °C 74 % 1033,5 hPa 0,0 mm 4,2 km/h (1 Bft) N-NW 329 ° 0 min 0,000 mm 1,6 UV-I 206 W/m² 5,5 °C 6,4 km/h (2 Bft)
29.10.2016 11:38 9,9 °C 9,9 °C 77 % 1033,5 hPa 0,0 mm 4,1 km/h (1 Bft) W-NW 300 ° 0 min 0,000 mm 1,6 UV-I 209 W/m² 6,1 °C 6,4 km/h (2 Bft)
29.10.2016 11:39 10,0 °C 10,0 °C 75 % 1033,5 hPa 0,0 mm 4,0 km/h (1 Bft) NW 313 ° 0 min 0,000 mm 1,6 UV-I 197 W/m² 5,8 °C 6,4 km/h (2 Bft)
29.10.2016 11:40 10,0 °C 10,0 °C 76 % 1033,5 hPa 0,0 mm 5,2 km/h (1 Bft) NW 313 ° 0 min 0,000 mm 1,6 UV-I 192 W/m² 6,0 °C 6,4 km/h (2 Bft)
29.10.2016 11:41 10,0 °C 10,0 °C 74 % 1033,4 hPa 0,0 mm 4,7 km/h (1 Bft) NW 313 ° 0 min 0,000 mm 1,6 UV-I 192 W/m² 5,6 °C 6,4 km/h (2 Bft)
29.10.2016 11:42 10,1 °C 10,1 °C 76 % 1033,5 hPa 0,0 mm 3,4 km/h (1 Bft) NW 313 ° 0 min 0,000 mm 1,6 UV-I 192 W/m² 6,1 °C 4,8 km/h (1 Bft)
29.10.2016 11:43 10,1 °C 10,1 °C 75 % 1033,5 hPa 0,0 mm 2,0 km/h (1 Bft) NW 313 ° 0 min 0,000 mm 1,6 UV-I 193 W/m² 5,9 °C 3,2 km/h (1 Bft)
29.10.2016 11:44 10,1 °C 10,1 °C 77 % 1033,5 hPa 0,0 mm 4,6 km/h (1 Bft) NW 310 ° 0 min 0,000 mm 1,6 UV-I 195 W/m² 6,3 °C 6,4 km/h (2 Bft)
29.10.2016 11:45 10,1 °C 10,1 °C 77 % 1033,5 hPa 0,0 mm 5,0 km/h (1 Bft) NW 316 ° 0 min 0,000 mm 1,6 UV-I 204 W/m² 6,3 °C 6,4 km/h (2 Bft)
29.10.2016 11:46 10,1 °C 10,1 °C 74 % 1033,5 hPa 0,0 mm 5,0 km/h (1 Bft) NW 315 ° 0 min 0,000 mm 1,6 UV-I 209 W/m² 5,7 °C 6,4 km/h (2 Bft)
29.10.2016 11:47 10,1 °C 10,1 °C 73 % 1033,6 hPa 0,0 mm 5,9 km/h (2 Bft) NW 313 ° 0 min 0,000 mm 1,6 UV-I 211 W/m² 5,5 °C 8,0 km/h (2 Bft)
29.10.2016 11:48 10,1 °C 10,1 °C 74 % 1033,5 hPa 0,0 mm 6,8 km/h (2 Bft) W-NW 287 ° 0 min 0,000 mm 1,6 UV-I 209 W/m² 5,7 °C 9,7 km/h (2 Bft)
29.10.2016 11:49 10,1 °C 10,1 °C 74 % 1033,6 hPa 0,0 mm 3,8 km/h (1 Bft) NW 304 ° 0 min 0,000 mm 1,6 UV-I 207 W/m² 5,7 °C 6,4 km/h (2 Bft)
29.10.2016 11:50 10,1 °C 10,1 °C 73 % 1033,7 hPa 0,0 mm 4,0 km/h (1 Bft) W 266 ° 0 min 0,000 mm 1,6 UV-I 207 W/m² 5,5 °C 4,8 km/h (1 Bft)
29.10.2016 11:51 10,1 °C 10,2 °C 75 % 1033,6 hPa 0,0 mm 0,7 km/h (0 Bft) W 267 ° 0 min 0,000 mm 1,5 UV-I 206 W/m² 5,9 °C 1,6 km/h (1 Bft)
29.10.2016 11:52 10,1 °C 10,1 °C 72 % 1033,6 hPa 0,0 mm 1,5 km/h (1 Bft) NW 306 ° 0 min 0,000 mm 1,5 UV-I 202 W/m² 5,3 °C 3,2 km/h (1 Bft)
29.10.2016 11:53 10,1 °C 10,1 °C 72 % 1033,6 hPa 0,0 mm 3,7 km/h (1 Bft) NW 309 ° 0 min 0,000 mm 1,5 UV-I 206 W/m² 5,3 °C 6,4 km/h (2 Bft)
29.10.2016 11:54 10,1 °C 10,1 °C 73 % 1033,7 hPa 0,0 mm 1,9 km/h (1 Bft) NW 309 ° 0 min 0,000 mm 1,5 UV-I 213 W/m² 5,5 °C 3,2 km/h (1 Bft)
29.10.2016 11:55 10,1 °C 10,1 °C 73 % 1033,7 hPa 0,0 mm 0,5 km/h (0 Bft) NW 309 ° 0 min 0,000 mm 1,5 UV-I 214 W/m² 5,5 °C 1,6 km/h (1 Bft)
29.10.2016 11:56 10,1 °C 10,1 °C 74 % 1033,6 hPa 0,0 mm 1,5 km/h (1 Bft) NW 309 ° 0 min 0,000 mm 1,5 UV-I 218 W/m² 5,7 °C 3,2 km/h (1 Bft)
29.10.2016 11:57 10,1 °C 10,1 °C 73 % 1033,7 hPa 0,0 mm 2,4 km/h (1 Bft) W-NW 292 ° 0 min 0,000 mm 1,5 UV-I 214 W/m² 5,5 °C 4,8 km/h (1 Bft)
29.10.2016 11:58 10,1 °C 10,1 °C 73 % 1033,6 hPa 0,0 mm 2,8 km/h (1 Bft) W-NW 291 ° 0 min 0,000 mm 1,5 UV-I 211 W/m² 5,5 °C 4,8 km/h (1 Bft)
29.10.2016 11:59 10,1 °C 10,1 °C 73 % 1033,6 hPa 0,0 mm 0,3 km/h (0 Bft) W-NW 291 ° 0 min 0,000 mm 1,5 UV-I 207 W/m² 5,5 °C 1,6 km/h (1 Bft)
29.10.2016 12:00 10,1 °C 10,1 °C 75 % 1033,7 hPa 0,0 mm 2,5 km/h (1 Bft) W-NW 291 ° 0 min 0,000 mm 1,5 UV-I 209 W/m² 5,9 °C 3,2 km/h (1 Bft)
29.10.2016 12:01 10,2 °C 10,2 °C 74 % 1033,6 hPa 0,0 mm 2,9 km/h (1 Bft) W-NW 291 ° 0 min 0,101 mm 1,5 UV-I 207 W/m² 5,8 °C 4,8 km/h (1 Bft)
29.10.2016 12:02 10,2 °C 10,2 °C 74 % 1033,6 hPa 0,0 mm 0,5 km/h (0 Bft) W-NW 291 ° 0 min 0,000 mm 1,5 UV-I 202 W/m² 5,8 °C 1,6 km/h (1 Bft)
29.10.2016 12:03 10,2 °C 10,2 °C 75 % 1033,6 hPa 0,0 mm 0,3 km/h (0 Bft) W-NW 291 ° 0 min 0,000 mm 1,5 UV-I 199 W/m² 6,0 °C 1,6 km/h (1 Bft)
29.10.2016 12:04 10,3 °C 10,3 °C 77 % 1033,5 hPa 0,0 mm 2,3 km/h (1 Bft) W 269 ° 0 min 0,000 mm 1,5 UV-I 199 W/m² 6,4 °C 4,8 km/h (1 Bft)
29.10.2016 12:05 10,3 °C 10,3 °C 77 % 1033,5 hPa 0,0 mm 2,3 km/h (1 Bft) W 269 ° 0 min 0,000 mm 1,6 UV-I 202 W/m² 6,4 °C 3,2 km/h (1 Bft)
29.10.2016 12:06 10,3 °C 10,3 °C 74 % 1033,5 hPa 0,0 mm 2,8 km/h (1 Bft) W-SW 248 ° 0 min 0,000 mm 1,6 UV-I 207 W/m² 5,9 °C 4,8 km/h (1 Bft)
29.10.2016 12:07 10,3 °C 10,4 °C 75 % 1033,5 hPa 0,0 mm 4,2 km/h (1 Bft) W-SW 248 ° 0 min 0,000 mm 1,6 UV-I 211 W/m² 6,1 °C 4,8 km/h (1 Bft)
29.10.2016 12:08 10,3 °C 10,3 °C 73 % 1033,5 hPa 0,0 mm 2,7 km/h (1 Bft) W-SW 248 ° 0 min 0,000 mm 1,6 UV-I 204 W/m² 5,7 °C 4,8 km/h (1 Bft)
29.10.2016 12:09 10,3 °C 10,3 °C 74 % 1033,4 hPa 0,0 mm 1,2 km/h (1 Bft) W-SW 248 ° 0 min 0,000 mm 1,6 UV-I 204 W/m² 5,9 °C 1,6 km/h (1 Bft)
29.10.2016 12:10 10,4 °C 10,4 °C 76 % 1033,4 hPa 0,0 mm 0,5 km/h (0 Bft) W-SW 248 ° 0 min 0,000 mm 1,6 UV-I 204 W/m² 6,4 °C 1,6 km/h (1 Bft)
29.10.2016 12:11 10,4 °C 10,5 °C 75 % 1033,4 hPa 0,0 mm 0,3 km/h (0 Bft) W-SW 248 ° 0 min 0,000 mm 1,6 UV-I 207 W/m² 6,2 °C 1,6 km/h (1 Bft)
29.10.2016 12:12 10,4 °C 10,5 °C 75 % 1033,4 hPa 0,0 mm 1,1 km/h (1 Bft) W-SW 248 ° 0 min 0,000 mm 1,6 UV-I 211 W/m² 6,2 °C 3,2 km/h (1 Bft)
29.10.2016 12:13 10,4 °C 10,4 °C 73 % 1033,4 hPa 0,0 mm 0,6 km/h (0 Bft) W-SW 248 ° 0 min 0,000 mm 1,6 UV-I 213 W/m² 5,8 °C 1,6 km/h (1 Bft)
29.10.2016 12:14 10,4 °C 10,4 °C 73 % 1033,4 hPa 0,0 mm 0,8 km/h (0 Bft) W-SW 248 ° 0 min 0,000 mm 1,7 UV-I 229 W/m² 5,8 °C 3,2 km/h (1 Bft)
29.10.2016 12:15 10,4 °C 10,4 °C 74 % 1033,4 hPa 0,0 mm 0,8 km/h (0 Bft) W-SW 248 ° 0 min 0,000 mm 1,7 UV-I 236 W/m² 6,0 °C 1,6 km/h (1 Bft)
29.10.2016 12:16 10,5 °C 10,5 °C 74 % 1033,4 hPa 0,0 mm 3,0 km/h (1 Bft) W-NW 284 ° 0 min 0,000 mm 1,7 UV-I 234 W/m² 6,1 °C 4,8 km/h (1 Bft)
29.10.2016 12:17 10,6 °C 10,6 °C 75 % 1033,5 hPa 0,0 mm 2,7 km/h (1 Bft) W-NW 284 ° 0 min 0,000 mm 1,7 UV-I 229 W/m² 6,4 °C 3,2 km/h (1 Bft)
29.10.2016 12:18 10,6 °C 10,6 °C 76 % 1033,4 hPa 0,0 mm 1,6 km/h (1 Bft) W-NW 284 ° 0 min 0,000 mm 1,6 UV-I 223 W/m² 6,5 °C 3,2 km/h (1 Bft)
29.10.2016 12:19 10,7 °C 10,7 °C 77 % 1033,4 hPa 0,0 mm 0,8 km/h (0 Bft) W-NW 284 ° 0 min 0,000 mm 1,6 UV-I 220 W/m² 6,8 °C 1,6 km/h (1 Bft)
29.10.2016 12:20 10,7 °C 10,7 °C 75 % 1033,5 hPa 0,0 mm 0,8 km/h (0 Bft) W-NW 284 ° 0 min 0,000 mm 1,6 UV-I 213 W/m² 6,5 °C 1,6 km/h (1 Bft)
29.10.2016 12:21 10,7 °C 10,7 °C 74 % 1033,5 hPa 0,0 mm 1,5 km/h (1 Bft) W-NW 284 ° 0 min 0,000 mm 1,5 UV-I 211 W/m² 6,3 °C 3,2 km/h (1 Bft)
29.10.2016 12:22 10,7 °C 10,7 °C 77 % 1033,4 hPa 0,0 mm 3,0 km/h (1 Bft) W-NW 284 ° 0 min 0,000 mm 1,5 UV-I 209 W/m² 6,8 °C 4,8 km/h (1 Bft)
29.10.2016 12:23 10,7 °C 10,7 °C 74 % 1033,4 hPa 0,0 mm 3,0 km/h (1 Bft) W-NW 302 ° 0 min 0,000 mm 1,5 UV-I 206 W/m² 6,3 °C 4,8 km/h (1 Bft)
29.10.2016 12:24 10,7 °C 10,7 °C 75 % 1033,4 hPa 0,0 mm 2,4 km/h (1 Bft) W-NW 298 ° 0 min 0,000 mm 1,5 UV-I 202 W/m² 6,5 °C 3,2 km/h (1 Bft)
29.10.2016 12:25 10,8 °C 10,8 °C 75 % 1033,4 hPa 0,0 mm 2,4 km/h (1 Bft) W-NW 298 ° 0 min 0,000 mm 1,5 UV-I 192 W/m² 6,5 °C 3,2 km/h (1 Bft)
29.10.2016 12:26 10,8 °C 10,8 °C 74 % 1033,4 hPa 0,0 mm 2,2 km/h (1 Bft) W-NW 298 ° 0 min 0,000 mm 1,5 UV-I 186 W/m² 6,4 °C 3,2 km/h (1 Bft)
29.10.2016 12:27 10,8 °C 10,8 °C 77 % 1033,4 hPa 0,0 mm 2,7 km/h (1 Bft) W-NW 298 ° 0 min 0,000 mm 1,5 UV-I 185 W/m² 6,9 °C 3,2 km/h (1 Bft)
29.10.2016 12:28 10,8 °C 10,8 °C 74 % 1033,3 hPa 0,0 mm 3,9 km/h (1 Bft) W-NW 293 ° 0 min 0,000 mm 1,5 UV-I 185 W/m² 6,4 °C 4,8 km/h (1 Bft)
29.10.2016 12:29 10,8 °C 10,8 °C 73 % 1033,4 hPa 0,0 mm 0,5 km/h (0 Bft) W-NW 293 ° 0 min 0,000 mm 1,5 UV-I 188 W/m² 6,2 °C 1,6 km/h (1 Bft)
29.10.2016 12:30 10,7 °C 10,8 °C 74 % 1033,3 hPa 0,0 mm 2,0 km/h (1 Bft) W-NW 292 ° 0 min 0,000 mm 1,5 UV-I 193 W/m² 6,3 °C 4,8 km/h (1 Bft)
29.10.2016 12:31 10,7 °C 10,8 °C 74 % 1033,3 hPa 0,0 mm 3,1 km/h (1 Bft) W-NW 292 ° 0 min 0,000 mm 1,5 UV-I 193 W/m² 6,3 °C 4,8 km/h (1 Bft)
29.10.2016 12:32 10,8 °C 10,8 °C 75 % 1033,3 hPa 0,0 mm 2,3 km/h (1 Bft) W-NW 292 ° 0 min 0,000 mm 1,5 UV-I 192 W/m² 6,5 °C 4,8 km/h (1 Bft)
29.10.2016 12:33 10,8 °C 10,8 °C 73 % 1033,3 hPa 0,0 mm 3,9 km/h (1 Bft) W 277 ° 0 min 0,000 mm 1,5 UV-I 192 W/m² 6,2 °C 4,8 km/h (1 Bft)
29.10.2016 12:34 10,8 °C 10,8 °C 74 % 1033,3 hPa 0,0 mm 4,8 km/h (1 Bft) W 275 ° 0 min 0,000 mm 1,5 UV-I 190 W/m² 6,4 °C 6,4 km/h (2 Bft)
29.10.2016 12:35 10,8 °C 10,8 °C 75 % 1033,3 hPa 0,0 mm 1,9 km/h (1 Bft) W 275 ° 0 min 0,000 mm 1,5 UV-I 190 W/m² 6,5 °C 3,2 km/h (1 Bft)
29.10.2016 12:36 10,8 °C 10,8 °C 77 % 1033,2 hPa 0,0 mm 1,5 km/h (1 Bft) W 275 ° 0 min 0,000 mm 1,5 UV-I 188 W/m² 6,9 °C 3,2 km/h (1 Bft)
29.10.2016 12:37 10,8 °C 10,8 °C 74 % 1033,2 hPa 0,0 mm 1,0 km/h (0 Bft) W 275 ° 0 min 0,000 mm 1,5 UV-I 188 W/m² 6,4 °C 3,2 km/h (1 Bft)
29.10.2016 12:38 10,8 °C 10,8 °C 74 % 1033,2 hPa 0,0 mm 1,0 km/h (0 Bft) W 275 ° 0 min 0,000 mm 1,5 UV-I 190 W/m² 6,4 °C 1,6 km/h (1 Bft)
29.10.2016 12:39 10,8 °C 10,8 °C 74 % 1033,2 hPa 0,0 mm 3,6 km/h (1 Bft) W 269 ° 0 min 0,000 mm 1,4 UV-I 190 W/m² 6,4 °C 4,8 km/h (1 Bft)
29.10.2016 12:40 10,9 °C 10,9 °C 73 % 1033,2 hPa 0,0 mm 2,1 km/h (1 Bft) W 271 ° 0 min 0,000 mm 1,4 UV-I 190 W/m² 6,3 °C 3,2 km/h (1 Bft)
29.10.2016 12:41 10,9 °C 10,9 °C 76 % 1033,3 hPa 0,0 mm 2,6 km/h (1 Bft) W 281 ° 0 min 0,000 mm 1,4 UV-I 186 W/m² 6,8 °C 3,2 km/h (1 Bft)
29.10.2016 12:42 11,0 °C 11,0 °C 76 % 1033,2 hPa 0,0 mm 2,5 km/h (1 Bft) W 281 ° 0 min 0,000 mm 1,4 UV-I 183 W/m² 6,9 °C 3,2 km/h (1 Bft)
29.10.2016 12:43 10,9 °C 11,0 °C 75 % 1033,2 hPa 0,0 mm 1,1 km/h (1 Bft) W-NW 282 ° 0 min 0,000 mm 1,3 UV-I 181 W/m² 6,6 °C 3,2 km/h (1 Bft)
29.10.2016 12:44 11,0 °C 11,0 °C 74 % 1033,2 hPa 0,0 mm 3,9 km/h (1 Bft) NW 315 ° 0 min 0,000 mm 1,4 UV-I 185 W/m² 6,5 °C 4,8 km/h (1 Bft)
29.10.2016 12:45 11,0 °C 11,0 °C 75 % 1033,2 hPa 0,0 mm 5,8 km/h (2 Bft) N-NW 333 ° 0 min 0,000 mm 1,4 UV-I 186 W/m² 6,7 °C 6,4 km/h (2 Bft)
29.10.2016 12:46 11,0 °C 11,0 °C 74 % 1033,2 hPa 0,0 mm 4,5 km/h (1 Bft) N 355 ° 0 min 0,000 mm 1,4 UV-I 186 W/m² 6,5 °C 6,4 km/h (2 Bft)
29.10.2016 12:47 11,0 °C 11,0 °C 74 % 1033,2 hPa 0,0 mm 3,3 km/h (1 Bft) N 355 ° 0 min 0,000 mm 1,4 UV-I 190 W/m² 6,5 °C 4,8 km/h (1 Bft)
29.10.2016 12:48 11,1 °C 11,1 °C 77 % 1033,2 hPa 0,0 mm 2,7 km/h (1 Bft) NW 323 ° 0 min 0,000 mm 1,4 UV-I 195 W/m² 7,2 °C 4,8 km/h (1 Bft)
29.10.2016 12:49 11,1 °C 11,1 °C 76 % 1033,1 hPa 0,0 mm 3,8 km/h (1 Bft) NW 323 ° 0 min 0,000 mm 1,4 UV-I 197 W/m² 7,0 °C 4,8 km/h (1 Bft)
29.10.2016 12:50 11,1 °C 11,1 °C 75 % 1033,2 hPa 0,0 mm 5,5 km/h (1 Bft) N 5 ° 0 min 0,000 mm 1,4 UV-I 197 W/m² 6,8 °C 8,0 km/h (2 Bft)
29.10.2016 12:51 11,1 °C 11,1 °C 76 % 1033,1 hPa 0,0 mm 6,7 km/h (2 Bft) N-NO 20 ° 0 min 0,000 mm 1,4 UV-I 192 W/m² 7,0 °C 8,0 km/h (2 Bft)
29.10.2016 12:52 11,1 °C 11,1 °C 74 % 1033,1 hPa 0,0 mm 5,7 km/h (1 Bft) N 9 ° 0 min 0,000 mm 1,4 UV-I 186 W/m² 6,6 °C 6,4 km/h (2 Bft)
29.10.2016 12:53 10,9 °C 11,1 °C 74 % 1033,1 hPa 0,0 mm 3,7 km/h (1 Bft) NW 313 ° 0 min 0,000 mm 1,4 UV-I 188 W/m² 6,5 °C 4,8 km/h (1 Bft)
29.10.2016 12:54 10,9 °C 11,0 °C 76 % 1033,1 hPa 0,0 mm 4,5 km/h (1 Bft) NW 310 ° 0 min 0,000 mm 1,4 UV-I 192 W/m² 6,8 °C 6,4 km/h (2 Bft)
29.10.2016 12:55 11,0 °C 11,0 °C 77 % 1033,0 hPa 0,0 mm 4,3 km/h (1 Bft) N-NO 24 ° 0 min 0,000 mm 1,4 UV-I 193 W/m² 7,1 °C 6,4 km/h (2 Bft)
29.10.2016 12:56 11,0 °C 11,0 °C 77 % 1033,0 hPa 0,0 mm 4,1 km/h (1 Bft) N 5 ° 0 min 0,000 mm 1,4 UV-I 197 W/m² 7,1 °C 6,4 km/h (2 Bft)
29.10.2016 12:57 11,0 °C 11,0 °C 76 % 1033,0 hPa 0,0 mm 2,6 km/h (1 Bft) N 5 ° 0 min 0,000 mm 1,5 UV-I 202 W/m² 6,9 °C 3,2 km/h (1 Bft)
29.10.2016 12:58 11,0 °C 11,0 °C 77 % 1033,0 hPa 0,0 mm 3,2 km/h (1 Bft) N 355 ° 0 min 0,000 mm 1,5 UV-I 207 W/m² 7,1 °C 6,4 km/h (2 Bft)
29.10.2016 12:59 11,0 °C 11,0 °C 77 % 1032,9 hPa 0,0 mm 4,2 km/h (1 Bft) W-NW 290 ° 0 min 0,000 mm 1,5 UV-I 209 W/m² 7,1 °C 6,4 km/h (2 Bft)
29.10.2016 13:00 11,1 °C 11,1 °C 79 % 1032,9 hPa 0,0 mm 2,4 km/h (1 Bft) W-NW 290 ° 0 min 0,000 mm 1,5 UV-I 206 W/m² 7,6 °C 3,2 km/h (1 Bft)
29.10.2016 13:01 11,1 °C 11,1 °C 77 % 1032,9 hPa 0,0 mm 2,3 km/h (1 Bft) N-NW 332 ° 0 min 0,102 mm 1,5 UV-I 204 W/m² 7,2 °C 4,8 km/h (1 Bft)
29.10.2016 13:02 11,2 °C 11,2 °C 77 % 1032,9 hPa 0,0 mm 1,8 km/h (1 Bft) N-NW 332 ° 0 min 0,000 mm 1,4 UV-I 204 W/m² 7,3 °C 3,2 km/h (1 Bft)
29.10.2016 13:03 11,1 °C 11,2 °C 76 % 1032,9 hPa 0,0 mm 3,4 km/h (1 Bft) N-NW 327 ° 0 min 0,000 mm 1,4 UV-I 204 W/m² 7,0 °C 4,8 km/h (1 Bft)
29.10.2016 13:04 11,1 °C 11,1 °C 76 % 1032,9 hPa 0,0 mm 4,3 km/h (1 Bft) N 350 ° 0 min 0,000 mm 1,4 UV-I 204 W/m² 7,0 °C 6,4 km/h (2 Bft)
29.10.2016 13:05 11,1 °C 11,1 °C 78 % 1032,9 hPa 0,0 mm 3,6 km/h (1 Bft) N 5 ° 0 min 0,000 mm 1,4 UV-I 200 W/m² 7,4 °C 4,8 km/h (1 Bft)
29.10.2016 13:06 11,2 °C 11,2 °C 78 % 1032,8 hPa 0,0 mm 2,6 km/h (1 Bft) N 5 ° 0 min 0,000 mm 1,4 UV-I 193 W/m² 7,5 °C 3,2 km/h (1 Bft)
29.10.2016 13:07 11,2 °C 11,2 °C 78 % 1032,8 hPa 0,0 mm 4,6 km/h (1 Bft) N-NO 19 ° 0 min 0,000 mm 1,4 UV-I 192 W/m² 7,5 °C 6,4 km/h (2 Bft)
29.10.2016 13:08 11,1 °C 11,2 °C 76 % 1032,8 hPa 0,0 mm 2,4 km/h (1 Bft) N-NO 19 ° 0 min 0,000 mm 1,4 UV-I 192 W/m² 7,0 °C 4,8 km/h (1 Bft)
29.10.2016 13:09 11,1 °C 11,1 °C 76 % 1032,9 hPa 0,0 mm 4,7 km/h (1 Bft) N-NW 329 ° 0 min 0,000 mm 1,4 UV-I 190 W/m² 7,0 °C 6,4 km/h (2 Bft)
29.10.2016 13:10 11,1 °C 11,1 °C 78 % 1032,8 hPa 0,0 mm 4,1 km/h (1 Bft) N 355 ° 0 min 0,000 mm 1,4 UV-I 190 W/m² 7,4 °C 4,8 km/h (1 Bft)
29.10.2016 13:11 11,2 °C 11,2 °C 77 % 1032,8 hPa 0,0 mm 4,7 km/h (1 Bft) N-NW 338 ° 0 min 0,000 mm 1,4 UV-I 192 W/m² 7,3 °C 6,4 km/h (2 Bft)
29.10.2016 13:12 11,1 °C 11,2 °C 77 % 1032,8 hPa 0,0 mm 5,4 km/h (1 Bft) NW 310 ° 0 min 0,000 mm 1,4 UV-I 186 W/m² 7,2 °C 8,0 km/h (2 Bft)
29.10.2016 13:13 11,2 °C 11,2 °C 77 % 1032,8 hPa 0,0 mm 7,1 km/h (2 Bft) NW 307 ° 0 min 0,000 mm 1,4 UV-I 179 W/m² 7,3 °C 11,3 km/h (2 Bft)
29.10.2016 13:14 11,2 °C 11,2 °C 77 % 1032,7 hPa 0,0 mm 6,2 km/h (2 Bft) W-NW 292 ° 0 min 0,000 mm 1,4 UV-I 176 W/m² 7,3 °C 8,0 km/h (2 Bft)
29.10.2016 13:15 11,2 °C 11,2 °C 78 % 1032,7 hPa 0,0 mm 5,8 km/h (2 Bft) NW 310 ° 0 min 0,000 mm 1,5 UV-I 176 W/m² 7,5 °C 8,0 km/h (2 Bft)
29.10.2016 13:16 11,2 °C 11,2 °C 78 % 1032,7 hPa 0,0 mm 5,2 km/h (1 Bft) W 275 ° 0 min 0,000 mm 1,5 UV-I 178 W/m² 7,5 °C 8,0 km/h (2 Bft)
29.10.2016 13:17 11,3 °C 11,3 °C 79 % 1032,7 hPa 0,0 mm 5,2 km/h (1 Bft) NW 319 ° 0 min 0,000 mm 1,6 UV-I 185 W/m² 7,8 °C 6,4 km/h (2 Bft)
29.10.2016 13:18 11,3 °C 11,3 °C 80 % 1032,7 hPa 0,0 mm 4,0 km/h (1 Bft) W-NW 284 ° 0 min 0,000 mm 1,6 UV-I 207 W/m² 8,0 °C 4,8 km/h (1 Bft)
29.10.2016 13:19 11,3 °C 11,3 °C 78 % 1032,7 hPa 0,0 mm 2,9 km/h (1 Bft) W-NW 303 ° 0 min 0,000 mm 1,7 UV-I 211 W/m² 7,6 °C 4,8 km/h (1 Bft)
29.10.2016 13:20 11,3 °C 11,3 °C 78 % 1032,7 hPa 0,0 mm 5,3 km/h (1 Bft) NW 311 ° 0 min 0,000 mm 1,7 UV-I 213 W/m² 7,6 °C 6,4 km/h (2 Bft)
29.10.2016 13:21 11,4 °C 11,4 °C 77 % 1032,6 hPa 0,0 mm 5,6 km/h (1 Bft) N-NW 340 ° 0 min 0,000 mm 1,7 UV-I 214 W/m² 7,5 °C 8,0 km/h (2 Bft)
29.10.2016 13:22 11,4 °C 11,4 °C 77 % 1032,6 hPa 0,0 mm 4,2 km/h (1 Bft) NW 323 ° 0 min 0,000 mm 1,7 UV-I 218 W/m² 7,5 °C 6,4 km/h (2 Bft)
29.10.2016 13:23 11,4 °C 11,4 °C 78 % 1032,6 hPa 0,0 mm 5,8 km/h (2 Bft) NW 321 ° 0 min 0,000 mm 1,7 UV-I 230 W/m² 7,7 °C 8,0 km/h (2 Bft)
29.10.2016 13:24 11,4 °C 11,4 °C 76 % 1032,7 hPa 0,0 mm 3,0 km/h (1 Bft) NW 321 ° 0 min 0,000 mm 1,7 UV-I 220 W/m² 7,3 °C 4,8 km/h (1 Bft)
29.10.2016 13:25 11,5 °C 11,5 °C 78 % 1032,6 hPa 0,0 mm 3,4 km/h (1 Bft) W-NW 288 ° 0 min 0,000 mm 1,7 UV-I 213 W/m² 7,8 °C 4,8 km/h (1 Bft)
29.10.2016 13:26 11,5 °C 11,5 °C 76 % 1032,6 hPa 0,0 mm 3,3 km/h (1 Bft) W-NW 296 ° 0 min 0,000 mm 1,7 UV-I 209 W/m² 7,4 °C 4,8 km/h (1 Bft)
29.10.2016 13:27 11,4 °C 11,5 °C 76 % 1032,6 hPa 0,0 mm 4,2 km/h (1 Bft) NW 315 ° 0 min 0,000 mm 1,7 UV-I 211 W/m² 7,3 °C 6,4 km/h (2 Bft)
29.10.2016 13:28 11,5 °C 11,5 °C 77 % 1032,6 hPa 0,0 mm 5,0 km/h (1 Bft) W-NW 302 ° 0 min 0,000 mm 1,7 UV-I 209 W/m² 7,6 °C 6,4 km/h (2 Bft)
29.10.2016 13:29 11,4 °C 11,5 °C 77 % 1032,6 hPa 0,0 mm 6,7 km/h (2 Bft) W-NW 298 ° 0 min 0,000 mm 1,7 UV-I 209 W/m² 7,5 °C 8,0 km/h (2 Bft)
29.10.2016 13:30 11,5 °C 11,5 °C 78 % 1032,5 hPa 0,0 mm 6,9 km/h (2 Bft) NW 317 ° 0 min 0,000 mm 1,7 UV-I 221 W/m² 7,8 °C 11,3 km/h (2 Bft)
29.10.2016 13:31 11,5 °C 11,5 °C 75 % 1032,5 hPa 0,0 mm 4,3 km/h (1 Bft) NW 309 ° 0 min 0,000 mm 1,7 UV-I 216 W/m² 7,2 °C 6,4 km/h (2 Bft)
29.10.2016 13:32 11,6 °C 11,6 °C 77 % 1032,5 hPa 0,0 mm 5,5 km/h (1 Bft) NW 304 ° 0 min 0,000 mm 1,7 UV-I 220 W/m² 7,7 °C 8,0 km/h (2 Bft)
29.10.2016 13:33 11,5 °C 11,6 °C 76 % 1032,5 hPa 0,0 mm 4,8 km/h (1 Bft) N-NW 327 ° 0 min 0,000 mm 1,8 UV-I 239 W/m² 7,4 °C 6,4 km/h (2 Bft)
29.10.2016 13:34 11,6 °C 11,6 °C 76 % 1032,5 hPa 0,0 mm 5,2 km/h (1 Bft) W-NW 291 ° 0 min 0,000 mm 1,9 UV-I 255 W/m² 7,5 °C 6,4 km/h (2 Bft)
29.10.2016 13:35 11,6 °C 11,6 °C 77 % 1032,5 hPa 0,0 mm 6,6 km/h (2 Bft) NW 309 ° 0 min 0,000 mm 1,9 UV-I 258 W/m² 7,7 °C 11,3 km/h (2 Bft)
29.10.2016 13:36 11,7 °C 11,7 °C 79 % 1032,4 hPa 0,0 mm 5,9 km/h (2 Bft) N 11 ° 0 min 0,000 mm 1,8 UV-I 244 W/m² 8,2 °C 11,3 km/h (2 Bft)
29.10.2016 13:37 11,7 °C 11,7 °C 78 % 1032,5 hPa 0,0 mm 4,0 km/h (1 Bft) N-NW 344 ° 0 min 0,000 mm 1,8 UV-I 236 W/m² 8,0 °C 4,8 km/h (1 Bft)
29.10.2016 13:38 11,7 °C 11,7 °C 76 % 1032,5 hPa 0,0 mm 2,7 km/h (1 Bft) W-NW 290 ° 0 min 0,000 mm 1,7 UV-I 221 W/m² 7,6 °C 4,8 km/h (1 Bft)
29.10.2016 13:39 11,7 °C 11,7 °C 77 % 1032,4 hPa 0,0 mm 2,4 km/h (1 Bft) NW 310 ° 0 min 0,000 mm 1,7 UV-I 225 W/m² 7,8 °C 4,8 km/h (1 Bft)
29.10.2016 13:40 11,6 °C 11,7 °C 77 % 1032,4 hPa 0,0 mm 2,6 km/h (1 Bft) NW 321 ° 0 min 0,000 mm 1,7 UV-I 234 W/m² 7,7 °C 4,8 km/h (1 Bft)
29.10.2016 13:41 11,6 °C 11,6 °C 77 % 1032,4 hPa 0,0 mm 3,2 km/h (1 Bft) N 355 ° 0 min 0,000 mm 1,8 UV-I 243 W/m² 7,7 °C 4,8 km/h (1 Bft)
29.10.2016 13:42 11,6 °C 11,6 °C 78 % 1032,4 hPa 0,0 mm 3,8 km/h (1 Bft) N 5 ° 0 min 0,000 mm 1,8 UV-I 251 W/m² 7,9 °C 4,8 km/h (1 Bft)
29.10.2016 13:43 11,7 °C 11,7 °C 77 % 1032,4 hPa 0,0 mm 4,4 km/h (1 Bft) NW 311 ° 0 min 0,000 mm 1,7 UV-I 246 W/m² 7,8 °C 8,0 km/h (2 Bft)
29.10.2016 13:44 11,7 °C 11,7 °C 76 % 1032,4 hPa 0,0 mm 4,5 km/h (1 Bft) NW 325 ° 0 min 0,000 mm 1,7 UV-I 239 W/m² 7,6 °C 6,4 km/h (2 Bft)
29.10.2016 13:45 11,7 °C 11,7 °C 76 % 1032,4 hPa 0,0 mm 4,2 km/h (1 Bft) W-NW 298 ° 0 min 0,000 mm 1,7 UV-I 237 W/m² 7,6 °C 6,4 km/h (2 Bft)
29.10.2016 13:46 11,7 °C 11,7 °C 78 % 1032,4 hPa 0,0 mm 5,0 km/h (1 Bft) N-NW 333 ° 0 min 0,000 mm 1,7 UV-I 251 W/m² 8,0 °C 8,0 km/h (2 Bft)
29.10.2016 13:47 11,7 °C 11,7 °C 76 % 1032,4 hPa 0,0 mm 3,3 km/h (1 Bft) N 360 ° 0 min 0,000 mm 1,7 UV-I 253 W/m² 7,6 °C 4,8 km/h (1 Bft)
29.10.2016 13:48 11,7 °C 11,7 °C 78 % 1032,4 hPa 0,0 mm 3,8 km/h (1 Bft) N-NW 338 ° 0 min 0,000 mm 1,7 UV-I 237 W/m² 8,0 °C 4,8 km/h (1 Bft)
29.10.2016 13:49 11,7 °C 11,8 °C 77 % 1032,3 hPa 0,0 mm 2,1 km/h (1 Bft) NO 47 ° 0 min 0,000 mm 1,6 UV-I 236 W/m² 7,8 °C 3,2 km/h (1 Bft)
29.10.2016 13:50 11,7 °C 11,8 °C 77 % 1032,4 hPa 0,0 mm 2,2 km/h (1 Bft) N-NO 13 ° 0 min 0,000 mm 1,6 UV-I 232 W/m² 7,8 °C 4,8 km/h (1 Bft)
29.10.2016 13:51 11,7 °C 11,7 °C 76 % 1032,3 hPa 0,0 mm 4,2 km/h (1 Bft) N-NO 13 ° 0 min 0,000 mm 1,6 UV-I 229 W/m² 7,6 °C 6,4 km/h (2 Bft)
29.10.2016 13:52 11,7 °C 11,7 °C 75 % 1032,3 hPa 0,0 mm 4,8 km/h (1 Bft) N 360 ° 0 min 0,000 mm 1,6 UV-I 218 W/m² 7,4 °C 6,4 km/h (2 Bft)
29.10.2016 13:53 11,7 °C 11,7 °C 77 % 1032,2 hPa 0,0 mm 4,3 km/h (1 Bft) N-NW 347 ° 0 min 0,000 mm 1,6 UV-I 221 W/m² 7,8 °C 6,4 km/h (2 Bft)
29.10.2016 13:54 11,7 °C 11,7 °C 78 % 1032,2 hPa 0,0 mm 4,4 km/h (1 Bft) N-NW 330 ° 0 min 0,000 mm 1,6 UV-I 229 W/m² 8,0 °C 6,4 km/h (2 Bft)
29.10.2016 13:55 11,7 °C 11,7 °C 76 % 1032,2 hPa 0,0 mm 5,8 km/h (2 Bft) NW 317 ° 0 min 0,000 mm 1,7 UV-I 243 W/m² 7,6 °C 8,0 km/h (2 Bft)
29.10.2016 13:56 11,8 °C 11,8 °C 78 % 1032,2 hPa 0,0 mm 4,1 km/h (1 Bft) NW 321 ° 0 min 0,000 mm 1,7 UV-I 244 W/m² 8,1 °C 6,4 km/h (2 Bft)
29.10.2016 13:57 11,8 °C 11,8 °C 78 % 1032,2 hPa 0,0 mm 6,6 km/h (2 Bft) NW 304 ° 0 min 0,000 mm 1,7 UV-I 236 W/m² 8,1 °C 8,0 km/h (2 Bft)
29.10.2016 13:58 11,8 °C 11,8 °C 77 % 1032,2 hPa 0,0 mm 4,3 km/h (1 Bft) NW 318 ° 0 min 0,000 mm 1,6 UV-I 229 W/m² 7,9 °C 6,4 km/h (2 Bft)
29.10.2016 13:59 11,9 °C 11,9 °C 79 % 1032,2 hPa 0,0 mm 3,3 km/h (1 Bft) W-NW 298 ° 0 min 0,000 mm 1,6 UV-I 211 W/m² 8,4 °C 6,4 km/h (2 Bft)
29.10.2016 14:00 11,9 °C 11,9 °C 78 % 1032,2 hPa 0,0 mm 4,5 km/h (1 Bft) W 277 ° 0 min 0,000 mm 1,6 UV-I 214 W/m² 8,2 °C 6,4 km/h (2 Bft)
29.10.2016 14:01 11,9 °C 11,9 °C 77 % 1032,2 hPa 0,0 mm 6,3 km/h (2 Bft) W-NW 287 ° 0 min 0,127 mm 1,6 UV-I 225 W/m² 8,0 °C 9,7 km/h (2 Bft)
29.10.2016 14:02 11,9 °C 11,9 °C 77 % 1032,2 hPa 0,0 mm 4,8 km/h (1 Bft) W-SW 240 ° 0 min 0,000 mm 1,6 UV-I 230 W/m² 8,0 °C 6,4 km/h (2 Bft)
29.10.2016 14:03 11,8 °C 11,9 °C 76 % 1032,1 hPa 0,0 mm 6,7 km/h (2 Bft) W 277 ° 0 min 0,000 mm 1,6 UV-I 236 W/m² 7,7 °C 9,7 km/h (2 Bft)
29.10.2016 14:04 11,8 °C 11,9 °C 78 % 1032,1 hPa 0,0 mm 3,6 km/h (1 Bft) W 270 ° 0 min 0,000 mm 1,6 UV-I 237 W/m² 8,1 °C 6,4 km/h (2 Bft)
29.10.2016 14:05 11,8 °C 11,8 °C 78 % 1032,1 hPa 0,0 mm 3,2 km/h (1 Bft) W-SW 246 ° 0 min 0,000 mm 1,5 UV-I 218 W/m² 8,1 °C 6,4 km/h (2 Bft)
29.10.2016 14:06 11,8 °C 11,9 °C 78 % 1032,1 hPa 0,0 mm 4,6 km/h (1 Bft) W 261 ° 0 min 0,000 mm 1,5 UV-I 218 W/m² 8,1 °C 8,0 km/h (2 Bft)
29.10.2016 14:07 11,8 °C 11,9 °C 77 % 1032,0 hPa 0,0 mm 3,7 km/h (1 Bft) W 271 ° 0 min 0,000 mm 1,4 UV-I 221 W/m² 7,9 °C 4,8 km/h (1 Bft)
29.10.2016 14:08 11,8 °C 11,8 °C 78 % 1032,0 hPa 0,0 mm 3,9 km/h (1 Bft) NW 323 ° 0 min 0,000 mm 1,4 UV-I 225 W/m² 8,1 °C 6,4 km/h (2 Bft)
29.10.2016 14:09 11,9 °C 11,9 °C 79 % 1032,0 hPa 0,0 mm 5,3 km/h (1 Bft) N-NW 335 ° 0 min 0,000 mm 1,4 UV-I 223 W/m² 8,4 °C 6,4 km/h (2 Bft)
29.10.2016 14:10 11,9 °C 11,9 °C 80 % 1032,0 hPa 0,0 mm 7,4 km/h (2 Bft) N-NW 328 ° 0 min 0,000 mm 1,4 UV-I 223 W/m² 8,6 °C 12,9 km/h (3 Bft)
29.10.2016 14:11 11,9 °C 12,0 °C 81 % 1032,1 hPa 0,0 mm 8,4 km/h (2 Bft) NW 312 ° 0 min 0,000 mm 1,4 UV-I 206 W/m² 8,7 °C 11,3 km/h (2 Bft)
29.10.2016 14:12 12,0 °C 12,0 °C 81 % 1032,0 hPa 0,0 mm 6,8 km/h (2 Bft) W 274 ° 0 min 0,000 mm 1,4 UV-I 185 W/m² 8,8 °C 11,3 km/h (2 Bft)
29.10.2016 14:13 12,0 °C 12,0 °C 80 % 1032,1 hPa 0,0 mm 10,0 km/h (2 Bft) W-NW 301 ° 0 min 0,000 mm 1,3 UV-I 171 W/m² 8,7 °C 14,5 km/h (3 Bft)
29.10.2016 14:14 11,9 °C 12,0 °C 79 % 1032,1 hPa 0,0 mm 9,9 km/h (2 Bft) NW 304 ° 0 min 0,000 mm 1,3 UV-I 162 W/m² 8,4 °C 12,9 km/h (3 Bft)
29.10.2016 14:15 11,8 °C 11,9 °C 80 % 1032,0 hPa 0,0 mm 8,5 km/h (2 Bft) N 350 ° 0 min 0,000 mm 1,4 UV-I 163 W/m² 8,5 °C 14,5 km/h (3 Bft)
29.10.2016 14:16 11,7 °C 11,8 °C 80 % 1032,0 hPa 0,0 mm 4,0 km/h (1 Bft) N 350 ° 0 min 0,000 mm 1,4 UV-I 171 W/m² 8,4 °C 6,4 km/h (2 Bft)
29.10.2016 14:17 11,6 °C 11,7 °C 80 % 1031,9 hPa 0,0 mm 5,4 km/h (1 Bft) N-NW 331 ° 0 min 0,000 mm 1,5 UV-I 174 W/m² 8,3 °C 6,4 km/h (2 Bft)
29.10.2016 14:18 11,6 °C 11,6 °C 80 % 1032,0 hPa 0,0 mm 5,5 km/h (1 Bft) NW 324 ° 0 min 0,000 mm 1,5 UV-I 171 W/m² 8,3 °C 8,0 km/h (2 Bft)
29.10.2016 14:19 11,5 °C 11,6 °C 81 % 1031,9 hPa 0,0 mm 3,3 km/h (1 Bft) W-NW 300 ° 0 min 0,000 mm 1,5 UV-I 172 W/m² 8,4 °C 4,8 km/h (1 Bft)
29.10.2016 14:20 11,5 °C 11,5 °C 81 % 1031,9 hPa 0,0 mm 4,6 km/h (1 Bft) N 350 ° 0 min 0,000 mm 1,5 UV-I 179 W/m² 8,4 °C 8,0 km/h (2 Bft)
29.10.2016 14:21 11,4 °C 11,5 °C 81 % 1031,9 hPa 0,0 mm 4,3 km/h (1 Bft) N-NW 338 ° 0 min 0,000 mm 1,6 UV-I 190 W/m² 8,3 °C 8,0 km/h (2 Bft)
29.10.2016 14:22 11,4 °C 11,4 °C 82 % 1031,9 hPa 0,0 mm 2,4 km/h (1 Bft) N-NW 337 ° 0 min 0,000 mm 1,6 UV-I 197 W/m² 8,4 °C 4,8 km/h (1 Bft)
29.10.2016 14:23 11,4 °C 11,4 °C 82 % 1031,9 hPa 0,0 mm 5,0 km/h (1 Bft) N-NW 336 ° 0 min 0,000 mm 1,6 UV-I 197 W/m² 8,4 °C 8,0 km/h (2 Bft)
29.10.2016 14:24 11,5 °C 11,5 °C 82 % 1031,9 hPa 0,0 mm 3,8 km/h (1 Bft) N-NW 333 ° 0 min 0,000 mm 1,6 UV-I 209 W/m² 8,5 °C 6,4 km/h (2 Bft)
29.10.2016 14:25 11,5 °C 11,5 °C 81 % 1031,9 hPa 0,0 mm 6,6 km/h (2 Bft) NW 325 ° 0 min 0,000 mm 1,6 UV-I 211 W/m² 8,4 °C 11,3 km/h (2 Bft)
29.10.2016 14:26 11,4 °C 11,5 °C 83 % 1031,9 hPa 0,0 mm 4,4 km/h (1 Bft) N-NW 342 ° 0 min 0,000 mm 1,6 UV-I 211 W/m² 8,6 °C 6,4 km/h (2 Bft)
29.10.2016 14:27 11,5 °C 11,5 °C 83 % 1031,9 hPa 0,0 mm 4,8 km/h (1 Bft) NW 323 ° 0 min 0,000 mm 1,6 UV-I 237 W/m² 8,7 °C 6,4 km/h (2 Bft)
29.10.2016 14:28 11,5 °C 11,5 °C 81 % 1031,9 hPa 0,0 mm 5,6 km/h (1 Bft) N-NW 341 ° 0 min 0,000 mm 1,6 UV-I 230 W/m² 8,4 °C 6,4 km/h (2 Bft)
29.10.2016 14:29 11,5 °C 11,5 °C 81 % 1031,9 hPa 0,0 mm 2,5 km/h (1 Bft) N-NW 343 ° 0 min 0,000 mm 1,6 UV-I 237 W/m² 8,4 °C 6,4 km/h (2 Bft)
29.10.2016 14:30 11,4 °C 11,5 °C 81 % 1031,9 hPa 0,0 mm 2,6 km/h (1 Bft) N 360 ° 1 min 0,000 mm 1,6 UV-I 285 W/m² 8,3 °C 4,8 km/h (1 Bft)
29.10.2016 14:31 11,3 °C 11,4 °C 80 % 1031,9 hPa 0,0 mm 3,8 km/h (1 Bft) NO 36 ° 1 min 0,000 mm 1,6 UV-I 246 W/m² 8,0 °C 4,8 km/h (1 Bft)
29.10.2016 14:32 11,4 °C 11,4 °C 82 % 1031,8 hPa 0,0 mm 3,4 km/h (1 Bft) N 350 ° 1 min 0,000 mm 1,6 UV-I 260 W/m² 8,4 °C 4,8 km/h (1 Bft)
29.10.2016 14:33 11,5 °C 11,5 °C 83 % 1031,9 hPa 0,0 mm 4,2 km/h (1 Bft) NW 322 ° 0 min 0,000 mm 1,5 UV-I 229 W/m² 8,7 °C 6,4 km/h (2 Bft)
29.10.2016 14:34 11,6 °C 11,6 °C 82 % 1031,8 hPa 0,0 mm 3,6 km/h (1 Bft) N-NW 327 ° 0 min 0,000 mm 1,4 UV-I 218 W/m² 8,6 °C 6,4 km/h (2 Bft)
29.10.2016 14:35 11,7 °C 11,7 °C 82 % 1031,8 hPa 0,0 mm 6,2 km/h (2 Bft) NW 317 ° 0 min 0,000 mm 1,3 UV-I 216 W/m² 8,7 °C 14,5 km/h (3 Bft)
29.10.2016 14:36 11,6 °C 11,7 °C 81 % 1031,9 hPa 0,0 mm 7,7 km/h (2 Bft) NW 304 ° 0 min 0,000 mm 1,3 UV-I 211 W/m² 8,5 °C 11,3 km/h (2 Bft)
29.10.2016 14:37 11,6 °C 11,6 °C 81 % 1031,9 hPa 0,0 mm 5,8 km/h (2 Bft) N 350 ° 0 min 0,000 mm 1,3 UV-I 209 W/m² 8,5 °C 8,0 km/h (2 Bft)
29.10.2016 14:38 11,6 °C 11,6 °C 82 % 1031,8 hPa 0,0 mm 4,0 km/h (1 Bft) W-NW 299 ° 0 min 0,000 mm 1,3 UV-I 213 W/m² 8,6 °C 4,8 km/h (1 Bft)
29.10.2016 14:39 11,6 °C 11,6 °C 81 % 1031,9 hPa 0,0 mm 5,7 km/h (1 Bft) NW 305 ° 0 min 0,000 mm 1,3 UV-I 209 W/m² 8,5 °C 8,0 km/h (2 Bft)
29.10.2016 14:40 11,6 °C 11,6 °C 81 % 1031,8 hPa 0,0 mm 7,0 km/h (2 Bft) N-NO 29 ° 0 min 0,000 mm 1,3 UV-I 192 W/m² 8,5 °C 9,7 km/h (2 Bft)
29.10.2016 14:41 11,5 °C 11,6 °C 81 % 1031,9 hPa 0,0 mm 7,2 km/h (2 Bft) NW 316 ° 0 min 0,000 mm 1,2 UV-I 178 W/m² 8,4 °C 12,9 km/h (3 Bft)
29.10.2016 14:42 11,5 °C 11,5 °C 81 % 1031,8 hPa 0,0 mm 5,2 km/h (1 Bft) NW 315 ° 0 min 0,000 mm 1,1 UV-I 165 W/m² 8,4 °C 8,0 km/h (2 Bft)
29.10.2016 14:43 11,4 °C 11,5 °C 83 % 1031,7 hPa 0,0 mm 3,5 km/h (1 Bft) N-NW 328 ° 0 min 0,000 mm 1,1 UV-I 155 W/m² 8,6 °C 4,8 km/h (1 Bft)
29.10.2016 14:44 11,4 °C 11,5 °C 82 % 1031,8 hPa 0,0 mm 3,6 km/h (1 Bft) NW 305 ° 0 min 0,000 mm 1,1 UV-I 146 W/m² 8,4 °C 8,0 km/h (2 Bft)
29.10.2016 14:45 11,4 °C 11,4 °C 82 % 1031,8 hPa 0,0 mm 5,4 km/h (1 Bft) W-NW 284 ° 0 min 0,000 mm 1,0 UV-I 144 W/m² 8,4 °C 9,7 km/h (2 Bft)
29.10.2016 14:46 11,4 °C 11,4 °C 82 % 1031,7 hPa 0,0 mm 5,2 km/h (1 Bft) W-NW 283 ° 0 min 0,000 mm 1,0 UV-I 151 W/m² 8,4 °C 9,7 km/h (2 Bft)
29.10.2016 14:47 11,3 °C 11,4 °C 81 % 1031,7 hPa 0,0 mm 2,6 km/h (1 Bft) W-NW 298 ° 0 min 0,000 mm 1,1 UV-I 151 W/m² 8,2 °C 3,2 km/h (1 Bft)
29.10.2016 14:48 11,2 °C 11,3 °C 82 % 1031,7 hPa 0,0 mm 1,6 km/h (1 Bft) N-NW 329 ° 0 min 0,000 mm 1,0 UV-I 151 W/m² 8,2 °C 3,2 km/h (1 Bft)
29.10.2016 14:49 11,2 °C 11,3 °C 82 % 1031,7 hPa 0,0 mm 5,0 km/h (1 Bft) N 360 ° 0 min 0,000 mm 1,0 UV-I 151 W/m² 8,2 °C 8,0 km/h (2 Bft)
29.10.2016 14:50 11,2 °C 11,3 °C 83 % 1031,7 hPa 0,0 mm 4,2 km/h (1 Bft) W-NW 296 ° 0 min 0,000 mm 1,0 UV-I 142 W/m² 8,4 °C 6,4 km/h (2 Bft)
29.10.2016 14:51 11,3 °C 11,3 °C 84 % 1031,7 hPa 0,0 mm 5,6 km/h (1 Bft) NW 325 ° 0 min 0,000 mm 0,9 UV-I 134 W/m² 8,7 °C 8,0 km/h (2 Bft)
29.10.2016 14:52 11,3 °C 11,3 °C 83 % 1031,7 hPa 0,0 mm 5,3 km/h (1 Bft) NW 326 ° 0 min 0,000 mm 0,8 UV-I 128 W/m² 8,5 °C 6,4 km/h (2 Bft)
29.10.2016 14:53 11,2 °C 11,3 °C 82 % 1031,7 hPa 0,0 mm 5,2 km/h (1 Bft) W-NW 303 ° 0 min 0,000 mm 0,8 UV-I 130 W/m² 8,2 °C 6,4 km/h (2 Bft)
29.10.2016 14:54 11,2 °C 11,2 °C 83 % 1031,7 hPa 0,0 mm 6,3 km/h (2 Bft) NW 312 ° 0 min 0,000 mm 0,8 UV-I 130 W/m² 8,4 °C 8,0 km/h (2 Bft)
29.10.2016 14:55 11,1 °C 11,2 °C 82 % 1031,7 hPa 0,0 mm 4,6 km/h (1 Bft) W-NW 291 ° 0 min 0,000 mm 0,8 UV-I 123 W/m² 8,1 °C 6,4 km/h (2 Bft)
29.10.2016 14:56 11,1 °C 11,1 °C 83 % 1031,7 hPa 0,0 mm 5,8 km/h (2 Bft) W-NW 292 ° 0 min 0,000 mm 0,7 UV-I 116 W/m² 8,3 °C 11,3 km/h (2 Bft)
29.10.2016 14:57 11,0 °C 11,1 °C 83 % 1031,6 hPa 0,0 mm 6,7 km/h (2 Bft) W-NW 300 ° 0 min 0,000 mm 0,7 UV-I 109 W/m² 8,2 °C 9,7 km/h (2 Bft)
29.10.2016 14:58 11,0 °C 11,0 °C 83 % 1031,6 hPa 0,0 mm 5,0 km/h (1 Bft) N-NW 340 ° 0 min 0,000 mm 0,7 UV-I 109 W/m² 8,2 °C 8,0 km/h (2 Bft)
29.10.2016 14:59 10,9 °C 11,0 °C 82 % 1031,6 hPa 0,0 mm 5,9 km/h (2 Bft) NW 316 ° 0 min 0,000 mm 0,7 UV-I 109 W/m² 7,9 °C 8,0 km/h (2 Bft)
29.10.2016 15:00 10,9 °C 10,9 °C 83 % 1031,6 hPa 0,0 mm 3,2 km/h (1 Bft) N-NW 333 ° 0 min 0,000 mm 0,7 UV-I 107 W/m² 8,1 °C 4,8 km/h (1 Bft)
29.10.2016 15:01 10,8 °C 10,9 °C 83 % 1031,6 hPa 0,0 mm 4,4 km/h (1 Bft) NW 315 ° 0 min 0,101 mm 0,7 UV-I 107 W/m² 8,0 °C 4,8 km/h (1 Bft)
29.10.2016 15:02 10,8 °C 10,8 °C 84 % 1031,5 hPa 0,0 mm 7,1 km/h (2 Bft) W-NW 302 ° 0 min 0,000 mm 0,7 UV-I 107 W/m² 8,2 °C 11,3 km/h (2 Bft)
29.10.2016 15:03 10,8 °C 10,8 °C 83 % 1031,5 hPa 0,0 mm 6,0 km/h (2 Bft) NW 318 ° 0 min 0,000 mm 0,7 UV-I 105 W/m² 8,0 °C 11,3 km/h (2 Bft)
29.10.2016 15:04 10,8 °C 10,8 °C 83 % 1031,6 hPa 0,0 mm 4,4 km/h (1 Bft) N-NW 338 ° 0 min 0,000 mm 0,6 UV-I 97 W/m² 8,0 °C 6,4 km/h (2 Bft)
29.10.2016 15:05 10,8 °C 10,8 °C 84 % 1031,6 hPa 0,0 mm 7,6 km/h (2 Bft) N 360 ° 0 min 0,000 mm 0,6 UV-I 91 W/m² 8,2 °C 9,7 km/h (2 Bft)
29.10.2016 15:06 10,8 °C 10,8 °C 84 % 1031,6 hPa 0,0 mm 5,7 km/h (1 Bft) NW 304 ° 0 min 0,000 mm 0,6 UV-I 91 W/m² 8,2 °C 8,0 km/h (2 Bft)
29.10.2016 15:07 10,8 °C 10,8 °C 84 % 1031,7 hPa 0,0 mm 5,8 km/h (2 Bft) N-NW 327 ° 0 min 0,000 mm 0,6 UV-I 95 W/m² 8,2 °C 9,7 km/h (2 Bft)
29.10.2016 15:08 10,8 °C 10,8 °C 84 % 1031,6 hPa 0,0 mm 4,0 km/h (1 Bft) NW 325 ° 0 min 0,000 mm 0,6 UV-I 100 W/m² 8,2 °C 8,0 km/h (2 Bft)
29.10.2016 15:09 10,8 °C 10,8 °C 85 % 1031,6 hPa 0,0 mm 2,7 km/h (1 Bft) N-NO 12 ° 0 min 0,000 mm 0,7 UV-I 111 W/m² 8,4 °C 4,8 km/h (1 Bft)
29.10.2016 15:10 10,8 °C 10,8 °C 85 % 1031,7 hPa 0,0 mm 4,6 km/h (1 Bft) N-NW 346 ° 0 min 0,000 mm 0,7 UV-I 116 W/m² 8,4 °C 4,8 km/h (1 Bft)
29.10.2016 15:11 10,8 °C 10,8 °C 85 % 1031,6 hPa 0,0 mm 6,0 km/h (2 Bft) N-NW 330 ° 0 min 0,000 mm 0,7 UV-I 116 W/m² 8,4 °C 9,7 km/h (2 Bft)
29.10.2016 15:12 10,9 °C 10,9 °C 84 % 1031,6 hPa 0,0 mm 5,8 km/h (2 Bft) N 355 ° 0 min 0,000 mm 0,8 UV-I 116 W/m² 8,3 °C 9,7 km/h (2 Bft)
29.10.2016 15:13 10,8 °C 10,9 °C 84 % 1031,6 hPa 0,0 mm 3,0 km/h (1 Bft) W-NW 301 ° 0 min 0,000 mm 0,8 UV-I 113 W/m² 8,2 °C 6,4 km/h (2 Bft)
29.10.2016 15:14 10,8 °C 10,8 °C 84 % 1031,6 hPa 0,0 mm 4,3 km/h (1 Bft) N 355 ° 0 min 0,000 mm 0,7 UV-I 109 W/m² 8,2 °C 6,4 km/h (2 Bft)
29.10.2016 15:15 10,8 °C 10,8 °C 84 % 1031,6 hPa 0,0 mm 4,1 km/h (1 Bft) NW 324 ° 0 min 0,000 mm 0,7 UV-I 98 W/m² 8,2 °C 6,4 km/h (2 Bft)
29.10.2016 15:16 10,7 °C 10,8 °C 85 % 1031,7 hPa 0,0 mm 4,0 km/h (1 Bft) N-NW 342 ° 0 min 0,000 mm 0,6 UV-I 93 W/m² 8,3 °C 6,4 km/h (2 Bft)
29.10.2016 15:17 10,7 °C 10,7 °C 85 % 1031,7 hPa 0,0 mm 5,8 km/h (2 Bft) N 349 ° 0 min 0,000 mm 0,6 UV-I 93 W/m² 8,3 °C 9,7 km/h (2 Bft)
29.10.2016 15:18 10,7 °C 10,7 °C 85 % 1031,7 hPa 0,0 mm 7,4 km/h (2 Bft) W-NW 286 ° 0 min 0,000 mm 0,6 UV-I 93 W/m² 8,3 °C 12,9 km/h (3 Bft)
29.10.2016 15:19 10,6 °C 10,7 °C 85 % 1031,7 hPa 0,0 mm 6,1 km/h (2 Bft) NW 325 ° 0 min 0,000 mm 0,6 UV-I 91 W/m² 8,2 °C 11,3 km/h (2 Bft)
29.10.2016 15:20 10,6 °C 10,7 °C 86 % 1031,7 hPa 0,0 mm 2,8 km/h (1 Bft) N 5 ° 0 min 0,000 mm 0,6 UV-I 84 W/m² 8,4 °C 4,8 km/h (1 Bft)
29.10.2016 15:21 10,6 °C 10,6 °C 86 % 1031,7 hPa 0,0 mm 4,4 km/h (1 Bft) NW 308 ° 0 min 0,000 mm 0,6 UV-I 79 W/m² 8,4 °C 8,0 km/h (2 Bft)
29.10.2016 15:22 10,6 °C 10,6 °C 86 % 1031,7 hPa 0,0 mm 5,1 km/h (1 Bft) NW 313 ° 0 min 0,000 mm 0,6 UV-I 77 W/m² 8,4 °C 6,4 km/h (2 Bft)
29.10.2016 15:23 10,6 °C 10,6 °C 86 % 1031,7 hPa 0,0 mm 6,0 km/h (2 Bft) NW 304 ° 0 min 0,000 mm 0,6 UV-I 76 W/m² 8,4 °C 11,3 km/h (2 Bft)
29.10.2016 15:24 10,4 °C 10,6 °C 86 % 1031,7 hPa 0,0 mm 4,5 km/h (1 Bft) N-NW 342 ° 0 min 0,000 mm 0,6 UV-I 77 W/m² 8,2 °C 4,8 km/h (1 Bft)
29.10.2016 15:25 10,4 °C 10,4 °C 87 % 1031,7 hPa 0,0 mm 6,6 km/h (2 Bft) N-NO 16 ° 0 min 0,000 mm 0,6 UV-I 83 W/m² 8,3 °C 9,7 km/h (2 Bft)
29.10.2016 15:26 10,4 °C 10,4 °C 87 % 1031,8 hPa 0,0 mm 6,6 km/h (2 Bft) NO 34 ° 0 min 0,000 mm 0,6 UV-I 83 W/m² 8,3 °C 11,3 km/h (2 Bft)
29.10.2016 15:27 10,3 °C 10,4 °C 87 % 1031,7 hPa 0,0 mm 4,8 km/h (1 Bft) N-NO 14 ° 0 min 0,000 mm 0,5 UV-I 69 W/m² 8,2 °C 14,5 km/h (3 Bft)
29.10.2016 15:28 10,3 °C 10,3 °C 87 % 1031,7 hPa 0,0 mm 8,0 km/h (2 Bft) N-NW 342 ° 0 min 0,000 mm 0,0 UV-I 58 W/m² 8,2 °C 14,5 km/h (3 Bft)
29.10.2016 15:29 10,2 °C 10,3 °C 87 % 1031,7 hPa 0,0 mm 5,1 km/h (1 Bft) N 9 ° 0 min 0,000 mm 0,0 UV-I 53 W/m² 8,1 °C 8,0 km/h (2 Bft)
29.10.2016 15:30 10,2 °C 10,2 °C 88 % 1031,7 hPa 0,0 mm 4,4 km/h (1 Bft) N-NW 337 ° 0 min 0,000 mm 0,0 UV-I 54 W/m² 8,3 °C 6,4 km/h (2 Bft)
29.10.2016 15:31 10,1 °C 10,2 °C 88 % 1031,7 hPa 0,0 mm 7,6 km/h (2 Bft) N-NO 18 ° 0 min 0,000 mm 0,0 UV-I 54 W/m² 8,2 °C 11,3 km/h (2 Bft)
29.10.2016 15:32 10,0 °C 10,1 °C 88 % 1031,8 hPa 0,0 mm 6,4 km/h (2 Bft) N 9 ° 0 min 0,000 mm 0,0 UV-I 58 W/m² 8,1 °C 12,9 km/h (3 Bft)
29.10.2016 15:33 9,9 °C 10,0 °C 88 % 1031,8 hPa 0,0 mm 6,9 km/h (2 Bft) N-NW 335 ° 0 min 0,000 mm 0,0 UV-I 62 W/m² 8,0 °C 11,3 km/h (2 Bft)
29.10.2016 15:34 9,9 °C 9,9 °C 88 % 1031,8 hPa 0,0 mm 2,7 km/h (1 Bft) N-NW 333 ° 0 min 0,000 mm 0,0 UV-I 60 W/m² 8,0 °C 6,4 km/h (2 Bft)
29.10.2016 15:35 9,8 °C 9,9 °C 89 % 1031,8 hPa 0,0 mm 1,9 km/h (1 Bft) N-NO 20 ° 0 min 0,000 mm 0,0 UV-I 58 W/m² 8,1 °C 3,2 km/h (1 Bft)
29.10.2016 15:36 9,7 °C 9,8 °C 89 % 1031,8 hPa 0,0 mm 2,7 km/h (1 Bft) N-NW 334 ° 0 min 0,000 mm 0,0 UV-I 54 W/m² 8,0 °C 3,2 km/h (1 Bft)
29.10.2016 15:37 9,7 °C 9,8 °C 89 % 1031,7 hPa 0,0 mm 2,6 km/h (1 Bft) N-NW 331 ° 0 min 0,000 mm 0,0 UV-I 53 W/m² 8,0 °C 4,8 km/h (1 Bft)
29.10.2016 15:38 9,8 °C 9,8 °C 89 % 1031,7 hPa 0,0 mm 4,0 km/h (1 Bft) N 5 ° 0 min 0,000 mm 0,0 UV-I 53 W/m² 8,1 °C 6,4 km/h (2 Bft)
29.10.2016 15:39 9,8 °C 9,8 °C 89 % 1031,7 hPa 0,0 mm 1,3 km/h (1 Bft) N 5 ° 0 min 0,000 mm 0,0 UV-I 54 W/m² 8,1 °C 3,2 km/h (1 Bft)
29.10.2016 15:40 9,7 °C 9,8 °C 90 % 1031,7 hPa 0,0 mm 3,2 km/h (1 Bft) N-NO 13 ° 0 min 0,000 mm 0,0 UV-I 54 W/m² 8,1 °C 4,8 km/h (1 Bft)
29.10.2016 15:41 9,8 °C 9,8 °C 90 % 1031,7 hPa 0,0 mm 4,8 km/h (1 Bft) N 5 ° 0 min 0,000 mm 0,0 UV-I 53 W/m² 8,2 °C 6,4 km/h (2 Bft)
29.10.2016 15:42 9,7 °C 9,8 °C 89 % 1031,7 hPa 0,0 mm 3,2 km/h (1 Bft) N 350 ° 0 min 0,000 mm 0,0 UV-I 53 W/m² 8,0 °C 4,8 km/h (1 Bft)
29.10.2016 15:43 9,8 °C 9,8 °C 90 % 1031,7 hPa 0,0 mm 2,0 km/h (1 Bft) NW 323 ° 0 min 0,000 mm 0,0 UV-I 53 W/m² 8,2 °C 3,2 km/h (1 Bft)
29.10.2016 15:44 9,8 °C 9,8 °C 90 % 1031,7 hPa 0,0 mm 1,7 km/h (1 Bft) NW 323 ° 0 min 0,000 mm 0,0 UV-I 56 W/m² 8,2 °C 3,2 km/h (1 Bft)
29.10.2016 15:45 9,8 °C 9,8 °C 90 % 1031,7 hPa 0,0 mm 1,9 km/h (1 Bft) NW 323 ° 0 min 0,000 mm 0,0 UV-I 62 W/m² 8,2 °C 3,2 km/h (1 Bft)
29.10.2016 15:46 9,8 °C 9,8 °C 90 % 1031,7 hPa 0,0 mm 0,9 km/h (0 Bft) NW 323 ° 0 min 0,000 mm 0,0 UV-I 58 W/m² 8,2 °C 1,6 km/h (1 Bft)
29.10.2016 15:47 9,8 °C 9,8 °C 90 % 1031,7 hPa 0,0 mm 1,4 km/h (1 Bft) N-NW 333 ° 0 min 0,000 mm 0,0 UV-I 54 W/m² 8,2 °C 4,8 km/h (1 Bft)
29.10.2016 15:48 9,8 °C 9,8 °C 89 % 1031,7 hPa 0,0 mm 1,6 km/h (1 Bft) N-NW 333 ° 0 min 0,000 mm 0,0 UV-I 53 W/m² 8,1 °C 3,2 km/h (1 Bft)
29.10.2016 15:49 9,8 °C 9,8 °C 90 % 1031,7 hPa 0,0 mm 1,9 km/h (1 Bft) N-NW 333 ° 0 min 0,000 mm 0,0 UV-I 54 W/m² 8,2 °C 3,2 km/h (1 Bft)
29.10.2016 15:50 9,8 °C 9,8 °C 90 % 1031,7 hPa 0,0 mm 1,5 km/h (1 Bft) N-NW 333 ° 0 min 0,000 mm 0,0 UV-I 56 W/m² 8,2 °C 3,2 km/h (1 Bft)
29.10.2016 15:51 9,8 °C 9,8 °C 90 % 1031,7 hPa 0,0 mm 4,1 km/h (1 Bft) NW 315 ° 0 min 0,000 mm 0,0 UV-I 63 W/m² 8,2 °C 6,4 km/h (2 Bft)
29.10.2016 15:52 9,8 °C 9,8 °C 89 % 1031,7 hPa 0,0 mm 3,5 km/h (1 Bft) W 281 ° 0 min 0,000 mm 0,0 UV-I 69 W/m² 8,1 °C 4,8 km/h (1 Bft)
29.10.2016 15:53 9,7 °C 9,8 °C 89 % 1031,7 hPa 0,0 mm 1,3 km/h (1 Bft) W 281 ° 0 min 0,000 mm 0,0 UV-I 72 W/m² 8,0 °C 3,2 km/h (1 Bft)
29.10.2016 15:54 9,8 °C 9,8 °C 89 % 1031,7 hPa 0,0 mm 1,7 km/h (1 Bft) W-NW 282 ° 0 min 0,000 mm 0,0 UV-I 77 W/m² 8,1 °C 3,2 km/h (1 Bft)
29.10.2016 15:55 9,8 °C 9,8 °C 89 % 1031,7 hPa 0,0 mm 4,0 km/h (1 Bft) W-NW 302 ° 0 min 0,000 mm 0,5 UV-I 77 W/m² 8,1 °C 6,4 km/h (2 Bft)
29.10.2016 15:56 9,8 °C 9,8 °C 90 % 1031,7 hPa 0,0 mm 4,3 km/h (1 Bft) NW 318 ° 0 min 0,000 mm 0,5 UV-I 81 W/m² 8,2 °C 6,4 km/h (2 Bft)
29.10.2016 15:57 9,8 °C 9,8 °C 89 % 1031,7 hPa 0,0 mm 4,5 km/h (1 Bft) N-NW 336 ° 0 min 0,000 mm 0,6 UV-I 86 W/m² 8,1 °C 6,4 km/h (2 Bft)
29.10.2016 15:58 9,8 °C 9,8 °C 89 % 1031,7 hPa 0,0 mm 1,6 km/h (1 Bft) N-NW 336 ° 0 min 0,000 mm 0,6 UV-I 90 W/m² 8,1 °C 3,2 km/h (1 Bft)
29.10.2016 15:59 9,8 °C 9,8 °C 89 % 1031,7 hPa 0,0 mm 0,6 km/h (0 Bft) N-NW 336 ° 0 min 0,000 mm 0,6 UV-I 90 W/m² 8,1 °C 3,2 km/h (1 Bft)
29.10.2016 16:00 9,8 °C 9,8 °C 89 % 1031,7 hPa 0,0 mm 1,4 km/h (1 Bft) N-NW 336 ° 0 min 0,000 mm 0,6 UV-I 88 W/m² 8,1 °C 3,2 km/h (1 Bft)
29.10.2016 16:01 9,8 °C 9,8 °C 89 % 1031,7 hPa 0,0 mm 0,8 km/h (0 Bft) N-NW 336 ° 0 min 0,051 mm 0,6 UV-I 88 W/m² 8,1 °C 3,2 km/h (1 Bft)
29.10.2016 16:02 9,8 °C 9,8 °C 89 % 1031,7 hPa 0,0 mm 2,5 km/h (1 Bft) N-NW 329 ° 0 min 0,000 mm 0,6 UV-I 90 W/m² 8,1 °C 3,2 km/h (1 Bft)
29.10.2016 16:03 9,8 °C 9,8 °C 89 % 1031,7 hPa 0,0 mm 1,9 km/h (1 Bft) N-NW 329 ° 0 min 0,000 mm 0,6 UV-I 90 W/m² 8,1 °C 3,2 km/h (1 Bft)
29.10.2016 16:04 9,8 °C 9,8 °C 89 % 1031,7 hPa 0,0 mm 0,5 km/h (0 Bft) N-NW 329 ° 0 min 0,000 mm 0,6 UV-I 91 W/m² 8,1 °C 1,6 km/h (1 Bft)
29.10.2016 16:05 9,8 °C 9,8 °C 89 % 1031,7 hPa 0,0 mm 0,8 km/h (0 Bft) N-NW 329 ° 0 min 0,000 mm 0,6 UV-I 90 W/m² 8,1 °C 3,2 km/h (1 Bft)
29.10.2016 16:06 9,9 °C 9,9 °C 89 % 1031,6 hPa 0,0 mm 1,2 km/h (1 Bft) N-NW 329 ° 0 min 0,000 mm 0,6 UV-I 84 W/m² 8,2 °C 1,6 km/h (1 Bft)
29.10.2016 16:07 9,9 °C 9,9 °C 89 % 1031,7 hPa 0,0 mm 2,2 km/h (1 Bft) N-NW 329 ° 0 min 0,000 mm 0,5 UV-I 79 W/m² 8,2 °C 3,2 km/h (1 Bft)
29.10.2016 16:08 9,9 °C 9,9 °C 89 % 1031,6 hPa 0,0 mm 2,0 km/h (1 Bft) N-NW 329 ° 0 min 0,000 mm 0,5 UV-I 72 W/m² 8,2 °C 3,2 km/h (1 Bft)
29.10.2016 16:09 9,9 °C 9,9 °C 89 % 1031,6 hPa 0,0 mm 2,1 km/h (1 Bft) N-NW 329 ° 0 min 0,000 mm 0,5 UV-I 70 W/m² 8,2 °C 3,2 km/h (1 Bft)
29.10.2016 16:10 9,9 °C 9,9 °C 89 % 1031,6 hPa 0,0 mm 1,1 km/h (1 Bft) NW 306 ° 0 min 0,000 mm 0,5 UV-I 69 W/m² 8,2 °C 3,2 km/h (1 Bft)
29.10.2016 16:11 9,9 °C 9,9 °C 89 % 1031,6 hPa 0,0 mm 2,7 km/h (1 Bft) W 270 ° 0 min 0,000 mm 0,5 UV-I 67 W/m² 8,2 °C 4,8 km/h (1 Bft)
29.10.2016 16:12 9,9 °C 9,9 °C 88 % 1031,5 hPa 0,0 mm 3,3 km/h (1 Bft) W-NW 291 ° 0 min 0,000 mm 0,5 UV-I 67 W/m² 8,0 °C 4,8 km/h (1 Bft)
29.10.2016 16:13 9,8 °C 9,9 °C 89 % 1031,6 hPa 0,0 mm 3,7 km/h (1 Bft) W-NW 283 ° 0 min 0,000 mm 0,5 UV-I 67 W/m² 8,1 °C 6,4 km/h (2 Bft)
29.10.2016 16:14 9,8 °C 9,8 °C 89 % 1031,5 hPa 0,0 mm 3,7 km/h (1 Bft) W 275 ° 0 min 0,000 mm 0,5 UV-I 69 W/m² 8,1 °C 4,8 km/h (1 Bft)
29.10.2016 16:15 9,8 °C 9,8 °C 89 % 1031,4 hPa 0,0 mm 2,8 km/h (1 Bft) W 275 ° 0 min 0,000 mm 0,5 UV-I 70 W/m² 8,1 °C 4,8 km/h (1 Bft)
29.10.2016 16:16 9,8 °C 9,8 °C 89 % 1031,4 hPa 0,0 mm 1,3 km/h (1 Bft) W 275 ° 0 min 0,000 mm 0,5 UV-I 74 W/m² 8,1 °C 3,2 km/h (1 Bft)
29.10.2016 16:17 9,8 °C 9,8 °C 89 % 1031,4 hPa 0,0 mm 1,3 km/h (1 Bft) W 275 ° 0 min 0,000 mm 0,5 UV-I 77 W/m² 8,1 °C 3,2 km/h (1 Bft)
29.10.2016 16:18 9,8 °C 9,8 °C 89 % 1031,4 hPa 0,0 mm 2,1 km/h (1 Bft) W 278 ° 0 min 0,000 mm 0,5 UV-I 83 W/m² 8,1 °C 4,8 km/h (1 Bft)
29.10.2016 16:19 9,8 °C 9,8 °C 89 % 1031,4 hPa 0,0 mm 3,4 km/h (1 Bft) W-NW 284 ° 0 min 0,000 mm 0,5 UV-I 88 W/m² 8,1 °C 4,8 km/h (1 Bft)
29.10.2016 16:20 9,8 °C 9,8 °C 89 % 1031,4 hPa 0,0 mm 2,2 km/h (1 Bft) W-NW 284 ° 0 min 0,000 mm 0,5 UV-I 83 W/m² 8,1 °C 3,2 km/h (1 Bft)
29.10.2016 16:21 9,8 °C 9,8 °C 89 % 1031,4 hPa 0,0 mm 3,0 km/h (1 Bft) W-NW 288 ° 0 min 0,000 mm 0,5 UV-I 77 W/m² 8,1 °C 4,8 km/h (1 Bft)
29.10.2016 16:22 9,8 °C 9,8 °C 89 % 1031,4 hPa 0,0 mm 2,8 km/h (1 Bft) W-NW 284 ° 0 min 0,000 mm 0,0 UV-I 74 W/m² 8,1 °C 4,8 km/h (1 Bft)
29.10.2016 16:23 9,8 °C 9,9 °C 89 % 1031,4 hPa 0,0 mm 4,0 km/h (1 Bft) W-NW 296 ° 0 min 0,000 mm 0,0 UV-I 70 W/m² 8,1 °C 4,8 km/h (1 Bft)
29.10.2016 16:24 9,9 °C 9,9 °C 89 % 1031,4 hPa 0,0 mm 3,8 km/h (1 Bft) W-NW 284 ° 0 min 0,000 mm 0,0 UV-I 69 W/m² 8,2 °C 4,8 km/h (1 Bft)
29.10.2016 16:25 9,8 °C 9,9 °C 89 % 1031,4 hPa 0,0 mm 3,0 km/h (1 Bft) W-NW 284 ° 0 min 0,000 mm 0,0 UV-I 62 W/m² 8,1 °C 4,8 km/h (1 Bft)
29.10.2016 16:26 9,8 °C 9,8 °C 89 % 1031,3 hPa 0,0 mm 2,0 km/h (1 Bft) W-NW 296 ° 0 min 0,000 mm 0,0 UV-I 58 W/m² 8,1 °C 3,2 km/h (1 Bft)
29.10.2016 16:27 9,8 °C 9,8 °C 89 % 1031,4 hPa 0,0 mm 2,6 km/h (1 Bft) W-NW 302 ° 0 min 0,000 mm 0,0 UV-I 54 W/m² 8,1 °C 3,2 km/h (1 Bft)
29.10.2016 16:28 9,8 °C 9,8 °C 89 % 1031,4 hPa 0,0 mm 3,5 km/h (1 Bft) NW 306 ° 0 min 0,000 mm 0,0 UV-I 53 W/m² 8,1 °C 4,8 km/h (1 Bft)
29.10.2016 16:29 9,9 °C 9,9 °C 89 % 1031,3 hPa 0,0 mm 3,9 km/h (1 Bft) NW 306 ° 0 min 0,000 mm 0,0 UV-I 53 W/m² 8,2 °C 4,8 km/h (1 Bft)
29.10.2016 16:30 9,8 °C 9,9 °C 89 % 1031,4 hPa 0,0 mm 2,3 km/h (1 Bft) NW 306 ° 0 min 0,000 mm 0,0 UV-I 53 W/m² 8,1 °C 3,2 km/h (1 Bft)
29.10.2016 16:31 9,8 °C 9,8 °C 89 % 1031,3 hPa 0,0 mm 0,7 km/h (0 Bft) NW 306 ° 0 min 0,000 mm 0,0 UV-I 54 W/m² 8,1 °C 1,6 km/h (1 Bft)
29.10.2016 16:32 9,8 °C 9,8 °C 89 % 1031,3 hPa 0,0 mm 1,5 km/h (1 Bft) NW 306 ° 0 min 0,000 mm 0,0 UV-I 54 W/m² 8,1 °C 3,2 km/h (1 Bft)
29.10.2016 16:33 9,8 °C 9,8 °C 89 % 1031,3 hPa 0,0 mm 3,1 km/h (1 Bft) NW 306 ° 0 min 0,000 mm 0,0 UV-I 54 W/m² 8,1 °C 4,8 km/h (1 Bft)
29.10.2016 16:34 9,8 °C 9,8 °C 89 % 1031,3 hPa 0,0 mm 1,3 km/h (1 Bft) NW 306 ° 0 min 0,000 mm 0,0 UV-I 54 W/m² 8,1 °C 1,6 km/h (1 Bft)
29.10.2016 16:35 9,8 °C 9,8 °C 89 % 1031,3 hPa 0,0 mm 0,6 km/h (0 Bft) NW 306 ° 0 min 0,000 mm 0,0 UV-I 54 W/m² 8,1 °C 3,2 km/h (1 Bft)
29.10.2016 16:36 9,7 °C 9,8 °C 89 % 1031,2 hPa 0,0 mm 1,8 km/h (1 Bft) NW 306 ° 0 min 0,000 mm 0,0 UV-I 56 W/m² 8,0 °C 3,2 km/h (1 Bft)
29.10.2016 16:37 9,8 °C 9,8 °C 89 % 1031,2 hPa 0,0 mm 0,6 km/h (0 Bft) NW 306 ° 0 min 0,000 mm 0,0 UV-I 56 W/m² 8,1 °C 1,6 km/h (1 Bft)
29.10.2016 16:38 9,8 °C 9,8 °C 89 % 1031,3 hPa 0,0 mm 3,2 km/h (1 Bft) N 350 ° 0 min 0,000 mm 0,0 UV-I 54 W/m² 8,1 °C 4,8 km/h (1 Bft)
29.10.2016 16:39 9,8 °C 9,8 °C 89 % 1031,2 hPa 0,0 mm 2,3 km/h (1 Bft) N 350 ° 0 min 0,000 mm 0,0 UV-I 51 W/m² 8,1 °C 4,8 km/h (1 Bft)
29.10.2016 16:40 9,8 °C 9,8 °C 89 % 1031,2 hPa 0,0 mm 0,7 km/h (0 Bft) N 350 ° 0 min 0,000 mm 0,0 UV-I 47 W/m² 8,1 °C 3,2 km/h (1 Bft)
29.10.2016 16:41 9,8 °C 9,8 °C 89 % 1031,3 hPa 0,0 mm 1,5 km/h (1 Bft) N 351 ° 0 min 0,000 mm 0,0 UV-I 46 W/m² 8,1 °C 4,8 km/h (1 Bft)
29.10.2016 16:42 9,8 °C 9,8 °C 89 % 1031,3 hPa 0,0 mm 3,0 km/h (1 Bft) N-NW 337 ° 0 min 0,000 mm 0,0 UV-I 46 W/m² 8,1 °C 4,8 km/h (1 Bft)
29.10.2016 16:43 9,7 °C 9,8 °C 89 % 1031,3 hPa 0,0 mm 2,9 km/h (1 Bft) N-NW 335 ° 0 min 0,000 mm 0,0 UV-I 42 W/m² 8,0 °C 4,8 km/h (1 Bft)
29.10.2016 16:44 9,8 °C 9,8 °C 89 % 1031,3 hPa 0,0 mm 1,7 km/h (1 Bft) N-NW 335 ° 0 min 0,000 mm 0,0 UV-I 40 W/m² 8,1 °C 3,2 km/h (1 Bft)
29.10.2016 16:45 9,7 °C 9,8 °C 89 % 1031,2 hPa 0,0 mm 1,6 km/h (1 Bft) N-NW 335 ° 0 min 0,000 mm 0,0 UV-I 40 W/m² 8,0 °C 3,2 km/h (1 Bft)
29.10.2016 16:46 9,8 °C 9,8 °C 89 % 1031,2 hPa 0,0 mm 2,7 km/h (1 Bft) N-NW 334 ° 0 min 0,000 mm 0,0 UV-I 39 W/m² 8,1 °C 4,8 km/h (1 Bft)
29.10.2016 16:47 9,8 °C 9,8 °C 89 % 1031,3 hPa 0,0 mm 2,7 km/h (1 Bft) NW 325 ° 0 min 0,000 mm 0,0 UV-I 35 W/m² 8,1 °C 4,8 km/h (1 Bft)
29.10.2016 16:48 9,8 °C 9,8 °C 89 % 1031,3 hPa 0,0 mm 2,3 km/h (1 Bft) NW 325 ° 0 min 0,000 mm 0,0 UV-I 33 W/m² 8,1 °C 3,2 km/h (1 Bft)
29.10.2016 16:49 9,8 °C 9,8 °C 89 % 1031,3 hPa 0,0 mm 3,3 km/h (1 Bft) NW 326 ° 0 min 0,000 mm 0,0 UV-I 32 W/m² 8,1 °C 4,8 km/h (1 Bft)
29.10.2016 16:50 9,8 °C 9,8 °C 89 % 1031,3 hPa 0,0 mm 4,0 km/h (1 Bft) NW 317 ° 0 min 0,000 mm 0,0 UV-I 30 W/m² 8,1 °C 4,8 km/h (1 Bft)
29.10.2016 16:51 9,8 °C 9,8 °C 89 % 1031,3 hPa 0,0 mm 1,9 km/h (1 Bft) NW 317 ° 0 min 0,000 mm 0,0 UV-I 30 W/m² 8,1 °C 3,2 km/h (1 Bft)
29.10.2016 16:52 9,8 °C 9,8 °C 89 % 1031,3 hPa 0,0 mm 3,1 km/h (1 Bft) N-NW 335 ° 0 min 0,000 mm 0,0 UV-I 28 W/m² 8,1 °C 4,8 km/h (1 Bft)
29.10.2016 16:53 9,8 °C 9,8 °C 89 % 1031,3 hPa 0,0 mm 2,0 km/h (1 Bft) NW 323 ° 0 min 0,000 mm 0,0 UV-I 28 W/m² 8,1 °C 3,2 km/h (1 Bft)
29.10.2016 16:54 9,8 °C 9,8 °C 89 % 1031,3 hPa 0,0 mm 2,3 km/h (1 Bft) NW 323 ° 0 min 0,000 mm 0,0 UV-I 28 W/m² 8,1 °C 3,2 km/h (1 Bft)
29.10.2016 16:55 9,8 °C 9,8 °C 89 % 1031,4 hPa 0,0 mm 2,5 km/h (1 Bft) NW 323 ° 0 min 0,000 mm 0,0 UV-I 26 W/m² 8,1 °C 3,2 km/h (1 Bft)
29.10.2016 16:56 9,8 °C 9,8 °C 89 % 1031,4 hPa 0,0 mm 4,0 km/h (1 Bft) N 5 ° 0 min 0,000 mm 0,0 UV-I 25 W/m² 8,1 °C 6,4 km/h (2 Bft)
29.10.2016 16:57 9,8 °C 9,8 °C 89 % 1031,4 hPa 0,0 mm 4,2 km/h (1 Bft) N 351 ° 0 min 0,000 mm 0,0 UV-I 25 W/m² 8,1 °C 4,8 km/h (1 Bft)
29.10.2016 16:58 9,8 °C 9,8 °C 89 % 1031,4 hPa 0,0 mm 3,9 km/h (1 Bft) N 360 ° 0 min 0,000 mm 0,0 UV-I 23 W/m² 8,1 °C 4,8 km/h (1 Bft)
29.10.2016 16:59 9,8 °C 9,8 °C 89 % 1031,4 hPa 0,0 mm 5,2 km/h (1 Bft) N-NW 333 ° 0 min 0,000 mm 0,0 UV-I 21 W/m² 8,1 °C 6,4 km/h (2 Bft)
29.10.2016 17:00 9,8 °C 9,8 °C 89 % 1031,4 hPa 0,0 mm 3,7 km/h (1 Bft) N 360 ° 0 min 0,000 mm 0,0 UV-I 21 W/m² 8,1 °C 4,8 km/h (1 Bft)
29.10.2016 17:01 9,8 °C 9,8 °C 89 % 1031,4 hPa 0,0 mm 3,2 km/h (1 Bft) N 360 ° 0 min 0,026 mm 0,0 UV-I 19 W/m² 8,1 °C 4,8 km/h (1 Bft)
29.10.2016 17:02 9,8 °C 9,8 °C 89 % 1031,4 hPa 0,0 mm 2,3 km/h (1 Bft) N 360 ° 0 min 0,000 mm 0,0 UV-I 19 W/m² 8,1 °C 3,2 km/h (1 Bft)
29.10.2016 17:03 9,7 °C 9,8 °C 89 % 1031,4 hPa 0,0 mm 2,2 km/h (1 Bft) N-NW 328 ° 0 min 0,000 mm 0,0 UV-I 19 W/m² 8,0 °C 3,2 km/h (1 Bft)
29.10.2016 17:04 9,7 °C 9,7 °C 89 % 1031,4 hPa 0,0 mm 2,8 km/h (1 Bft) NW 306 ° 0 min 0,000 mm 0,0 UV-I 19 W/m² 8,0 °C 4,8 km/h (1 Bft)
29.10.2016 17:05 9,7 °C 9,7 °C 89 % 1031,4 hPa 0,0 mm 2,9 km/h (1 Bft) NW 311 ° 0 min 0,000 mm 0,0 UV-I 19 W/m² 8,0 °C 4,8 km/h (1 Bft)
29.10.2016 17:06 9,7 °C 9,7 °C 90 % 1031,5 hPa 0,0 mm 2,3 km/h (1 Bft) NW 311 ° 0 min 0,000 mm 0,0 UV-I 18 W/m² 8,1 °C 3,2 km/h (1 Bft)
29.10.2016 17:07 9,7 °C 9,7 °C 90 % 1031,4 hPa 0,0 mm 2,3 km/h (1 Bft) NW 323 ° 0 min 0,000 mm 0,0 UV-I 16 W/m² 8,1 °C 3,2 km/h (1 Bft)
29.10.2016 17:08 9,7 °C 9,7 °C 89 % 1031,5 hPa 0,0 mm 2,9 km/h (1 Bft) N-NW 337 ° 0 min 0,000 mm 0,0 UV-I 16 W/m² 8,0 °C 4,8 km/h (1 Bft)
29.10.2016 17:09 9,7 °C 9,7 °C 90 % 1031,4 hPa 0,0 mm 3,4 km/h (1 Bft) N-NW 339 ° 0 min 0,000 mm 0,0 UV-I 16 W/m² 8,1 °C 4,8 km/h (1 Bft)
29.10.2016 17:10 9,7 °C 9,7 °C 90 % 1031,5 hPa 0,0 mm 2,2 km/h (1 Bft) N-NW 339 ° 0 min 0,000 mm 0,0 UV-I 16 W/m² 8,1 °C 3,2 km/h (1 Bft)
29.10.2016 17:11 9,7 °C 9,7 °C 89 % 1031,5 hPa 0,0 mm 0,9 km/h (0 Bft) N-NW 339 ° 0 min 0,000 mm 0,0 UV-I 14 W/m² 8,0 °C 1,6 km/h (1 Bft)
29.10.2016 17:12 9,7 °C 9,7 °C 89 % 1031,4 hPa 0,0 mm 1,2 km/h (1 Bft) N-NW 339 ° 0 min 0,000 mm 0,0 UV-I 14 W/m² 8,0 °C 1,6 km/h (1 Bft)
29.10.2016 17:13 9,7 °C 9,7 °C 89 % 1031,4 hPa 0,0 mm 2,7 km/h (1 Bft) N-NW 339 ° 0 min 0,000 mm 0,0 UV-I 14 W/m² 8,0 °C 4,8 km/h (1 Bft)
29.10.2016 17:14 9,7 °C 9,7 °C 89 % 1031,4 hPa 0,0 mm 3,6 km/h (1 Bft) N-NW 348 ° 0 min 0,000 mm 0,0 UV-I 12 W/m² 8,0 °C 6,4 km/h (2 Bft)
29.10.2016 17:15 9,7 °C 9,7 °C 89 % 1031,5 hPa 0,0 mm 3,2 km/h (1 Bft) N-NW 348 ° 0 min 0,000 mm 0,0 UV-I 12 W/m² 8,0 °C 4,8 km/h (1 Bft)
29.10.2016 17:16 9,7 °C 9,7 °C 89 % 1031,5 hPa 0,0 mm 3,1 km/h (1 Bft) N 355 ° 0 min 0,000 mm 0,0 UV-I 11 W/m² 8,0 °C 4,8 km/h (1 Bft)
29.10.2016 17:17 9,7 °C 9,7 °C 89 % 1031,5 hPa 0,0 mm 2,4 km/h (1 Bft) N 355 ° 0 min 0,000 mm 0,0 UV-I 11 W/m² 8,0 °C 4,8 km/h (1 Bft)
29.10.2016 17:18 9,7 °C 9,7 °C 89 % 1031,5 hPa 0,0 mm 2,1 km/h (1 Bft) W-NW 296 ° 0 min 0,000 mm 0,0 UV-I 11 W/m² 8,0 °C 4,8 km/h (1 Bft)
29.10.2016 17:19 9,7 °C 9,7 °C 89 % 1031,4 hPa 0,0 mm 3,3 km/h (1 Bft) NW 325 ° 0 min 0,000 mm 0,0 UV-I 9 W/m² 8,0 °C 4,8 km/h (1 Bft)
29.10.2016 17:20 9,7 °C 9,7 °C 89 % 1031,4 hPa 0,0 mm 3,4 km/h (1 Bft) NW 304 ° 0 min 0,000 mm 0,0 UV-I 9 W/m² 8,0 °C 4,8 km/h (1 Bft)
29.10.2016 17:21 9,6 °C 9,7 °C 90 % 1031,4 hPa 0,0 mm 4,5 km/h (1 Bft) N-NW 331 ° 0 min 0,000 mm 0,0 UV-I 9 W/m² 8,0 °C 6,4 km/h (2 Bft)
29.10.2016 17:22 9,6 °C 9,7 °C 89 % 1031,4 hPa 0,0 mm 2,7 km/h (1 Bft) N-NW 332 ° 0 min 0,000 mm 0,0 UV-I 9 W/m² 7,9 °C 4,8 km/h (1 Bft)
29.10.2016 17:23 9,6 °C 9,6 °C 89 % 1031,4 hPa 0,0 mm 3,5 km/h (1 Bft) N 360 ° 0 min 0,000 mm 0,0 UV-I 7 W/m² 7,9 °C 4,8 km/h (1 Bft)
29.10.2016 17:24 9,6 °C 9,6 °C 90 % 1031,5 hPa 0,0 mm 3,2 km/h (1 Bft) W 277 ° 0 min 0,000 mm 0,0 UV-I 7 W/m² 8,0 °C 4,8 km/h (1 Bft)
29.10.2016 17:25 9,6 °C 9,6 °C 90 % 1031,5 hPa 0,0 mm 3,1 km/h (1 Bft) N-NW 333 ° 0 min 0,000 mm 0,0 UV-I 7 W/m² 8,0 °C 4,8 km/h (1 Bft)
29.10.2016 17:26 9,6 °C 9,6 °C 90 % 1031,5 hPa 0,0 mm 4,1 km/h (1 Bft) N 355 ° 0 min 0,000 mm 0,0 UV-I 7 W/m² 8,0 °C 6,4 km/h (2 Bft)
29.10.2016 17:27 9,5 °C 9,6 °C 89 % 1031,5 hPa 0,0 mm 2,5 km/h (1 Bft) N 355 ° 0 min 0,000 mm 0,0 UV-I 7 W/m² 7,8 °C 4,8 km/h (1 Bft)
29.10.2016 17:28 9,5 °C 9,6 °C 90 % 1031,4 hPa 0,0 mm 3,1 km/h (1 Bft) N 350 ° 0 min 0,000 mm 0,0 UV-I 7 W/m² 7,9 °C 4,8 km/h (1 Bft)
29.10.2016 17:29 9,6 °C 9,6 °C 90 % 1031,4 hPa 0,0 mm 3,8 km/h (1 Bft) N-NO 14 ° 0 min 0,000 mm 0,0 UV-I 7 W/m² 8,0 °C 4,8 km/h (1 Bft)
29.10.2016 17:30 9,5 °C 9,6 °C 90 % 1031,5 hPa 0,0 mm 4,0 km/h (1 Bft) N 9 ° 0 min 0,000 mm 0,0 UV-I 9 W/m² 7,9 °C 4,8 km/h (1 Bft)
29.10.2016 17:31 9,5 °C 9,5 °C 89 % 1031,5 hPa 0,0 mm 3,5 km/h (1 Bft) N-NW 346 ° 0 min 0,000 mm 0,0 UV-I 7 W/m² 7,8 °C 4,8 km/h (1 Bft)
29.10.2016 17:32 9,5 °C 9,5 °C 90 % 1031,5 hPa 0,0 mm 3,5 km/h (1 Bft) N-NW 333 ° 0 min 0,000 mm 0,0 UV-I 7 W/m² 7,9 °C 4,8 km/h (1 Bft)
29.10.2016 17:33 9,5 °C 9,5 °C 90 % 1031,5 hPa 0,0 mm 1,2 km/h (1 Bft) N-NW 333 ° 0 min 0,000 mm 0,0 UV-I 7 W/m² 7,9 °C 3,2 km/h (1 Bft)
29.10.2016 17:34 9,5 °C 9,5 °C 90 % 1031,5 hPa 0,0 mm 1,3 km/h (1 Bft) N-NW 333 ° 0 min 0,000 mm 0,0 UV-I 7 W/m² 7,9 °C 3,2 km/h (1 Bft)
29.10.2016 17:35 9,5 °C 9,5 °C 90 % 1031,5 hPa 0,0 mm 2,3 km/h (1 Bft) N-NW 333 ° 0 min 0,000 mm 0,0 UV-I 7 W/m² 7,9 °C 3,2 km/h (1 Bft)
29.10.2016 17:36 9,4 °C 9,5 °C 90 % 1031,5 hPa 0,0 mm 1,9 km/h (1 Bft) N-NW 333 ° 0 min 0,000 mm 0,0 UV-I 7 W/m² 7,8 °C 3,2 km/h (1 Bft)
29.10.2016 17:37 9,4 °C 9,4 °C 90 % 1031,6 hPa 0,0 mm 1,7 km/h (1 Bft) N-NW 345 ° 0 min 0,000 mm 0,0 UV-I 7 W/m² 7,8 °C 3,2 km/h (1 Bft)
29.10.2016 17:38 9,4 °C 9,4 °C 90 % 1031,5 hPa 0,0 mm 2,1 km/h (1 Bft) N-NW 345 ° 0 min 0,000 mm 0,0 UV-I 7 W/m² 7,8 °C 3,2 km/h (1 Bft)
29.10.2016 17:39 9,4 °C 9,4 °C 90 % 1031,5 hPa 0,0 mm 2,7 km/h (1 Bft) N-NW 331 ° 0 min 0,000 mm 0,0 UV-I 5 W/m² 7,8 °C 4,8 km/h (1 Bft)
29.10.2016 17:40 9,4 °C 9,4 °C 90 % 1031,5 hPa 0,0 mm 3,4 km/h (1 Bft) NW 308 ° 0 min 0,000 mm 0,0 UV-I 5 W/m² 7,8 °C 4,8 km/h (1 Bft)
29.10.2016 17:41 9,4 °C 9,4 °C 90 % 1031,5 hPa 0,0 mm 2,1 km/h (1 Bft) NW 309 ° 0 min 0,000 mm 0,0 UV-I 5 W/m² 7,8 °C 3,2 km/h (1 Bft)
29.10.2016 17:42 9,4 °C 9,4 °C 90 % 1031,6 hPa 0,0 mm 1,8 km/h (1 Bft) NW 309 ° 0 min 0,000 mm 0,0 UV-I 5 W/m² 7,8 °C 3,2 km/h (1 Bft)
29.10.2016 17:43 9,4 °C 9,4 °C 90 % 1031,5 hPa 0,0 mm 2,5 km/h (1 Bft) NW 309 ° 0 min 0,000 mm 0,0 UV-I 5 W/m² 7,8 °C 4,8 km/h (1 Bft)
29.10.2016 17:44 9,4 °C 9,4 °C 90 % 1031,5 hPa 0,0 mm 2,6 km/h (1 Bft) NW 309 ° 0 min 0,000 mm 0,0 UV-I 5 W/m² 7,8 °C 4,8 km/h (1 Bft)
29.10.2016 17:45 9,4 °C 9,4 °C 90 % 1031,6 hPa 0,0 mm 1,8 km/h (1 Bft) NW 309 ° 0 min 0,000 mm 0,0 UV-I 5 W/m² 7,8 °C 3,2 km/h (1 Bft)
29.10.2016 17:46 9,4 °C 9,4 °C 90 % 1031,6 hPa 0,0 mm 3,6 km/h (1 Bft) NW 323 ° 0 min 0,000 mm 0,0 UV-I 5 W/m² 7,8 °C 6,4 km/h (2 Bft)
29.10.2016 17:47 9,4 °C 9,4 °C 90 % 1031,6 hPa 0,0 mm 1,9 km/h (1 Bft) NW 323 ° 0 min 0,000 mm 0,0 UV-I 5 W/m² 7,8 °C 3,2 km/h (1 Bft)
29.10.2016 17:48 9,4 °C 9,4 °C 90 % 1031,6 hPa 0,0 mm 2,9 km/h (1 Bft) N-NW 337 ° 0 min 0,000 mm 0,0 UV-I 0 W/m² 7,8 °C 4,8 km/h (1 Bft)
29.10.2016 17:49 9,4 °C 9,4 °C 90 % 1031,6 hPa 0,0 mm 2,0 km/h (1 Bft) N-NW 337 ° 0 min 0,000 mm 0,0 UV-I 0 W/m² 7,8 °C 3,2 km/h (1 Bft)
29.10.2016 17:50 9,3 °C 9,4 °C 90 % 1031,6 hPa 0,0 mm 1,9 km/h (1 Bft) N-NW 337 ° 0 min 0,000 mm 0,0 UV-I 0 W/m² 7,7 °C 3,2 km/h (1 Bft)
29.10.2016 17:51 9,4 °C 9,4 °C 90 % 1031,6 hPa 0,0 mm 1,5 km/h (1 Bft) N-NW 337 ° 0 min 0,000 mm 0,0 UV-I 0 W/m² 7,8 °C 4,8 km/h (1 Bft)
29.10.2016 17:52 9,3 °C 9,4 °C 90 % 1031,6 hPa 0,0 mm 2,7 km/h (1 Bft) N-NW 337 ° 0 min 0,000 mm 0,0 UV-I 0 W/m² 7,7 °C 4,8 km/h (1 Bft)
29.10.2016 17:53 9,3 °C 9,4 °C 90 % 1031,6 hPa 0,0 mm 2,2 km/h (1 Bft) N-NW 337 ° 0 min 0,000 mm 0,0 UV-I 0 W/m² 7,7 °C 3,2 km/h (1 Bft)
29.10.2016 17:54 9,3 °C 9,4 °C 90 % 1031,6 hPa 0,0 mm 1,7 km/h (1 Bft) N-NW 337 ° 0 min 0,000 mm 0,0 UV-I 0 W/m² 7,7 °C 3,2 km/h (1 Bft)
29.10.2016 17:55 9,3 °C 9,3 °C 90 % 1031,5 hPa 0,0 mm 2,8 km/h (1 Bft) N 349 ° 0 min 0,000 mm 0,0 UV-I 0 W/m² 7,7 °C 4,8 km/h (1 Bft)
29.10.2016 17:56 9,3 °C 9,3 °C 90 % 1031,6 hPa 0,0 mm 1,9 km/h (1 Bft) N 349 ° 0 min 0,000 mm 0,0 UV-I 0 W/m² 7,7 °C 4,8 km/h (1 Bft)
29.10.2016 17:57 9,3 °C 9,3 °C 90 % 1031,6 hPa 0,0 mm 1,7 km/h (1 Bft) N 349 ° 0 min 0,000 mm 0,0 UV-I 0 W/m² 7,7 °C 3,2 km/h (1 Bft)
29.10.2016 17:58 9,3 °C 9,3 °C 90 % 1031,6 hPa 0,0 mm 2,5 km/h (1 Bft) N 350 ° 0 min 0,000 mm 0,0 UV-I 0 W/m² 7,7 °C 4,8 km/h (1 Bft)
29.10.2016 17:59 9,3 °C 9,3 °C 91 % 1031,7 hPa 0,0 mm 3,4 km/h (1 Bft) NW 313 ° 0 min 0,000 mm 0,0 UV-I 0 W/m² 7,9 °C 6,4 km/h (2 Bft)
29.10.2016 18:00 9,3 °C 9,3 °C 91 % 1031,6 hPa 0,0 mm 3,5 km/h (1 Bft) N-NW 344 ° 0 min 0,000 mm 0,0 UV-I 0 W/m² 7,9 °C 4,8 km/h (1 Bft)
29.10.2016 18:01 9,3 °C 9,3 °C 91 % 1031,6 hPa 0,0 mm 2,0 km/h (1 Bft) N-NW 335 ° 0 min 0,000 mm 0,0 UV-I 0 W/m² 7,9 °C 4,8 km/h (1 Bft)
29.10.2016 18:02 9,3 °C 9,3 °C 91 % 1031,6 hPa 0,0 mm 2,7 km/h (1 Bft) N 355 ° 0 min 0,000 mm 0,0 UV-I 0 W/m² 7,9 °C 4,8 km/h (1 Bft)
29.10.2016 18:03 9,2 °C 9,3 °C 91 % 1031,6 hPa 0,0 mm 4,8 km/h (1 Bft) NW 320 ° 0 min 0,000 mm 0,0 UV-I 0 W/m² 7,8 °C 6,4 km/h (2 Bft)
29.10.2016 18:04 9,2 °C 9,2 °C 91 % 1031,6 hPa 0,0 mm 4,5 km/h (1 Bft) NW 325 ° 0 min 0,000 mm 0,0 UV-I 0 W/m² 7,8 °C 6,4 km/h (2 Bft)
29.10.2016 18:05 9,2 °C 9,2 °C 91 % 1031,6 hPa 0,0 mm 4,0 km/h (1 Bft) N-NW 342 ° 0 min 0,000 mm 0,0 UV-I 0 W/m² 7,8 °C 6,4 km/h (2 Bft)
29.10.2016 18:06 9,2 °C 9,2 °C 91 % 1031,6 hPa 0,0 mm 4,0 km/h (1 Bft) N 5 ° 0 min 0,000 mm 0,0 UV-I 0 W/m² 7,8 °C 4,8 km/h (1 Bft)
29.10.2016 18:07 9,2 °C 9,2 °C 91 % 1031,7 hPa 0,0 mm 3,4 km/h (1 Bft) N 5 ° 0 min 0,000 mm 0,0 UV-I 0 W/m² 7,8 °C 4,8 km/h (1 Bft)
29.10.2016 18:08 9,2 °C 9,2 °C 91 % 1031,7 hPa 0,0 mm 4,8 km/h (1 Bft) N 5 ° 0 min 0,000 mm 0,0 UV-I 0 W/m² 7,8 °C 6,4 km/h (2 Bft)
29.10.2016 18:09 9,1 °C 9,2 °C 91 % 1031,7 hPa 0,0 mm 2,5 km/h (1 Bft) N 351 ° 0 min 0,000 mm 0,0 UV-I 0 W/m² 7,7 °C 4,8 km/h (1 Bft)
29.10.2016 18:10 9,1 °C 9,1 °C 91 % 1031,6 hPa 0,0 mm 1,6 km/h (1 Bft) N 351 ° 0 min 0,000 mm 0,0 UV-I 0 W/m² 7,7 °C 3,2 km/h (1 Bft)
29.10.2016 18:11 9,1 °C 9,1 °C 91 % 1031,6 hPa 0,0 mm 2,7 km/h (1 Bft) N 351 ° 0 min 0,000 mm 0,0 UV-I 0 W/m² 7,7 °C 3,2 km/h (1 Bft)
29.10.2016 18:12 9,1 °C 9,1 °C 91 % 1031,6 hPa 0,0 mm 2,5 km/h (1 Bft) N 351 ° 0 min 0,000 mm 0,0 UV-I 0 W/m² 7,7 °C 3,2 km/h (1 Bft)
29.10.2016 18:13 9,1 °C 9,1 °C 91 % 1031,6 hPa 0,0 mm 2,5 km/h (1 Bft) N-NW 345 ° 0 min 0,000 mm 0,0 UV-I 0 W/m² 7,7 °C 4,8 km/h (1 Bft)
29.10.2016 18:14 9,1 °C 9,1 °C 91 % 1031,6 hPa 0,0 mm 2,1 km/h (1 Bft) N-NW 345 ° 0 min 0,000 mm 0,0 UV-I 0 W/m² 7,7 °C 3,2 km/h (1 Bft)
29.10.2016 18:15 9,1 °C 9,1 °C 91 % 1031,6 hPa 0,0 mm 1,7 km/h (1 Bft) N-NW 345 ° 0 min 0,000 mm 0,0 UV-I 0 W/m² 7,7 °C 3,2 km/h (1 Bft)
29.10.2016 18:16 9,1 °C 9,1 °C 91 % 1031,6 hPa 0,0 mm 2,0 km/h (1 Bft) N-NW 345 ° 0 min 0,000 mm 0,0 UV-I 0 W/m² 7,7 °C 3,2 km/h (1 Bft)
29.10.2016 18:17 9,0 °C 9,1 °C 91 % 1031,6 hPa 0,0 mm 1,5 km/h (1 Bft) N-NW 345 ° 0 min 0,000 mm 0,0 UV-I 0 W/m² 7,6 °C 1,6 km/h (1 Bft)
29.10.2016 18:18 9,0 °C 9,1 °C 91 % 1031,6 hPa 0,0 mm 0,5 km/h (0 Bft) N-NW 345 ° 0 min 0,000 mm 0,0 UV-I 0 W/m² 7,6 °C 1,6 km/h (1 Bft)
29.10.2016 18:19 9,0 °C 9,0 °C 91 % 1031,6 hPa 0,0 mm 1,4 km/h (1 Bft) W 272 ° 0 min 0,000 mm 0,0 UV-I 0 W/m² 7,6 °C 6,4 km/h (2 Bft)
29.10.2016 18:20 9,0 °C 9,0 °C 91 % 1031,6 hPa 0,0 mm 5,3 km/h (1 Bft) NW 306 ° 0 min 0,000 mm 0,0 UV-I 0 W/m² 7,6 °C 8,0 km/h (2 Bft)
29.10.2016 18:21 9,0 °C 9,0 °C 91 % 1031,6 hPa 0,0 mm 2,1 km/h (1 Bft) NW 308 ° 0 min 0,000 mm 0,0 UV-I 0 W/m² 7,6 °C 4,8 km/h (1 Bft)
29.10.2016 18:22 8,9 °C 9,0 °C 91 % 1031,6 hPa 0,0 mm 2,5 km/h (1 Bft) NW 321 ° 0 min 0,000 mm 0,0 UV-I 0 W/m² 7,5 °C 3,2 km/h (1 Bft)
29.10.2016 18:23 8,9 °C 8,9 °C 91 % 1031,6 hPa 0,0 mm 2,3 km/h (1 Bft) N-NW 334 ° 0 min 0,000 mm 0,0 UV-I 0 W/m² 7,5 °C 4,8 km/h (1 Bft)
29.10.2016 18:24 8,9 °C 8,9 °C 91 % 1031,6 hPa 0,0 mm 4,2 km/h (1 Bft) N-NO 28 ° 0 min 0,000 mm 0,0 UV-I 0 W/m² 7,5 °C 6,4 km/h (2 Bft)
29.10.2016 18:25 8,9 °C 8,9 °C 91 % 1031,6 hPa 0,0 mm 4,0 km/h (1 Bft) N-NO 28 ° 0 min 0,000 mm 0,0 UV-I 0 W/m² 7,5 °C 6,4 km/h (2 Bft)
29.10.2016 18:26 8,9 °C 8,9 °C 91 % 1031,7 hPa 0,0 mm 4,4 km/h (1 Bft) N-NO 27 ° 0 min 0,000 mm 0,0 UV-I 0 W/m² 7,5 °C 6,4 km/h (2 Bft)
29.10.2016 18:27 8,9 °C 8,9 °C 91 % 1031,7 hPa 0,0 mm 5,0 km/h (1 Bft) N-NW 346 ° 0 min 0,000 mm 0,0 UV-I 0 W/m² 7,5 °C 6,4 km/h (2 Bft)
29.10.2016 18:28 8,9 °C 8,9 °C 91 % 1031,7 hPa 0,0 mm 3,5 km/h (1 Bft) N-NW 339 ° 0 min 0,000 mm 0,0 UV-I 0 W/m² 7,5 °C 4,8 km/h (1 Bft)
29.10.2016 18:29 8,9 °C 8,9 °C 91 % 1031,7 hPa 0,0 mm 3,4 km/h (1 Bft) NW 305 ° 0 min 0,000 mm 0,0 UV-I 0 W/m² 7,5 °C 4,8 km/h (1 Bft)
29.10.2016 18:30 8,9 °C 8,9 °C 91 % 1031,7 hPa 0,0 mm 2,7 km/h (1 Bft) NW 312 ° 0 min 0,000 mm 0,0 UV-I 0 W/m² 7,5 °C 3,2 km/h (1 Bft)
29.10.2016 18:31 8,9 °C 8,9 °C 91 % 1031,7 hPa 0,0 mm 3,3 km/h (1 Bft) NW 314 ° 0 min 0,000 mm 0,0 UV-I 0 W/m² 7,5 °C 4,8 km/h (1 Bft)
29.10.2016 18:32 8,9 °C 8,9 °C 91 % 1031,7 hPa 0,0 mm 3,4 km/h (1 Bft) N-NW 329 ° 0 min 0,000 mm 0,0 UV-I 0 W/m² 7,5 °C 4,8 km/h (1 Bft)
29.10.2016 18:33 8,9 °C 8,9 °C 91 % 1031,7 hPa 0,0 mm 3,4 km/h (1 Bft) N-NO 20 ° 0 min 0,000 mm 0,0 UV-I 0 W/m² 7,5 °C 4,8 km/h (1 Bft)
29.10.2016 18:34 8,9 °C 8,9 °C 91 % 1031,7 hPa 0,0 mm 1,3 km/h (1 Bft) N-NO 20 ° 0 min 0,000 mm 0,0 UV-I 0 W/m² 7,5 °C 3,2 km/h (1 Bft)
29.10.2016 18:35 8,9 °C 8,9 °C 91 % 1031,7 hPa 0,0 mm 1,7 km/h (1 Bft) N-NO 20 ° 0 min 0,000 mm 0,0 UV-I 0 W/m² 7,5 °C 3,2 km/h (1 Bft)
29.10.2016 18:36 8,9 °C 8,9 °C 91 % 1031,7 hPa 0,0 mm 1,1 km/h (1 Bft) N-NO 20 ° 0 min 0,000 mm 0,0 UV-I 0 W/m² 7,5 °C 1,6 km/h (1 Bft)
29.10.2016 18:37 8,9 °C 8,9 °C 91 % 1031,7 hPa 0,0 mm 1,1 km/h (1 Bft) N-NO 20 ° 0 min 0,000 mm 0,0 UV-I 0 W/m² 7,5 °C 1,6 km/h (1 Bft)
29.10.2016 18:38 8,9 °C 8,9 °C 91 % 1031,7 hPa 0,0 mm 0,8 km/h (0 Bft) N-NO 20 ° 0 min 0,000 mm 0,0 UV-I 0 W/m² 7,5 °C 3,2 km/h (1 Bft)
29.10.2016 18:39 8,9 °C 8,9 °C 91 % 1031,7 hPa 0,0 mm 1,3 km/h (1 Bft) N-NO 20 ° 0 min 0,000 mm 0,0 UV-I 0 W/m² 7,5 °C 3,2 km/h (1 Bft)
29.10.2016 18:40 8,9 °C 8,9 °C 91 % 1031,7 hPa 0,0 mm 1,9 km/h (1 Bft) N-NO 20 ° 0 min 0,000 mm 0,0 UV-I 0 W/m² 7,5 °C 3,2 km/h (1 Bft)
29.10.2016 18:41 8,9 °C 8,9 °C 91 % 1031,7 hPa 0,0 mm 1,0 km/h (0 Bft) N-NO 20 ° 0 min 0,000 mm 0,0 UV-I 0 W/m² 7,5 °C 3,2 km/h (1 Bft)
29.10.2016 18:42 8,9 °C 8,9 °C 91 % 1031,7 hPa 0,0 mm 0,0 km/h (0 Bft) N-NO 20 ° 0 min 0,000 mm 0,0 UV-I 0 W/m² 7,5 °C 0,0 km/h (0 Bft)
29.10.2016 18:43 8,9 °C 8,9 °C 91 % 1031,7 hPa 0,0 mm 0,0 km/h (0 Bft) N-NO 20 ° 0 min 0,000 mm 0,0 UV-I 0 W/m² 7,5 °C 0,0 km/h (0 Bft)
29.10.2016 18:44 8,8 °C 8,9 °C 91 % 1031,6 hPa 0,0 mm 0,0 km/h (0 Bft) N-NO 20 ° 0 min 0,000 mm 0,0 UV-I 0 W/m² 7,4 °C 0,0 km/h (0 Bft)
29.10.2016 18:45 8,8 °C 8,9 °C 91 % 1031,6 hPa 0,0 mm 0,0 km/h (0 Bft) N-NO 20 ° 0 min 0,000 mm 0,0 UV-I 0 W/m² 7,4 °C 0,0 km/h (0 Bft)
29.10.2016 18:46 8,8 °C 8,8 °C 91 % 1031,6 hPa 0,0 mm 0,0 km/h (0 Bft) N-NO 20 ° 0 min 0,000 mm 0,0 UV-I 0 W/m² 7,4 °C 0,0 km/h (0 Bft)
29.10.2016 18:47 8,8 °C 8,8 °C 91 % 1031,6 hPa 0,0 mm 0,1 km/h (0 Bft) N-NO 20 ° 0 min 0,000 mm 0,0 UV-I 0 W/m² 7,4 °C 1,6 km/h (1 Bft)
29.10.2016 18:48 8,8 °C 8,8 °C 91 % 1031,6 hPa 0,0 mm 0,0 km/h (0 Bft) N-NO 20 ° 0 min 0,000 mm 0,0 UV-I 0 W/m² 7,4 °C 0,0 km/h (0 Bft)
29.10.2016 18:49 8,8 °C 8,8 °C 91 % 1031,6 hPa 0,0 mm 0,0 km/h (0 Bft) N-NO 20 ° 0 min 0,000 mm 0,0 UV-I 0 W/m² 7,4 °C 0,0 km/h (0 Bft)
29.10.2016 18:50 8,8 °C 8,8 °C 91 % 1031,6 hPa 0,0 mm 0,0 km/h (0 Bft) N-NO 20 ° 0 min 0,000 mm 0,0 UV-I 0 W/m² 7,4 °C 0,0 km/h (0 Bft)
29.10.2016 18:51 8,8 °C 8,8 °C 91 % 1031,6 hPa 0,0 mm 0,0 km/h (0 Bft) N-NO 20 ° 0 min 0,000 mm 0,0 UV-I 0 W/m² 7,4 °C 0,0 km/h (0 Bft)
29.10.2016 18:52 8,8 °C 8,8 °C 91 % 1031,7 hPa 0,0 mm 0,0 km/h (0 Bft) N-NO 20 ° 0 min 0,000 mm 0,0 UV-I 0 W/m² 7,4 °C 0,0 km/h (0 Bft)
29.10.2016 18:53 8,8 °C 8,8 °C 91 % 1031,7 hPa 0,0 mm 0,2 km/h (0 Bft) N-NO 20 ° 0 min 0,000 mm 0,0 UV-I 0 W/m² 7,4 °C 1,6 km/h (1 Bft)
29.10.2016 18:54 8,8 °C 8,8 °C 91 % 1031,7 hPa 0,0 mm 1,5 km/h (1 Bft) N 355 ° 0 min 0,000 mm 0,0 UV-I 0 W/m² 7,4 °C 3,2 km/h (1 Bft)
29.10.2016 18:55 8,8 °C 8,8 °C 91 % 1031,7 hPa 0,0 mm 1,8 km/h (1 Bft) N 355 ° 0 min 0,000 mm 0,0 UV-I 0 W/m² 7,4 °C 3,2 km/h (1 Bft)
29.10.2016 18:56 8,8 °C 8,8 °C 91 % 1031,7 hPa 0,0 mm 1,3 km/h (1 Bft) N 355 ° 0 min 0,000 mm 0,0 UV-I 0 W/m² 7,4 °C 3,2 km/h (1 Bft)
29.10.2016 18:57 8,8 °C 8,8 °C 91 % 1031,7 hPa 0,0 mm 1,4 km/h (1 Bft) N 355 ° 0 min 0,000 mm 0,0 UV-I 0 W/m² 7,4 °C 1,6 km/h (1 Bft)
29.10.2016 18:58 8,8 °C 8,8 °C 91 % 1031,7 hPa 0,0 mm 0,4 km/h (0 Bft) N 355 ° 0 min 0,000 mm 0,0 UV-I 0 W/m² 7,4 °C 1,6 km/h (1 Bft)
29.10.2016 18:59 8,8 °C 8,8 °C 91 % 1031,7 hPa 0,0 mm 0,0 km/h (0 Bft) N 355 ° 0 min 0,000 mm 0,0 UV-I 0 W/m² 7,4 °C 0,0 km/h (0 Bft)
29.10.2016 19:00 8,8 °C 8,8 °C 91 % 1031,7 hPa 0,0 mm 1,0 km/h (0 Bft) N 355 ° 0 min 0,000 mm 0,0 UV-I 0 W/m² 7,4 °C 1,6 km/h (1 Bft)
29.10.2016 19:01 8,8 °C 8,8 °C 91 % 1031,7 hPa 0,0 mm 0,6 km/h (0 Bft) N 355 ° 0 min 0,000 mm 0,0 UV-I 0 W/m² 7,4 °C 1,6 km/h (1 Bft)
29.10.2016 19:02 8,8 °C 8,8 °C 91 % 1031,7 hPa 0,0 mm 0,1 km/h (0 Bft) N 355 ° 0 min 0,000 mm 0,0 UV-I 0 W/m² 7,4 °C 1,6 km/h (1 Bft)
29.10.2016 19:03 8,8 °C 8,8 °C 91 % 1031,8 hPa 0,0 mm 1,0 km/h (0 Bft) N 355 ° 0 min 0,000 mm 0,0 UV-I 0 W/m² 7,4 °C 3,2 km/h (1 Bft)
29.10.2016 19:04 8,8 °C 8,8 °C 91 % 1031,8 hPa 0,0 mm 2,0 km/h (1 Bft) N 355 ° 0 min 0,000 mm 0,0 UV-I 0 W/m² 7,4 °C 3,2 km/h (1 Bft)
29.10.2016 19:05 8,8 °C 8,8 °C 91 % 1031,8 hPa 0,0 mm 0,7 km/h (0 Bft) N 355 ° 0 min 0,000 mm 0,0 UV-I 0 W/m² 7,4 °C 1,6 km/h (1 Bft)
29.10.2016 19:06 8,8 °C 8,8 °C 91 % 1031,8 hPa 0,0 mm 0,1 km/h (0 Bft) N 355 ° 0 min 0,000 mm 0,0 UV-I 0 W/m² 7,4 °C 1,6 km/h (1 Bft)
29.10.2016 19:07 8,8 °C 8,8 °C 91 % 1031,8 hPa 0,0 mm 0,0 km/h (0 Bft) N 355 ° 0 min 0,000 mm 0,0 UV-I 0 W/m² 7,4 °C 0,0 km/h (0 Bft)
29.10.2016 19:08 8,8 °C 8,8 °C 91 % 1031,8 hPa 0,0 mm 0,2 km/h (0 Bft) N 355 ° 0 min 0,000 mm 0,0 UV-I 0 W/m² 7,4 °C 1,6 km/h (1 Bft)
29.10.2016 19:09 8,8 °C 8,8 °C 91 % 1031,8 hPa 0,0 mm 0,0 km/h (0 Bft) N 355 ° 0 min 0,000 mm 0,0 UV-I 0 W/m² 7,4 °C 0,0 km/h (0 Bft)
29.10.2016 19:10 8,8 °C 8,8 °C 91 % 1031,8 hPa 0,0 mm 0,2 km/h (0 Bft) N 355 ° 0 min 0,000 mm 0,0 UV-I 0 W/m² 7,4 °C 1,6 km/h (1 Bft)
29.10.2016 19:11 8,8 °C 8,8 °C 91 % 1031,8 hPa 0,0 mm 0,9 km/h (0 Bft) N 355 ° 0 min 0,000 mm 0,0 UV-I 0 W/m² 7,4 °C 1,6 km/h (1 Bft)
29.10.2016 19:12 8,8 °C 8,8 °C 91 % 1031,8 hPa 0,0 mm 1,8 km/h (1 Bft) N 355 ° 0 min 0,000 mm 0,0 UV-I 0 W/m² 7,4 °C 3,2 km/h (1 Bft)
29.10.2016 19:13 8,8 °C 8,8 °C 91 % 1031,8 hPa 0,0 mm 0,9 km/h (0 Bft) N 355 ° 0 min 0,000 mm 0,0 UV-I 0 W/m² 7,4 °C 1,6 km/h (1 Bft)
29.10.2016 19:14 8,8 °C 8,8 °C 91 % 1031,8 hPa 0,0 mm 0,0 km/h (0 Bft) N 355 ° 0 min 0,000 mm 0,0 UV-I 0 W/m² 7,4 °C 0,0 km/h (0 Bft)
29.10.2016 19:15 8,8 °C 8,8 °C 91 % 1031,9 hPa 0,0 mm 2,1 km/h (1 Bft) N 355 ° 0 min 0,000 mm 0,0 UV-I 0 W/m² 7,4 °C 3,2 km/h (1 Bft)
29.10.2016 19:16 8,8 °C 8,8 °C 91 % 1031,9 hPa 0,0 mm 1,7 km/h (1 Bft) N 355 ° 0 min 0,000 mm 0,0 UV-I 0 W/m² 7,4 °C 3,2 km/h (1 Bft)
29.10.2016 19:17 8,7 °C 8,8 °C 91 % 1031,8 hPa 0,0 mm 0,7 km/h (0 Bft) N 355 ° 0 min 0,000 mm 0,0 UV-I 0 W/m² 7,3 °C 1,6 km/h (1 Bft)
29.10.2016 19:18 8,7 °C 8,7 °C 91 % 1031,9 hPa 0,0 mm 0,1 km/h (0 Bft) N 355 ° 0 min 0,000 mm 0,0 UV-I 0 W/m² 7,3 °C 1,6 km/h (1 Bft)
29.10.2016 19:19 8,7 °C 8,7 °C 91 % 1031,8 hPa 0,0 mm 0,1 km/h (0 Bft) N 355 ° 0 min 0,000 mm 0,0 UV-I 0 W/m² 7,3 °C 1,6 km/h (1 Bft)
29.10.2016 19:20 8,7 °C 8,8 °C 91 % 1031,8 hPa 0,0 mm 0,0 km/h (0 Bft) N 355 ° 0 min 0,000 mm 0,0 UV-I 0 W/m² 7,3 °C 0,0 km/h (0 Bft)
29.10.2016 19:21 8,7 °C 8,7 °C 91 % 1031,8 hPa 0,0 mm 0,0 km/h (0 Bft) N 355 ° 0 min 0,000 mm 0,0 UV-I 0 W/m² 7,3 °C 0,0 km/h (0 Bft)
29.10.2016 19:22 8,7 °C 8,8 °C 91 % 1031,8 hPa 0,0 mm 0,4 km/h (0 Bft) N 355 ° 0 min 0,000 mm 0,0 UV-I 0 W/m² 7,3 °C 1,6 km/h (1 Bft)
29.10.2016 19:23 8,8 °C 8,8 °C 91 % 1031,8 hPa 0,0 mm 0,8 km/h (0 Bft) N 355 ° 0 min 0,000 mm 0,0 UV-I 0 W/m² 7,4 °C 1,6 km/h (1 Bft)
29.10.2016 19:24 8,8 °C 8,8 °C 91 % 1031,9 hPa 0,0 mm 0,5 km/h (0 Bft) N 355 ° 0 min 0,000 mm 0,0 UV-I 0 W/m² 7,4 °C 1,6 km/h (1 Bft)
29.10.2016 19:25 8,7 °C 8,8 °C 91 % 1031,9 hPa 0,0 mm 0,5 km/h (0 Bft) N 355 ° 0 min 0,000 mm 0,0 UV-I 0 W/m² 7,3 °C 1,6 km/h (1 Bft)
29.10.2016 19:26 8,8 °C 8,8 °C 91 % 1031,9 hPa 0,0 mm 0,8 km/h (0 Bft) N 355 ° 0 min 0,000 mm 0,0 UV-I 0 W/m² 7,4 °C 1,6 km/h (1 Bft)
29.10.2016 19:27 8,7 °C 8,8 °C 91 % 1031,8 hPa 0,0 mm 0,0 km/h (0 Bft) N 355 ° 0 min 0,000 mm 0,0 UV-I 0 W/m² 7,3 °C 0,0 km/h (0 Bft)
29.10.2016 19:28 8,7 °C 8,7 °C 91 % 1031,9 hPa 0,0 mm 0,0 km/h (0 Bft) N 355 ° 0 min 0,000 mm 0,0 UV-I 0 W/m² 7,3 °C 0,0 km/h (0 Bft)
29.10.2016 19:29 8,7 °C 8,7 °C 91 % 1031,9 hPa 0,0 mm 0,0 km/h (0 Bft) N 355 ° 0 min 0,000 mm 0,0 UV-I 0 W/m² 7,3 °C 0,0 km/h (0 Bft)
29.10.2016 19:30 8,7 °C 8,8 °C 91 % 1031,9 hPa 0,0 mm 0,0 km/h (0 Bft) N 355 ° 0 min 0,000 mm 0,0 UV-I 0 W/m² 7,3 °C 0,0 km/h (0 Bft)
29.10.2016 19:31 8,7 °C 8,7 °C 91 % 1031,9 hPa 0,0 mm 0,0 km/h (0 Bft) N 355 ° 0 min 0,000 mm 0,0 UV-I 0 W/m² 7,3 °C 0,0 km/h (0 Bft)
29.10.2016 19:32 8,7 °C 8,7 °C 91 % 1031,8 hPa 0,0 mm 0,0 km/h (0 Bft) N 355 ° 0 min 0,000 mm 0,0 UV-I 0 W/m² 7,3 °C 0,0 km/h (0 Bft)
29.10.2016 19:33 8,7 °C 8,7 °C 91 % 1031,8 hPa 0,0 mm 0,0 km/h (0 Bft) N 355 ° 0 min 0,000 mm 0,0 UV-I 0 W/m² 7,3 °C 0,0 km/h (0 Bft)
29.10.2016 19:34 8,7 °C 8,7 °C 91 % 1031,8 hPa 0,0 mm 0,0 km/h (0 Bft) N 355 ° 0 min 0,000 mm 0,0 UV-I 0 W/m² 7,3 °C 0,0 km/h (0 Bft)
29.10.2016 19:35 8,7 °C 8,7 °C 91 % 1031,8 hPa 0,0 mm 0,0 km/h (0 Bft) N 355 ° 0 min 0,000 mm 0,0 UV-I 0 W/m² 7,3 °C 0,0 km/h (0 Bft)
29.10.2016 19:36 8,7 °C 8,7 °C 91 % 1031,8 hPa 0,0 mm 0,0 km/h (0 Bft) N 355 ° 0 min 0,000 mm 0,0 UV-I 0 W/m² 7,3 °C 0,0 km/h (0 Bft)
29.10.2016 19:37 8,7 °C 8,7 °C 91 % 1031,8 hPa 0,0 mm 0,0 km/h (0 Bft) N 355 ° 0 min 0,000 mm 0,0 UV-I 0 W/m² 7,3 °C 0,0 km/h (0 Bft)
29.10.2016 19:38 8,7 °C 8,7 °C 91 % 1031,8 hPa 0,0 mm 0,0 km/h (0 Bft) N 355 ° 0 min 0,000 mm 0,0 UV-I 0 W/m² 7,3 °C 0,0 km/h (0 Bft)
29.10.2016 19:39 8,7 °C 8,7 °C 91 % 1031,8 hPa 0,0 mm 0,0 km/h (0 Bft) N 355 ° 0 min 0,000 mm 0,0 UV-I 0 W/m² 7,3 °C 0,0 km/h (0 Bft)
29.10.2016 19:40 8,7 °C 8,7 °C 92 % 1031,8 hPa 0,0 mm 0,0 km/h (0 Bft) N 355 ° 0 min 0,000 mm 0,0 UV-I 0 W/m² 7,5 °C 0,0 km/h (0 Bft)
29.10.2016 19:41 8,7 °C 8,7 °C 92 % 1031,8 hPa 0,0 mm 0,0 km/h (0 Bft) N 355 ° 0 min 0,000 mm 0,0 UV-I 0 W/m² 7,5 °C 0,0 km/h (0 Bft)
29.10.2016 19:42 8,7 °C 8,7 °C 92 % 1031,8 hPa 0,0 mm 0,0 km/h (0 Bft) N 355 ° 0 min 0,000 mm 0,0 UV-I 0 W/m² 7,5 °C 0,0 km/h (0 Bft)
29.10.2016 19:43 8,7 °C 8,7 °C 92 % 1031,8 hPa 0,0 mm 0,0 km/h (0 Bft) N 355 ° 0 min 0,000 mm 0,0 UV-I 0 W/m² 7,5 °C 0,0 km/h (0 Bft)
29.10.2016 19:44 8,7 °C 8,7 °C 92 % 1031,7 hPa 0,0 mm 0,0 km/h (0 Bft) N 355 ° 0 min 0,000 mm 0,0 UV-I 0 W/m² 7,5 °C 0,0 km/h (0 Bft)
29.10.2016 19:45 8,7 °C 8,7 °C 92 % 1031,8 hPa 0,0 mm 0,0 km/h (0 Bft) N 355 ° 0 min 0,000 mm 0,0 UV-I 0 W/m² 7,5 °C 0,0 km/h (0 Bft)
29.10.2016 19:46 8,7 °C 8,7 °C 92 % 1031,8 hPa 0,0 mm 0,0 km/h (0 Bft) N 355 ° 0 min 0,000 mm 0,0 UV-I 0 W/m² 7,5 °C 0,0 km/h (0 Bft)
29.10.2016 19:47 8,7 °C 8,7 °C 92 % 1031,7 hPa 0,0 mm 0,0 km/h (0 Bft) N 355 ° 0 min 0,000 mm 0,0 UV-I 0 W/m² 7,5 °C 0,0 km/h (0 Bft)
29.10.2016 19:48 8,7 °C 8,7 °C 92 % 1031,7 hPa 0,0 mm 0,0 km/h (0 Bft) N 355 ° 0 min 0,000 mm 0,0 UV-I 0 W/m² 7,5 °C 0,0 km/h (0 Bft)
29.10.2016 19:49 8,7 °C 8,7 °C 92 % 1031,7 hPa 0,0 mm 0,0 km/h (0 Bft) N 355 ° 0 min 0,000 mm 0,0 UV-I 0 W/m² 7,5 °C 0,0 km/h (0 Bft)
29.10.2016 19:50 8,7 °C 8,7 °C 92 % 1031,7 hPa 0,0 mm 0,0 km/h (0 Bft) N 355 ° 0 min 0,000 mm 0,0 UV-I 0 W/m² 7,5 °C 0,0 km/h (0 Bft)
29.10.2016 19:51 8,7 °C 8,7 °C 92 % 1031,7 hPa 0,0 mm 0,0 km/h (0 Bft) N 355 ° 0 min 0,000 mm 0,0 UV-I 0 W/m² 7,5 °C 0,0 km/h (0 Bft)
29.10.2016 19:52 8,7 °C 8,7 °C 92 % 1031,7 hPa 0,0 mm 0,0 km/h (0 Bft) N 355 ° 0 min 0,000 mm 0,0 UV-I 0 W/m² 7,5 °C 0,0 km/h (0 Bft)
29.10.2016 19:53 8,7 °C 8,7 °C 92 % 1031,7 hPa 0,0 mm 0,0 km/h (0 Bft) N 355 ° 0 min 0,000 mm 0,0 UV-I 0 W/m² 7,5 °C 0,0 km/h (0 Bft)
29.10.2016 19:54 8,7 °C 8,7 °C 92 % 1031,7 hPa 0,0 mm 0,0 km/h (0 Bft) N 355 ° 0 min 0,000 mm 0,0 UV-I 0 W/m² 7,5 °C 0,0 km/h (0 Bft)
29.10.2016 19:55 8,7 °C 8,7 °C 92 % 1031,7 hPa 0,0 mm 0,0 km/h (0 Bft) N 355 ° 0 min 0,000 mm 0,0 UV-I 0 W/m² 7,5 °C 0,0 km/h (0 Bft)
29.10.2016 19:56 8,7 °C 8,7 °C 92 % 1031,7 hPa 0,0 mm 0,0 km/h (0 Bft) N 355 ° 0 min 0,000 mm 0,0 UV-I 0 W/m² 7,5 °C 0,0 km/h (0 Bft)
29.10.2016 19:57 8,7 °C 8,7 °C 92 % 1031,7 hPa 0,0 mm 0,0 km/h (0 Bft) N 355 ° 0 min 0,000 mm 0,0 UV-I 0 W/m² 7,5 °C 0,0 km/h (0 Bft)
29.10.2016 19:58 8,7 °C 8,7 °C 92 % 1031,7 hPa 0,0 mm 0,0 km/h (0 Bft) N 355 ° 0 min 0,000 mm 0,0 UV-I 0 W/m² 7,5 °C 0,0 km/h (0 Bft)
29.10.2016 19:59 8,7 °C 8,7 °C 92 % 1031,7 hPa 0,0 mm 0,4 km/h (0 Bft) N 355 ° 0 min 0,000 mm 0,0 UV-I 0 W/m² 7,5 °C 1,6 km/h (1 Bft)
29.10.2016 20:00 8,6 °C 8,7 °C 92 % 1031,8 hPa 0,0 mm 0,5 km/h (0 Bft) N 355 ° 0 min 0,000 mm 0,0 UV-I 0 W/m² 7,4 °C 1,6 km/h (1 Bft)
29.10.2016 20:01 8,6 °C 8,7 °C 92 % 1031,8 hPa 0,0 mm 0,5 km/h (0 Bft) N 355 ° 0 min 0,000 mm 0,0 UV-I 0 W/m² 7,4 °C 1,6 km/h (1 Bft)
29.10.2016 20:02 8,6 °C 8,6 °C 92 % 1031,7 hPa 0,0 mm 0,1 km/h (0 Bft) N 355 ° 0 min 0,000 mm 0,0 UV-I 0 W/m² 7,4 °C 1,6 km/h (1 Bft)
29.10.2016 20:03 8,6 °C 8,6 °C 92 % 1031,8 hPa 0,0 mm 0,0 km/h (0 Bft) N 355 ° 0 min 0,000 mm 0,0 UV-I 0 W/m² 7,4 °C 0,0 km/h (0 Bft)
29.10.2016 20:04 8,6 °C 8,6 °C 92 % 1031,8 hPa 0,0 mm 0,0 km/h (0 Bft) N 355 ° 0 min 0,000 mm 0,0 UV-I 0 W/m² 7,4 °C 0,0 km/h (0 Bft)
29.10.2016 20:05 8,6 °C 8,6 °C 92 % 1031,8 hPa 0,0 mm 0,0 km/h (0 Bft) N 355 ° 0 min 0,000 mm 0,0 UV-I 0 W/m² 7,4 °C 0,0 km/h (0 Bft)
29.10.2016 20:06 8,6 °C 8,6 °C 92 % 1031,8 hPa 0,0 mm 0,0 km/h (0 Bft) N 355 ° 0 min 0,000 mm 0,0 UV-I 0 W/m² 7,4 °C 0,0 km/h (0 Bft)
29.10.2016 20:07 8,6 °C 8,6 °C 92 % 1031,8 hPa 0,0 mm 0,0 km/h (0 Bft) N 355 ° 0 min 0,000 mm 0,0 UV-I 0 W/m² 7,4 °C 0,0 km/h (0 Bft)
29.10.2016 20:08 8,6 °C 8,6 °C 92 % 1031,8 hPa 0,0 mm 0,0 km/h (0 Bft) N 355 ° 0 min 0,000 mm 0,0 UV-I 0 W/m² 7,4 °C 0,0 km/h (0 Bft)
29.10.2016 20:09 8,6 °C 8,6 °C 92 % 1031,8 hPa 0,0 mm 0,4 km/h (0 Bft) N 355 ° 0 min 0,000 mm 0,0 UV-I 0 W/m² 7,4 °C 1,6 km/h (1 Bft)
29.10.2016 20:10 8,6 °C 8,6 °C 92 % 1031,8 hPa 0,0 mm 1,1 km/h (1 Bft) N 360 ° 0 min 0,000 mm 0,0 UV-I 0 W/m² 7,4 °C 3,2 km/h (1 Bft)
29.10.2016 20:11 8,6 °C 8,6 °C 92 % 1031,8 hPa 0,0 mm 1,9 km/h (1 Bft) N 360 ° 0 min 0,000 mm 0,0 UV-I 0 W/m² 7,4 °C 3,2 km/h (1 Bft)
29.10.2016 20:12 8,6 °C 8,6 °C 92 % 1031,8 hPa 0,0 mm 1,9 km/h (1 Bft) N 360 ° 0 min 0,000 mm 0,0 UV-I 0 W/m² 7,4 °C 3,2 km/h (1 Bft)
29.10.2016 20:13 8,6 °C 8,7 °C 92 % 1031,8 hPa 0,0 mm 1,0 km/h (0 Bft) N 360 ° 0 min 0,000 mm 0,0 UV-I 0 W/m² 7,4 °C 3,2 km/h (1 Bft)
29.10.2016 20:14 8,7 °C 8,7 °C 92 % 1031,8 hPa 0,0 mm 0,1 km/h (0 Bft) N 360 ° 0 min 0,000 mm 0,0 UV-I 0 W/m² 7,5 °C 1,6 km/h (1 Bft)
29.10.2016 20:15 8,7 °C 8,7 °C 92 % 1031,8 hPa 0,0 mm 0,5 km/h (0 Bft) N 360 ° 0 min 0,000 mm 0,0 UV-I 0 W/m² 7,5 °C 1,6 km/h (1 Bft)
29.10.2016 20:16 8,7 °C 8,7 °C 92 % 1031,9 hPa 0,0 mm 1,3 km/h (1 Bft) N 360 ° 0 min 0,000 mm 0,0 UV-I 0 W/m² 7,5 °C 3,2 km/h (1 Bft)
29.10.2016 20:17 8,7 °C 8,7 °C 92 % 1031,9 hPa 0,0 mm 1,3 km/h (1 Bft) N 360 ° 0 min 0,000 mm 0,0 UV-I 0 W/m² 7,5 °C 3,2 km/h (1 Bft)
29.10.2016 20:18 8,7 °C 8,7 °C 92 % 1031,9 hPa 0,0 mm 2,0 km/h (1 Bft) N 5 ° 0 min 0,000 mm 0,0 UV-I 0 W/m² 7,5 °C 3,2 km/h (1 Bft)
29.10.2016 20:19 8,7 °C 8,7 °C 92 % 1031,9 hPa 0,0 mm 1,4 km/h (1 Bft) N 5 ° 0 min 0,000 mm 0,0 UV-I 0 W/m² 7,5 °C 3,2 km/h (1 Bft)
29.10.2016 20:20 8,7 °C 8,7 °C 92 % 1031,9 hPa 0,0 mm 1,3 km/h (1 Bft) N 5 ° 0 min 0,000 mm 0,0 UV-I 0 W/m² 7,5 °C 3,2 km/h (1 Bft)
29.10.2016 20:21 8,7 °C 8,7 °C 92 % 1031,9 hPa 0,0 mm 3,1 km/h (1 Bft) N 5 ° 0 min 0,000 mm 0,0 UV-I 0 W/m² 7,5 °C 4,8 km/h (1 Bft)
29.10.2016 20:22 8,7 °C 8,7 °C 92 % 1031,9 hPa 0,0 mm 2,9 km/h (1 Bft) N 5 ° 0 min 0,000 mm 0,0 UV-I 0 W/m² 7,5 °C 4,8 km/h (1 Bft)
29.10.2016 20:23 8,7 °C 8,7 °C 92 % 1032,0 hPa 0,0 mm 1,0 km/h (0 Bft) N 5 ° 0 min 0,000 mm 0,0 UV-I 0 W/m² 7,5 °C 1,6 km/h (1 Bft)
29.10.2016 20:24 8,7 °C 8,7 °C 92 % 1031,9 hPa 0,0 mm 0,3 km/h (0 Bft) N 5 ° 0 min 0,000 mm 0,0 UV-I 0 W/m² 7,5 °C 1,6 km/h (1 Bft)
29.10.2016 20:25 8,7 °C 8,7 °C 92 % 1031,9 hPa 0,0 mm 0,0 km/h (0 Bft) N 5 ° 0 min 0,000 mm 0,0 UV-I 0 W/m² 7,5 °C 0,0 km/h (0 Bft)
29.10.2016 20:26 8,7 °C 8,7 °C 92 % 1031,9 hPa 0,0 mm 0,9 km/h (0 Bft) N 5 ° 0 min 0,000 mm 0,0 UV-I 0 W/m² 7,5 °C 1,6 km/h (1 Bft)
29.10.2016 20:27 8,7 °C 8,7 °C 92 % 1031,9 hPa 0,0 mm 1,3 km/h (1 Bft) N 5 ° 0 min 0,000 mm 0,0 UV-I 0 W/m² 7,5 °C 1,6 km/h (1 Bft)
29.10.2016 20:28 8,7 °C 8,7 °C 92 % 1031,9 hPa 0,0 mm 1,6 km/h (1 Bft) N 5 ° 0 min 0,000 mm 0,0 UV-I 0 W/m² 7,5 °C 3,2 km/h (1 Bft)
29.10.2016 20:29 8,7 °C 8,7 °C 92 % 1031,9 hPa 0,0 mm 1,7 km/h (1 Bft) N 5 ° 0 min 0,000 mm 0,0 UV-I 0 W/m² 7,5 °C 3,2 km/h (1 Bft)
29.10.2016 20:30 8,7 °C 8,7 °C 92 % 1031,9 hPa 0,0 mm 2,1 km/h (1 Bft) N 5 ° 0 min 0,000 mm 0,0 UV-I 0 W/m² 7,5 °C 3,2 km/h (1 Bft)
29.10.2016 20:31 8,7 °C 8,7 °C 92 % 1031,9 hPa 0,0 mm 0,9 km/h (0 Bft) N 5 ° 0 min 0,000 mm 0,0 UV-I 0 W/m² 7,5 °C 1,6 km/h (1 Bft)
29.10.2016 20:32 8,7 °C 8,7 °C 92 % 1031,9 hPa 0,0 mm 0,0 km/h (0 Bft) N 5 ° 0 min 0,000 mm 0,0 UV-I 0 W/m² 7,5 °C 0,0 km/h (0 Bft)
29.10.2016 20:33 8,7 °C 8,7 °C 92 % 1031,9 hPa 0,0 mm 0,3 km/h (0 Bft) N 5 ° 0 min 0,000 mm 0,0 UV-I 0 W/m² 7,5 °C 1,6 km/h (1 Bft)
29.10.2016 20:34 8,7 °C 8,7 °C 92 % 1031,9 hPa 0,0 mm 0,1 km/h (0 Bft) N 5 ° 0 min 0,000 mm 0,0 UV-I 0 W/m² 7,5 °C 1,6 km/h (1 Bft)
29.10.2016 20:35 8,6 °C 8,7 °C 92 % 1031,9 hPa 0,0 mm 0,1 km/h (0 Bft) N 5 ° 0 min 0,000 mm 0,0 UV-I 0 W/m² 7,4 °C 1,6 km/h (1 Bft)
29.10.2016 20:36 8,7 °C 8,7 °C 92 % 1031,9 hPa 0,0 mm 1,0 km/h (0 Bft) N 5 ° 0 min 0,000 mm 0,0 UV-I 0 W/m² 7,5 °C 1,6 km/h (1 Bft)
29.10.2016 20:37 8,6 °C 8,7 °C 92 % 1031,9 hPa 0,0 mm 1,0 km/h (0 Bft) N 5 ° 0 min 0,000 mm 0,0 UV-I 0 W/m² 7,4 °C 1,6 km/h (1 Bft)
29.10.2016 20:38 8,6 °C 8,7 °C 92 % 1031,9 hPa 0,0 mm 0,5 km/h (0 Bft) N 5 ° 0 min 0,000 mm 0,0 UV-I 0 W/m² 7,4 °C 1,6 km/h (1 Bft)
29.10.2016 20:39 8,7 °C 8,7 °C 92 % 1031,9 hPa 0,0 mm 1,3 km/h (1 Bft) N 5 ° 0 min 0,000 mm 0,0 UV-I 0 W/m² 7,5 °C 3,2 km/h (1 Bft)
29.10.2016 20:40 8,6 °C 8,7 °C 92 % 1031,9 hPa 0,0 mm 1,7 km/h (1 Bft) N 5 ° 0 min 0,000 mm 0,0 UV-I 0 W/m² 7,4 °C 3,2 km/h (1 Bft)
29.10.2016 20:41 8,6 °C 8,7 °C 92 % 1031,9 hPa 0,0 mm 0,8 km/h (0 Bft) N 5 ° 0 min 0,000 mm 0,0 UV-I 0 W/m² 7,4 °C 1,6 km/h (1 Bft)
29.10.2016 20:42 8,6 °C 8,6 °C 92 % 1031,9 hPa 0,0 mm 0,7 km/h (0 Bft) N 5 ° 0 min 0,000 mm 0,0 UV-I 0 W/m² 7,4 °C 1,6 km/h (1 Bft)
29.10.2016 20:43 8,6 °C 8,7 °C 92 % 1031,9 hPa 0,0 mm 0,1 km/h (0 Bft) N 5 ° 0 min 0,000 mm 0,0 UV-I 0 W/m² 7,4 °C 1,6 km/h (1 Bft)
29.10.2016 20:44 8,6 °C 8,6 °C 92 % 1031,9 hPa 0,0 mm 1,1 km/h (1 Bft) N 5 ° 0 min 0,000 mm 0,0 UV-I 0 W/m² 7,4 °C 3,2 km/h (1 Bft)
29.10.2016 20:45 8,6 °C 8,6 °C 92 % 1031,9 hPa 0,0 mm 1,1 km/h (1 Bft) N 5 ° 0 min 0,000 mm 0,0 UV-I 0 W/m² 7,4 °C 1,6 km/h (1 Bft)
29.10.2016 20:46 8,6 °C 8,6 °C 92 % 1031,9 hPa 0,0 mm 0,0 km/h (0 Bft) N 5 ° 0 min 0,000 mm 0,0 UV-I 0 W/m² 7,4 °C 0,0 km/h (0 Bft)
29.10.2016 20:47 8,6 °C 8,6 °C 92 % 1031,9 hPa 0,0 mm 0,0 km/h (0 Bft) N 5 ° 0 min 0,000 mm 0,0 UV-I 0 W/m² 7,4 °C 0,0 km/h (0 Bft)
29.10.2016 20:48 8,6 °C 8,6 °C 92 % 1031,9 hPa 0,0 mm 0,0 km/h (0 Bft) N 5 ° 0 min 0,000 mm 0,0 UV-I 0 W/m² 7,4 °C 0,0 km/h (0 Bft)
29.10.2016 20:49 8,6 °C 8,6 °C 92 % 1031,9 hPa 0,0 mm 0,0 km/h (0 Bft) N 5 ° 0 min 0,000 mm 0,0 UV-I 0 W/m² 7,4 °C 0,0 km/h (0 Bft)
29.10.2016 20:50 8,6 °C 8,6 °C 92 % 1031,9 hPa 0,0 mm 0,0 km/h (0 Bft) N 5 ° 0 min 0,000 mm 0,0 UV-I 0 W/m² 7,4 °C 0,0 km/h (0 Bft)
29.10.2016 20:51 8,6 °C 8,6 °C 92 % 1031,9 hPa 0,0 mm 0,8 km/h (0 Bft) N 5 ° 0 min 0,000 mm 0,0 UV-I 0 W/m² 7,4 °C 1,6 km/h (1 Bft)
29.10.2016 20:52 8,6 °C 8,6 °C 92 % 1031,9 hPa 0,0 mm 0,0 km/h (0 Bft) N 5 ° 0 min 0,000 mm 0,0 UV-I 0 W/m² 7,4 °C 0,0 km/h (0 Bft)
29.10.2016 20:53 8,6 °C 8,6 °C 92 % 1031,9 hPa 0,0 mm 0,0 km/h (0 Bft) N 5 ° 0 min 0,000 mm 0,0 UV-I 0 W/m² 7,4 °C 0,0 km/h (0 Bft)
29.10.2016 20:54 8,6 °C 8,6 °C 92 % 1031,8 hPa 0,0 mm 0,0 km/h (0 Bft) N 5 ° 0 min 0,000 mm 0,0 UV-I 0 W/m² 7,4 °C 0,0 km/h (0 Bft)
29.10.2016 20:55 8,6 °C 8,6 °C 92 % 1031,8 hPa 0,0 mm 0,0 km/h (0 Bft) N 5 ° 0 min 0,000 mm 0,0 UV-I 0 W/m² 7,4 °C 0,0 km/h (0 Bft)
29.10.2016 20:56 8,6 °C 8,6 °C 92 % 1031,8 hPa 0,0 mm 0,1 km/h (0 Bft) N 5 ° 0 min 0,000 mm 0,0 UV-I 0 W/m² 7,4 °C 1,6 km/h (1 Bft)
29.10.2016 20:57 8,6 °C 8,6 °C 92 % 1031,8 hPa 0,0 mm 0,0 km/h (0 Bft) N 5 ° 0 min 0,000 mm 0,0 UV-I 0 W/m² 7,4 °C 0,0 km/h (0 Bft)
29.10.2016 20:58 8,5 °C 8,6 °C 92 % 1031,8 hPa 0,0 mm 0,0 km/h (0 Bft) N 5 ° 0 min 0,000 mm 0,0 UV-I 0 W/m² 7,3 °C 0,0 km/h (0 Bft)
29.10.2016 20:59 8,5 °C 8,5 °C 93 % 1031,8 hPa 0,0 mm 0,0 km/h (0 Bft) N 5 ° 0 min 0,000 mm 0,0 UV-I 0 W/m² 7,4 °C 0,0 km/h (0 Bft)
29.10.2016 21:00 8,5 °C 8,6 °C 92 % 1031,8 hPa 0,0 mm 0,8 km/h (0 Bft) N 5 ° 0 min 0,000 mm 0,0 UV-I 0 W/m² 7,3 °C 1,6 km/h (1 Bft)
29.10.2016 21:01 8,5 °C 8,5 °C 93 % 1031,9 hPa 0,0 mm 0,6 km/h (0 Bft) N 5 ° 0 min 0,000 mm 0,0 UV-I 0 W/m² 7,4 °C 1,6 km/h (1 Bft)
29.10.2016 21:02 8,4 °C 8,5 °C 92 % 1031,9 hPa 0,0 mm 1,2 km/h (1 Bft) N 5 ° 0 min 0,000 mm 0,0 UV-I 0 W/m² 7,2 °C 1,6 km/h (1 Bft)
29.10.2016 21:03 8,5 °C 8,5 °C 93 % 1031,9 hPa 0,0 mm 1,2 km/h (1 Bft) N 5 ° 0 min 0,000 mm 0,0 UV-I 0 W/m² 7,4 °C 1,6 km/h (1 Bft)
29.10.2016 21:04 8,4 °C 8,5 °C 93 % 1031,8 hPa 0,0 mm 0,5 km/h (0 Bft) N 5 ° 0 min 0,000 mm 0,0 UV-I 0 W/m² 7,3 °C 1,6 km/h (1 Bft)
29.10.2016 21:05 8,5 °C 8,5 °C 93 % 1031,8 hPa 0,0 mm 0,8 km/h (0 Bft) N 5 ° 0 min 0,000 mm 0,0 UV-I 0 W/m² 7,4 °C 1,6 km/h (1 Bft)
29.10.2016 21:06 8,4 °C 8,5 °C 93 % 1031,9 hPa 0,0 mm 0,5 km/h (0 Bft) N 5 ° 0 min 0,000 mm 0,0 UV-I 0 W/m² 7,3 °C 1,6 km/h (1 Bft)
29.10.2016 21:07 8,4 °C 8,4 °C 93 % 1031,8 hPa 0,0 mm 0,7 km/h (0 Bft) N 5 ° 0 min 0,000 mm 0,0 UV-I 0 W/m² 7,3 °C 1,6 km/h (1 Bft)
29.10.2016 21:08 8,4 °C 8,4 °C 93 % 1031,9 hPa 0,0 mm 0,2 km/h (0 Bft) N 5 ° 0 min 0,000 mm 0,0 UV-I 0 W/m² 7,3 °C 1,6 km/h (1 Bft)
29.10.2016 21:09 8,4 °C 8,4 °C 93 % 1031,8 hPa 0,0 mm 0,6 km/h (0 Bft) N 5 ° 0 min 0,000 mm 0,0 UV-I 0 W/m² 7,3 °C 1,6 km/h (1 Bft)
29.10.2016 21:10 8,4 °C 8,4 °C 93 % 1031,8 hPa 0,0 mm 0,0 km/h (0 Bft) N 5 ° 0 min 0,000 mm 0,0 UV-I 0 W/m² 7,3 °C 0,0 km/h (0 Bft)
29.10.2016 21:11 8,4 °C 8,4 °C 93 % 1031,8 hPa 0,0 mm 0,0 km/h (0 Bft) N 5 ° 0 min 0,000 mm 0,0 UV-I 0 W/m² 7,3 °C 0,0 km/h (0 Bft)
29.10.2016 21:12 8,4 °C 8,4 °C 92 % 1031,7 hPa 0,0 mm 0,0 km/h (0 Bft) N 5 ° 0 min 0,000 mm 0,0 UV-I 0 W/m² 7,2 °C 0,0 km/h (0 Bft)
29.10.2016 21:13 8,4 °C 8,4 °C 92 % 1031,8 hPa 0,0 mm 0,0 km/h (0 Bft) N 5 ° 0 min 0,000 mm 0,0 UV-I 0 W/m² 7,2 °C 0,0 km/h (0 Bft)
29.10.2016 21:14 8,4 °C 8,4 °C 92 % 1031,8 hPa 0,0 mm 0,1 km/h (0 Bft) N 5 ° 0 min 0,000 mm 0,0 UV-I 0 W/m² 7,2 °C 1,6 km/h (1 Bft)
29.10.2016 21:15 8,4 °C 8,4 °C 92 % 1031,8 hPa 0,0 mm 0,7 km/h (0 Bft) N 5 ° 0 min 0,000 mm 0,0 UV-I 0 W/m² 7,2 °C 1,6 km/h (1 Bft)
29.10.2016 21:16 8,4 °C 8,4 °C 93 % 1031,8 hPa 0,0 mm 0,0 km/h (0 Bft) N 5 ° 0 min 0,000 mm 0,0 UV-I 0 W/m² 7,3 °C 0,0 km/h (0 Bft)
29.10.2016 21:17 8,4 °C 8,4 °C 93 % 1031,8 hPa 0,0 mm 0,0 km/h (0 Bft) N 5 ° 0 min 0,000 mm 0,0 UV-I 0 W/m² 7,3 °C 0,0 km/h (0 Bft)
29.10.2016 21:18 8,4 °C 8,4 °C 92 % 1031,8 hPa 0,0 mm 0,0 km/h (0 Bft) N 5 ° 0 min 0,000 mm 0,0 UV-I 0 W/m² 7,2 °C 0,0 km/h (0 Bft)
29.10.2016 21:19 8,4 °C 8,4 °C 92 % 1031,8 hPa 0,0 mm 0,5 km/h (0 Bft) N 5 ° 0 min 0,000 mm 0,0 UV-I 0 W/m² 7,2 °C 1,6 km/h (1 Bft)
29.10.2016 21:20 8,4 °C 8,4 °C 92 % 1031,8 hPa 0,0 mm 0,5 km/h (0 Bft) N 5 ° 0 min 0,000 mm 0,0 UV-I 0 W/m² 7,2 °C 1,6 km/h (1 Bft)
29.10.2016 21:21 8,4 °C 8,4 °C 93 % 1031,8 hPa 0,0 mm 1,1 km/h (1 Bft) N 5 ° 0 min 0,000 mm 0,0 UV-I 0 W/m² 7,3 °C 1,6 km/h (1 Bft)
29.10.2016 21:22 8,4 °C 8,4 °C 92 % 1031,7 hPa 0,0 mm 1,2 km/h (1 Bft) N 5 ° 0 min 0,000 mm 0,0 UV-I 0 W/m² 7,2 °C 3,2 km/h (1 Bft)
29.10.2016 21:23 8,4 °C 8,4 °C 92 % 1031,7 hPa 0,0 mm 1,3 km/h (1 Bft) N 5 ° 0 min 0,000 mm 0,0 UV-I 0 W/m² 7,2 °C 1,6 km/h (1 Bft)
29.10.2016 21:24 8,4 °C 8,4 °C 92 % 1031,8 hPa 0,0 mm 2,2 km/h (1 Bft) N 5 ° 0 min 0,000 mm 0,0 UV-I 0 W/m² 7,2 °C 3,2 km/h (1 Bft)
29.10.2016 21:25 8,4 °C 8,4 °C 92 % 1031,8 hPa 0,0 mm 3,6 km/h (1 Bft) NO 43 ° 0 min 0,000 mm 0,0 UV-I 0 W/m² 7,2 °C 4,8 km/h (1 Bft)
29.10.2016 21:26 8,4 °C 8,4 °C 93 % 1031,8 hPa 0,0 mm 1,3 km/h (1 Bft) NO 43 ° 0 min 0,000 mm 0,0 UV-I 0 W/m² 7,3 °C 3,2 km/h (1 Bft)
29.10.2016 21:27 8,4 °C 8,4 °C 92 % 1031,8 hPa 0,0 mm 1,8 km/h (1 Bft) NO 43 ° 0 min 0,000 mm 0,0 UV-I 0 W/m² 7,2 °C 3,2 km/h (1 Bft)
29.10.2016 21:28 8,4 °C 8,4 °C 92 % 1031,8 hPa 0,0 mm 2,1 km/h (1 Bft) NO 43 ° 0 min 0,000 mm 0,0 UV-I 0 W/m² 7,2 °C 3,2 km/h (1 Bft)
29.10.2016 21:29 8,4 °C 8,4 °C 92 % 1031,8 hPa 0,0 mm 1,2 km/h (1 Bft) NO 43 ° 0 min 0,000 mm 0,0 UV-I 0 W/m² 7,2 °C 1,6 km/h (1 Bft)
29.10.2016 21:30 8,4 °C 8,4 °C 92 % 1031,8 hPa 0,0 mm 1,4 km/h (1 Bft) NO 43 ° 0 min 0,000 mm 0,0 UV-I 0 W/m² 7,2 °C 3,2 km/h (1 Bft)
29.10.2016 21:31 8,4 °C 8,4 °C 92 % 1031,8 hPa 0,0 mm 0,9 km/h (0 Bft) NO 43 ° 0 min 0,000 mm 0,0 UV-I 0 W/m² 7,2 °C 1,6 km/h (1 Bft)
29.10.2016 21:32 8,4 °C 8,4 °C 92 % 1031,8 hPa 0,0 mm 0,7 km/h (0 Bft) NO 43 ° 0 min 0,000 mm 0,0 UV-I 0 W/m² 7,2 °C 1,6 km/h (1 Bft)
29.10.2016 21:33 8,4 °C 8,4 °C 92 % 1031,8 hPa 0,0 mm 0,2 km/h (0 Bft) NO 43 ° 0 min 0,000 mm 0,0 UV-I 0 W/m² 7,2 °C 1,6 km/h (1 Bft)
29.10.2016 21:34 8,4 °C 8,4 °C 92 % 1031,8 hPa 0,0 mm 0,0 km/h (0 Bft) NO 43 ° 0 min 0,000 mm 0,0 UV-I 0 W/m² 7,2 °C 0,0 km/h (0 Bft)
29.10.2016 21:35 8,4 °C 8,4 °C 92 % 1031,8 hPa 0,0 mm 0,5 km/h (0 Bft) NO 43 ° 0 min 0,000 mm 0,0 UV-I 0 W/m² 7,2 °C 1,6 km/h (1 Bft)
29.10.2016 21:36 8,4 °C 8,4 °C 92 % 1031,8 hPa 0,0 mm 0,1 km/h (0 Bft) NO 43 ° 0 min 0,000 mm 0,0 UV-I 0 W/m² 7,2 °C 1,6 km/h (1 Bft)
29.10.2016 21:37 8,4 °C 8,4 °C 92 % 1031,9 hPa 0,0 mm 2,0 km/h (1 Bft) NO 43 ° 0 min 0,000 mm 0,0 UV-I 0 W/m² 7,2 °C 3,2 km/h (1 Bft)
29.10.2016 21:38 8,4 °C 8,4 °C 92 % 1031,9 hPa 0,0 mm 1,0 km/h (0 Bft) NO 43 ° 0 min 0,000 mm 0,0 UV-I 0 W/m² 7,2 °C 3,2 km/h (1 Bft)
29.10.2016 21:39 8,4 °C 8,4 °C 92 % 1031,9 hPa 0,0 mm 0,5 km/h (0 Bft) NO 43 ° 0 min 0,000 mm 0,0 UV-I 0 W/m² 7,2 °C 1,6 km/h (1 Bft)
29.10.2016 21:40 8,4 °C 8,4 °C 92 % 1031,9 hPa 0,0 mm 0,6 km/h (0 Bft) NO 43 ° 0 min 0,000 mm 0,0 UV-I 0 W/m² 7,2 °C 1,6 km/h (1 Bft)
29.10.2016 21:41 8,4 °C 8,4 °C 92 % 1031,9 hPa 0,0 mm 1,9 km/h (1 Bft) NO 43 ° 0 min 0,000 mm 0,0 UV-I 0 W/m² 7,2 °C 3,2 km/h (1 Bft)
29.10.2016 21:42 8,4 °C 8,4 °C 92 % 1031,8 hPa 0,0 mm 0,8 km/h (0 Bft) NO 43 ° 0 min 0,000 mm 0,0 UV-I 0 W/m² 7,2 °C 1,6 km/h (1 Bft)
29.10.2016 21:43 8,4 °C 8,4 °C 92 % 1031,9 hPa 0,0 mm 1,3 km/h (1 Bft) NO 43 ° 0 min 0,000 mm 0,0 UV-I 0 W/m² 7,2 °C 3,2 km/h (1 Bft)
29.10.2016 21:44 8,4 °C 8,4 °C 92 % 1031,8 hPa 0,0 mm 0,6 km/h (0 Bft) NO 43 ° 0 min 0,000 mm 0,0 UV-I 0 W/m² 7,2 °C 3,2 km/h (1 Bft)
29.10.2016 21:45 8,3 °C 8,4 °C 92 % 1031,8 hPa 0,0 mm 0,7 km/h (0 Bft) NO 43 ° 0 min 0,000 mm 0,0 UV-I 0 W/m² 7,1 °C 1,6 km/h (1 Bft)
29.10.2016 21:46 8,3 °C 8,3 °C 91 % 1031,8 hPa 0,0 mm 1,0 km/h (0 Bft) NO 43 ° 0 min 0,000 mm 0,0 UV-I 0 W/m² 6,9 °C 1,6 km/h (1 Bft)
29.10.2016 21:47 8,3 °C 8,3 °C 91 % 1031,8 hPa 0,0 mm 1,1 km/h (1 Bft) NO 43 ° 0 min 0,000 mm 0,0 UV-I 0 W/m² 6,9 °C 1,6 km/h (1 Bft)
29.10.2016 21:48 8,3 °C 8,4 °C 90 % 1031,8 hPa 0,0 mm 0,4 km/h (0 Bft) NO 43 ° 0 min 0,000 mm 0,0 UV-I 0 W/m² 6,8 °C 1,6 km/h (1 Bft)
29.10.2016 21:49 8,3 °C 8,3 °C 91 % 1031,8 hPa 0,0 mm 0,3 km/h (0 Bft) NO 43 ° 0 min 0,000 mm 0,0 UV-I 0 W/m² 6,9 °C 1,6 km/h (1 Bft)
29.10.2016 21:50 8,3 °C 8,4 °C 91 % 1031,8 hPa 0,0 mm 0,9 km/h (0 Bft) NO 43 ° 0 min 0,000 mm 0,0 UV-I 0 W/m² 6,9 °C 1,6 km/h (1 Bft)
29.10.2016 21:51 8,3 °C 8,4 °C 91 % 1031,8 hPa 0,0 mm 1,0 km/h (0 Bft) NO 43 ° 0 min 0,000 mm 0,0 UV-I 0 W/m² 6,9 °C 3,2 km/h (1 Bft)
29.10.2016 21:52 8,4 °C 8,4 °C 91 % 1031,8 hPa 0,0 mm 1,2 km/h (1 Bft) NO 43 ° 0 min 0,000 mm 0,0 UV-I 0 W/m² 7,0 °C 3,2 km/h (1 Bft)
29.10.2016 21:53 8,3 °C 8,4 °C 91 % 1031,8 hPa 0,0 mm 0,9 km/h (0 Bft) NO 43 ° 0 min 0,000 mm 0,0 UV-I 0 W/m² 6,9 °C 1,6 km/h (1 Bft)
29.10.2016 21:54 8,3 °C 8,4 °C 91 % 1031,9 hPa 0,0 mm 1,6 km/h (1 Bft) NO 43 ° 0 min 0,000 mm 0,0 UV-I 0 W/m² 6,9 °C 3,2 km/h (1 Bft)
29.10.2016 21:55 8,3 °C 8,3 °C 91 % 1031,9 hPa 0,0 mm 1,6 km/h (1 Bft) NO 43 ° 0 min 0,000 mm 0,0 UV-I 0 W/m² 6,9 °C 1,6 km/h (1 Bft)
29.10.2016 21:56 8,3 °C 8,3 °C 91 % 1031,9 hPa 0,0 mm 1,1 km/h (1 Bft) NO 43 ° 0 min 0,000 mm 0,0 UV-I 0 W/m² 6,9 °C 1,6 km/h (1 Bft)
29.10.2016 21:57 8,3 °C 8,3 °C 90 % 1031,8 hPa 0,0 mm 1,6 km/h (1 Bft) NO 43 ° 0 min 0,000 mm 0,0 UV-I 0 W/m² 6,8 °C 3,2 km/h (1 Bft)
29.10.2016 21:58 8,2 °C 8,3 °C 91 % 1031,8 hPa 0,0 mm 0,5 km/h (0 Bft) NO 43 ° 0 min 0,000 mm 0,0 UV-I 0 W/m² 6,8 °C 1,6 km/h (1 Bft)
29.10.2016 21:59 8,2 °C 8,3 °C 91 % 1031,8 hPa 0,0 mm 0,1 km/h (0 Bft) NO 43 ° 0 min 0,000 mm 0,0 UV-I 0 W/m² 6,8 °C 1,6 km/h (1 Bft)
29.10.2016 22:00 8,2 °C 8,2 °C 91 % 1031,8 hPa 0,0 mm 0,0 km/h (0 Bft) NO 43 ° 0 min 0,000 mm 0,0 UV-I 0 W/m² 6,8 °C 0,0 km/h (0 Bft)
29.10.2016 22:01 8,2 °C 8,2 °C 91 % 1031,7 hPa 0,0 mm 0,0 km/h (0 Bft) NO 43 ° 0 min 0,000 mm 0,0 UV-I 0 W/m² 6,8 °C 0,0 km/h (0 Bft)
29.10.2016 22:02 8,1 °C 8,2 °C 91 % 1031,8 hPa 0,0 mm 0,0 km/h (0 Bft) NO 43 ° 0 min 0,000 mm 0,0 UV-I 0 W/m² 6,7 °C 0,0 km/h (0 Bft)
29.10.2016 22:03 8,1 °C 8,1 °C 91 % 1031,7 hPa 0,0 mm 0,0 km/h (0 Bft) NO 43 ° 0 min 0,000 mm 0,0 UV-I 0 W/m² 6,7 °C 0,0 km/h (0 Bft)
29.10.2016 22:04 8,1 °C 8,1 °C 90 % 1031,7 hPa 0,0 mm 0,0 km/h (0 Bft) NO 43 ° 0 min 0,000 mm 0,0 UV-I 0 W/m² 6,6 °C 0,0 km/h (0 Bft)
29.10.2016 22:05 8,1 °C 8,1 °C 90 % 1031,7 hPa 0,0 mm 0,0 km/h (0 Bft) NO 43 ° 0 min 0,000 mm 0,0 UV-I 0 W/m² 6,6 °C 0,0 km/h (0 Bft)
29.10.2016 22:06 8,1 °C 8,1 °C 90 % 1031,6 hPa 0,0 mm 0,1 km/h (0 Bft) NO 43 ° 0 min 0,000 mm 0,0 UV-I 0 W/m² 6,6 °C 1,6 km/h (1 Bft)
29.10.2016 22:07 8,1 °C 8,1 °C 90 % 1031,6 hPa 0,0 mm 0,7 km/h (0 Bft) NO 43 ° 0 min 0,000 mm 0,0 UV-I 0 W/m² 6,6 °C 1,6 km/h (1 Bft)
29.10.2016 22:08 8,1 °C 8,1 °C 90 % 1031,7 hPa 0,0 mm 1,3 km/h (1 Bft) NO 43 ° 0 min 0,000 mm 0,0 UV-I 0 W/m² 6,6 °C 1,6 km/h (1 Bft)
29.10.2016 22:09 8,1 °C 8,1 °C 90 % 1031,6 hPa 0,0 mm 1,7 km/h (1 Bft) NO 43 ° 0 min 0,000 mm 0,0 UV-I 0 W/m² 6,6 °C 3,2 km/h (1 Bft)
29.10.2016 22:10 8,1 °C 8,1 °C 90 % 1031,6 hPa 0,0 mm 0,9 km/h (0 Bft) NO 43 ° 0 min 0,000 mm 0,0 UV-I 0 W/m² 6,6 °C 1,6 km/h (1 Bft)
29.10.2016 22:11 8,1 °C 8,1 °C 90 % 1031,6 hPa 0,0 mm 0,1 km/h (0 Bft) NO 43 ° 0 min 0,000 mm 0,0 UV-I 0 W/m² 6,6 °C 1,6 km/h (1 Bft)
29.10.2016 22:12 8,1 °C 8,1 °C 90 % 1031,6 hPa 0,0 mm 0,0 km/h (0 Bft) NO 43 ° 0 min 0,000 mm 0,0 UV-I 0 W/m² 6,6 °C 0,0 km/h (0 Bft)
29.10.2016 22:13 8,1 °C 8,1 °C 90 % 1031,6 hPa 0,0 mm 0,0 km/h (0 Bft) NO 43 ° 0 min 0,000 mm 0,0 UV-I 0 W/m² 6,6 °C 0,0 km/h (0 Bft)
29.10.2016 22:14 8,1 °C 8,1 °C 91 % 1031,6 hPa 0,0 mm 0,0 km/h (0 Bft) NO 43 ° 0 min 0,000 mm 0,0 UV-I 0 W/m² 6,7 °C 0,0 km/h (0 Bft)
29.10.2016 22:15 8,1 °C 8,1 °C 91 % 1031,7 hPa 0,0 mm 0,0 km/h (0 Bft) NO 43 ° 0 min 0,000 mm 0,0 UV-I 0 W/m² 6,7 °C 0,0 km/h (0 Bft)
29.10.2016 22:16 8,0 °C 8,1 °C 90 % 1031,7 hPa 0,0 mm 0,0 km/h (0 Bft) NO 43 ° 0 min 0,000 mm 0,0 UV-I 0 W/m² 6,5 °C 0,0 km/h (0 Bft)
29.10.2016 22:17 7,9 °C 8,0 °C 90 % 1031,7 hPa 0,0 mm 0,0 km/h (0 Bft) NO 43 ° 0 min 0,000 mm 0,0 UV-I 0 W/m² 6,4 °C 0,0 km/h (0 Bft)
29.10.2016 22:18 7,9 °C 8,0 °C 91 % 1031,7 hPa 0,0 mm 0,0 km/h (0 Bft) NO 43 ° 0 min 0,000 mm 0,0 UV-I 0 W/m² 6,5 °C 0,0 km/h (0 Bft)
29.10.2016 22:19 7,9 °C 7,9 °C 91 % 1031,7 hPa 0,0 mm 0,0 km/h (0 Bft) NO 43 ° 0 min 0,000 mm 0,0 UV-I 0 W/m² 6,5 °C 0,0 km/h (0 Bft)
29.10.2016 22:20 7,9 °C 7,9 °C 90 % 1031,7 hPa 0,0 mm 0,0 km/h (0 Bft) NO 43 ° 0 min 0,000 mm 0,0 UV-I 0 W/m² 6,4 °C 0,0 km/h (0 Bft)
29.10.2016 22:21 7,9 °C 7,9 °C 90 % 1031,7 hPa 0,0 mm 0,0 km/h (0 Bft) NO 43 ° 0 min 0,000 mm 0,0 UV-I 0 W/m² 6,4 °C 0,0 km/h (0 Bft)
29.10.2016 22:22 7,9 °C 7,9 °C 90 % 1031,7 hPa 0,0 mm 0,0 km/h (0 Bft) NO 43 ° 0 min 0,000 mm 0,0 UV-I 0 W/m² 6,4 °C 0,0 km/h (0 Bft)
29.10.2016 22:23 7,9 °C 7,9 °C 90 % 1031,7 hPa 0,0 mm 0,0 km/h (0 Bft) NO 43 ° 0 min 0,000 mm 0,0 UV-I 0 W/m² 6,4 °C 0,0 km/h (0 Bft)
29.10.2016 22:24 8,0 °C 8,0 °C 90 % 1031,8 hPa 0,0 mm 0,0 km/h (0 Bft) NO 43 ° 0 min 0,000 mm 0,0 UV-I 0 W/m² 6,5 °C 0,0 km/h (0 Bft)
29.10.2016 22:25 8,0 °C 8,0 °C 90 % 1031,8 hPa 0,0 mm 0,0 km/h (0 Bft) NO 43 ° 0 min 0,000 mm 0,0 UV-I 0 W/m² 6,5 °C 0,0 km/h (0 Bft)
29.10.2016 22:26 7,9 °C 8,0 °C 91 % 1031,8 hPa 0,0 mm 0,0 km/h (0 Bft) NO 43 ° 0 min 0,000 mm 0,0 UV-I 0 W/m² 6,5 °C 0,0 km/h (0 Bft)
29.10.2016 22:27 7,9 °C 7,9 °C 91 % 1031,9 hPa 0,0 mm 0,0 km/h (0 Bft) NO 43 ° 0 min 0,000 mm 0,0 UV-I 0 W/m² 6,5 °C 0,0 km/h (0 Bft)
29.10.2016 22:28 7,9 °C 7,9 °C 91 % 1031,9 hPa 0,0 mm 0,0 km/h (0 Bft) NO 43 ° 0 min 0,000 mm 0,0 UV-I 0 W/m² 6,5 °C 0,0 km/h (0 Bft)
29.10.2016 22:29 7,9 °C 7,9 °C 90 % 1031,8 hPa 0,0 mm 0,7 km/h (0 Bft) NO 43 ° 0 min 0,000 mm 0,0 UV-I 0 W/m² 6,4 °C 1,6 km/h (1 Bft)
29.10.2016 22:30 7,9 °C 7,9 °C 90 % 1031,7 hPa 0,0 mm 1,7 km/h (1 Bft) NO 43 ° 0 min 0,000 mm 0,0 UV-I 0 W/m² 6,4 °C 3,2 km/h (1 Bft)
29.10.2016 22:31 7,9 °C 7,9 °C 90 % 1031,7 hPa 0,0 mm 1,4 km/h (1 Bft) NO 43 ° 0 min 0,000 mm 0,0 UV-I 0 W/m² 6,4 °C 3,2 km/h (1 Bft)
29.10.2016 22:32 7,9 °C 7,9 °C 90 % 1031,7 hPa 0,0 mm 0,5 km/h (0 Bft) NO 43 ° 0 min 0,000 mm 0,0 UV-I 0 W/m² 6,4 °C 1,6 km/h (1 Bft)
29.10.2016 22:33 7,9 °C 7,9 °C 90 % 1031,7 hPa 0,0 mm 0,0 km/h (0 Bft) NO 43 ° 0 min 0,000 mm 0,0 UV-I 0 W/m² 6,4 °C 0,0 km/h (0 Bft)
29.10.2016 22:34 7,9 °C 7,9 °C 90 % 1031,7 hPa 0,0 mm 0,0 km/h (0 Bft) NO 43 ° 0 min 0,000 mm 0,0 UV-I 0 W/m² 6,4 °C 0,0 km/h (0 Bft)
29.10.2016 22:35 7,9 °C 8,0 °C 90 % 1031,7 hPa 0,0 mm 0,1 km/h (0 Bft) NO 43 ° 0 min 0,000 mm 0,0 UV-I 0 W/m² 6,4 °C 1,6 km/h (1 Bft)
29.10.2016 22:36 7,9 °C 7,9 °C 90 % 1031,7 hPa 0,0 mm 0,0 km/h (0 Bft) NO 43 ° 0 min 0,000 mm 0,0 UV-I 0 W/m² 6,4 °C 0,0 km/h (0 Bft)
29.10.2016 22:37 7,9 °C 7,9 °C 91 % 1031,7 hPa 0,0 mm 0,0 km/h (0 Bft) NO 43 ° 0 min 0,000 mm 0,0 UV-I 0 W/m² 6,5 °C 0,0 km/h (0 Bft)
29.10.2016 22:38 7,9 °C 7,9 °C 91 % 1031,7 hPa 0,0 mm 0,0 km/h (0 Bft) NO 43 ° 0 min 0,000 mm 0,0 UV-I 0 W/m² 6,5 °C 0,0 km/h (0 Bft)
29.10.2016 22:39 7,9 °C 7,9 °C 91 % 1031,7 hPa 0,0 mm 0,4 km/h (0 Bft) NO 43 ° 0 min 0,000 mm 0,0 UV-I 0 W/m² 6,5 °C 1,6 km/h (1 Bft)
29.10.2016 22:40 7,9 °C 7,9 °C 91 % 1031,7 hPa 0,0 mm 0,3 km/h (0 Bft) NO 43 ° 0 min 0,000 mm 0,0 UV-I 0 W/m² 6,5 °C 1,6 km/h (1 Bft)
29.10.2016 22:41 7,9 °C 7,9 °C 91 % 1031,7 hPa 0,0 mm 0,1 km/h (0 Bft) NO 43 ° 0 min 0,000 mm 0,0 UV-I 0 W/m² 6,5 °C 1,6 km/h (1 Bft)
29.10.2016 22:42 7,9 °C 7,9 °C 91 % 1031,7 hPa 0,0 mm 0,7 km/h (0 Bft) NO 43 ° 0 min 0,000 mm 0,0 UV-I 0 W/m² 6,5 °C 1,6 km/h (1 Bft)
29.10.2016 22:43 7,9 °C 7,9 °C 91 % 1031,7 hPa 0,0 mm 0,2 km/h (0 Bft) NO 43 ° 0 min 0,000 mm 0,0 UV-I 0 W/m² 6,5 °C 1,6 km/h (1 Bft)
29.10.2016 22:44 7,9 °C 7,9 °C 91 % 1031,6 hPa 0,0 mm 0,2 km/h (0 Bft) NO 43 ° 0 min 0,000 mm 0,0 UV-I 0 W/m² 6,5 °C 1,6 km/h (1 Bft)
29.10.2016 22:45 7,9 °C 7,9 °C 91 % 1031,6 hPa 0,0 mm 0,3 km/h (0 Bft) NO 43 ° 0 min 0,000 mm 0,0 UV-I 0 W/m² 6,5 °C 1,6 km/h (1 Bft)
29.10.2016 22:46 7,9 °C 7,9 °C 91 % 1031,5 hPa 0,0 mm 0,4 km/h (0 Bft) NO 43 ° 0 min 0,000 mm 0,0 UV-I 0 W/m² 6,5 °C 1,6 km/h (1 Bft)
29.10.2016 22:47 7,9 °C 7,9 °C 92 % 1031,5 hPa 0,0 mm 1,6 km/h (1 Bft) NO 43 ° 0 min 0,000 mm 0,0 UV-I 0 W/m² 6,7 °C 3,2 km/h (1 Bft)
29.10.2016 22:48 7,9 °C 7,9 °C 92 % 1031,5 hPa 0,0 mm 1,5 km/h (1 Bft) NO 43 ° 0 min 0,000 mm 0,0 UV-I 0 W/m² 6,7 °C 3,2 km/h (1 Bft)
29.10.2016 22:49 7,9 °C 7,9 °C 92 % 1031,5 hPa 0,0 mm 1,1 km/h (1 Bft) NO 43 ° 0 min 0,000 mm 0,0 UV-I 0 W/m² 6,7 °C 1,6 km/h (1 Bft)
29.10.2016 22:50 7,8 °C 7,9 °C 92 % 1031,5 hPa 0,0 mm 0,5 km/h (0 Bft) NO 43 ° 0 min 0,000 mm 0,0 UV-I 0 W/m² 6,6 °C 1,6 km/h (1 Bft)
29.10.2016 22:51 7,8 °C 7,9 °C 92 % 1031,5 hPa 0,0 mm 0,4 km/h (0 Bft) NO 43 ° 0 min 0,000 mm 0,0 UV-I 0 W/m² 6,6 °C 1,6 km/h (1 Bft)
29.10.2016 22:52 7,9 °C 7,9 °C 92 % 1031,4 hPa 0,0 mm 0,0 km/h (0 Bft) NO 43 ° 0 min 0,000 mm 0,0 UV-I 0 W/m² 6,7 °C 0,0 km/h (0 Bft)
29.10.2016 22:53 7,8 °C 7,9 °C 92 % 1031,3 hPa 0,0 mm 0,0 km/h (0 Bft) NO 43 ° 0 min 0,000 mm 0,0 UV-I 0 W/m² 6,6 °C 0,0 km/h (0 Bft)
29.10.2016 22:54 7,8 °C 7,8 °C 92 % 1031,3 hPa 0,0 mm 0,0 km/h (0 Bft) NO 43 ° 0 min 0,000 mm 0,0 UV-I 0 W/m² 6,6 °C 0,0 km/h (0 Bft)
29.10.2016 22:55 7,8 °C 7,8 °C 92 % 1031,3 hPa 0,0 mm 0,0 km/h (0 Bft) NO 43 ° 0 min 0,000 mm 0,0 UV-I 0 W/m² 6,6 °C 0,0 km/h (0 Bft)
29.10.2016 22:56 7,7 °C 7,8 °C 92 % 1031,3 hPa 0,0 mm 1,0 km/h (0 Bft) NO 43 ° 0 min 0,000 mm 0,0 UV-I 0 W/m² 6,5 °C 3,2 km/h (1 Bft)
29.10.2016 22:57 7,7 °C 7,8 °C 92 % 1031,3 hPa 0,0 mm 2,3 km/h (1 Bft) NO 43 ° 0 min 0,000 mm 0,0 UV-I 0 W/m² 6,5 °C 3,2 km/h (1 Bft)
29.10.2016 22:58 7,6 °C 7,7 °C 92 % 1031,2 hPa 0,0 mm 2,7 km/h (1 Bft) NO 44 ° 0 min 0,000 mm 0,0 UV-I 0 W/m² 6,4 °C 4,8 km/h (1 Bft)
29.10.2016 22:59 7,6 °C 7,6 °C 92 % 1031,2 hPa 0,0 mm 1,7 km/h (1 Bft) NO 44 ° 0 min 0,000 mm 0,0 UV-I 0 W/m² 6,4 °C 3,2 km/h (1 Bft)
29.10.2016 23:00 7,6 °C 7,6 °C 92 % 1031,2 hPa 0,0 mm 1,2 km/h (1 Bft) NO 44 ° 0 min 0,000 mm 0,0 UV-I 0 W/m² 6,4 °C 3,2 km/h (1 Bft)
29.10.2016 23:01 7,6 °C 7,6 °C 92 % 1031,2 hPa 0,0 mm 2,9 km/h (1 Bft) NO 44 ° 0 min 0,000 mm 0,0 UV-I 0 W/m² 6,4 °C 3,2 km/h (1 Bft)
29.10.2016 23:02 7,6 °C 7,6 °C 92 % 1031,1 hPa 0,0 mm 2,6 km/h (1 Bft) NO 44 ° 0 min 0,000 mm 0,0 UV-I 0 W/m² 6,4 °C 4,8 km/h (1 Bft)
29.10.2016 23:03 7,5 °C 7,6 °C 92 % 1031,2 hPa 0,0 mm 3,5 km/h (1 Bft) NO 44 ° 0 min 0,000 mm 0,0 UV-I 0 W/m² 6,3 °C 4,8 km/h (1 Bft)
29.10.2016 23:04 7,5 °C 7,5 °C 92 % 1031,3 hPa 0,0 mm 2,3 km/h (1 Bft) NO 44 ° 0 min 0,000 mm 0,0 UV-I 0 W/m² 6,3 °C 3,2 km/h (1 Bft)
29.10.2016 23:05 7,4 °C 7,5 °C 92 % 1031,3 hPa 0,0 mm 1,7 km/h (1 Bft) NO 44 ° 0 min 0,000 mm 0,0 UV-I 0 W/m² 6,2 °C 3,2 km/h (1 Bft)
29.10.2016 23:06 7,4 °C 7,5 °C 92 % 1031,4 hPa 0,0 mm 1,0 km/h (0 Bft) NO 44 ° 0 min 0,000 mm 0,0 UV-I 0 W/m² 6,2 °C 1,6 km/h (1 Bft)
29.10.2016 23:07 7,4 °C 7,4 °C 92 % 1031,5 hPa 0,0 mm 0,2 km/h (0 Bft) NO 44 ° 0 min 0,000 mm 0,0 UV-I 0 W/m² 6,2 °C 1,6 km/h (1 Bft)
29.10.2016 23:08 7,4 °C 7,4 °C 92 % 1031,5 hPa 0,0 mm 0,1 km/h (0 Bft) NO 44 ° 0 min 0,000 mm 0,0 UV-I 0 W/m² 6,2 °C 1,6 km/h (1 Bft)
29.10.2016 23:09 7,3 °C 7,4 °C 92 % 1031,5 hPa 0,0 mm 0,0 km/h (0 Bft) NO 44 ° 0 min 0,000 mm 0,0 UV-I 0 W/m² 6,1 °C 0,0 km/h (0 Bft)
29.10.2016 23:10 7,3 °C 7,3 °C 92 % 1031,5 hPa 0,0 mm 0,0 km/h (0 Bft) NO 44 ° 0 min 0,000 mm 0,0 UV-I 0 W/m² 6,1 °C 0,0 km/h (0 Bft)
29.10.2016 23:11 7,3 °C 7,3 °C 92 % 1031,5 hPa 0,0 mm 0,0 km/h (0 Bft) NO 44 ° 0 min 0,000 mm 0,0 UV-I 0 W/m² 6,1 °C 0,0 km/h (0 Bft)
29.10.2016 23:12 7,2 °C 7,3 °C 92 % 1031,5 hPa 0,0 mm 0,0 km/h (0 Bft) NO 44 ° 0 min 0,000 mm 0,0 UV-I 0 W/m² 6,0 °C 0,0 km/h (0 Bft)
29.10.2016 23:13 7,1 °C 7,2 °C 92 % 1031,5 hPa 0,0 mm 0,0 km/h (0 Bft) NO 44 ° 0 min 0,000 mm 0,0 UV-I 0 W/m² 5,9 °C 0,0 km/h (0 Bft)
29.10.2016 23:14 7,1 °C 7,2 °C 93 % 1031,5 hPa 0,0 mm 0,0 km/h (0 Bft) NO 44 ° 0 min 0,000 mm 0,0 UV-I 0 W/m² 6,0 °C 0,0 km/h (0 Bft)
29.10.2016 23:15 7,2 °C 7,2 °C 93 % 1031,5 hPa 0,0 mm 0,1 km/h (0 Bft) NO 44 ° 0 min 0,000 mm 0,0 UV-I 0 W/m² 6,1 °C 1,6 km/h (1 Bft)
29.10.2016 23:16 7,2 °C 7,2 °C 93 % 1031,5 hPa 0,0 mm 0,9 km/h (0 Bft) NO 44 ° 0 min 0,000 mm 0,0 UV-I 0 W/m² 6,1 °C 1,6 km/h (1 Bft)
29.10.2016 23:17 7,2 °C 7,2 °C 93 % 1031,5 hPa 0,0 mm 0,8 km/h (0 Bft) NO 44 ° 0 min 0,000 mm 0,0 UV-I 0 W/m² 6,1 °C 1,6 km/h (1 Bft)
29.10.2016 23:18 7,2 °C 7,2 °C 93 % 1031,4 hPa 0,0 mm 1,7 km/h (1 Bft) NO 44 ° 0 min 0,000 mm 0,0 UV-I 0 W/m² 6,1 °C 3,2 km/h (1 Bft)
29.10.2016 23:19 7,2 °C 7,2 °C 93 % 1031,4 hPa 0,0 mm 1,0 km/h (0 Bft) NO 44 ° 0 min 0,000 mm 0,0 UV-I 0 W/m² 6,1 °C 1,6 km/h (1 Bft)
29.10.2016 23:20 7,2 °C 7,2 °C 93 % 1031,4 hPa 0,0 mm 0,4 km/h (0 Bft) NO 44 ° 0 min 0,000 mm 0,0 UV-I 0 W/m² 6,1 °C 1,6 km/h (1 Bft)
29.10.2016 23:21 7,3 °C 7,3 °C 93 % 1031,3 hPa 0,0 mm 1,7 km/h (1 Bft) NO 44 ° 0 min 0,000 mm 0,0 UV-I 0 W/m² 6,2 °C 3,2 km/h (1 Bft)
29.10.2016 23:22 7,3 °C 7,3 °C 93 % 1031,3 hPa 0,0 mm 2,1 km/h (1 Bft) O-NO 67 ° 0 min 0,000 mm 0,0 UV-I 0 W/m² 6,2 °C 3,2 km/h (1 Bft)
29.10.2016 23:23 7,3 °C 7,3 °C 93 % 1031,3 hPa 0,0 mm 1,1 km/h (1 Bft) O-NO 67 ° 0 min 0,000 mm 0,0 UV-I 0 W/m² 6,2 °C 1,6 km/h (1 Bft)
29.10.2016 23:24 7,3 °C 7,3 °C 93 % 1031,3 hPa 0,0 mm 0,0 km/h (0 Bft) O-NO 67 ° 0 min 0,000 mm 0,0 UV-I 0 W/m² 6,2 °C 0,0 km/h (0 Bft)
29.10.2016 23:25 7,3 °C 7,4 °C 93 % 1031,3 hPa 0,0 mm 0,0 km/h (0 Bft) O-NO 67 ° 0 min 0,000 mm 0,0 UV-I 0 W/m² 6,2 °C 0,0 km/h (0 Bft)
29.10.2016 23:26 7,4 °C 7,4 °C 93 % 1031,3 hPa 0,0 mm 0,0 km/h (0 Bft) O-NO 67 ° 0 min 0,000 mm 0,0 UV-I 0 W/m² 6,3 °C 0,0 km/h (0 Bft)
29.10.2016 23:27 7,4 °C 7,4 °C 93 % 1031,3 hPa 0,0 mm 0,0 km/h (0 Bft) O-NO 67 ° 0 min 0,000 mm 0,0 UV-I 0 W/m² 6,3 °C 0,0 km/h (0 Bft)
29.10.2016 23:28 7,3 °C 7,4 °C 93 % 1031,3 hPa 0,0 mm 0,0 km/h (0 Bft) O-NO 67 ° 0 min 0,000 mm 0,0 UV-I 0 W/m² 6,2 °C 0,0 km/h (0 Bft)
29.10.2016 23:29 7,3 °C 7,3 °C 93 % 1031,2 hPa 0,0 mm 0,0 km/h (0 Bft) O-NO 67 ° 0 min 0,000 mm 0,0 UV-I 0 W/m² 6,2 °C 0,0 km/h (0 Bft)
29.10.2016 23:30 7,3 °C 7,3 °C 93 % 1031,2 hPa 0,0 mm 0,0 km/h (0 Bft) O-NO 67 ° 0 min 0,000 mm 0,0 UV-I 0 W/m² 6,2 °C 0,0 km/h (0 Bft)
29.10.2016 23:31 7,3 °C 7,3 °C 93 % 1031,2 hPa 0,0 mm 0,9 km/h (0 Bft) O-NO 67 ° 0 min 0,000 mm 0,0 UV-I 0 W/m² 6,2 °C 1,6 km/h (1 Bft)
29.10.2016 23:32 7,3 °C 7,3 °C 93 % 1031,1 hPa 0,0 mm 0,1 km/h (0 Bft) O-NO 67 ° 0 min 0,000 mm 0,0 UV-I 0 W/m² 6,2 °C 1,6 km/h (1 Bft)
29.10.2016 23:33 7,3 °C 7,3 °C 93 % 1031,2 hPa 0,0 mm 0,0 km/h (0 Bft) O-NO 67 ° 0 min 0,000 mm 0,0 UV-I 0 W/m² 6,2 °C 0,0 km/h (0 Bft)
29.10.2016 23:34 7,3 °C 7,3 °C 93 % 1031,2 hPa 0,0 mm 0,5 km/h (0 Bft) O-NO 67 ° 0 min 0,000 mm 0,0 UV-I 0 W/m² 6,2 °C 3,2 km/h (1 Bft)
29.10.2016 23:35 7,3 °C 7,3 °C 93 % 1031,2 hPa 0,0 mm 2,3 km/h (1 Bft) O-NO 67 ° 0 min 0,000 mm 0,0 UV-I 0 W/m² 6,2 °C 3,2 km/h (1 Bft)
29.10.2016 23:36 7,3 °C 7,4 °C 93 % 1031,2 hPa 0,0 mm 1,9 km/h (1 Bft) O-NO 67 ° 0 min 0,000 mm 0,0 UV-I 0 W/m² 6,2 °C 3,2 km/h (1 Bft)
29.10.2016 23:37 7,3 °C 7,4 °C 93 % 1031,3 hPa 0,0 mm 2,2 km/h (1 Bft) O-NO 67 ° 0 min 0,000 mm 0,0 UV-I 0 W/m² 6,2 °C 3,2 km/h (1 Bft)
29.10.2016 23:38 7,4 °C 7,4 °C 93 % 1031,3 hPa 0,0 mm 2,0 km/h (1 Bft) O-NO 67 ° 0 min 0,000 mm 0,0 UV-I 0 W/m² 6,3 °C 3,2 km/h (1 Bft)
29.10.2016 23:39 7,4 °C 7,4 °C 93 % 1031,3 hPa 0,0 mm 1,3 km/h (1 Bft) O-NO 67 ° 0 min 0,000 mm 0,0 UV-I 0 W/m² 6,3 °C 1,6 km/h (1 Bft)
29.10.2016 23:40 7,4 °C 7,4 °C 93 % 1031,3 hPa 0,0 mm 1,5 km/h (1 Bft) O-NO 67 ° 0 min 0,000 mm 0,0 UV-I 0 W/m² 6,3 °C 1,6 km/h (1 Bft)
29.10.2016 23:41 7,4 °C 7,4 °C 93 % 1031,4 hPa 0,0 mm 0,5 km/h (0 Bft) O-NO 67 ° 0 min 0,000 mm 0,0 UV-I 0 W/m² 6,3 °C 1,6 km/h (1 Bft)
29.10.2016 23:42 7,4 °C 7,4 °C 93 % 1031,4 hPa 0,0 mm 0,3 km/h (0 Bft) O-NO 67 ° 0 min 0,000 mm 0,0 UV-I 0 W/m² 6,3 °C 1,6 km/h (1 Bft)
29.10.2016 23:43 7,4 °C 7,4 °C 93 % 1031,4 hPa 0,0 mm 0,0 km/h (0 Bft) O-NO 67 ° 0 min 0,000 mm 0,0 UV-I 0 W/m² 6,3 °C 0,0 km/h (0 Bft)
29.10.2016 23:44 7,4 °C 7,4 °C 93 % 1031,4 hPa 0,0 mm 0,0 km/h (0 Bft) O-NO 67 ° 0 min 0,000 mm 0,0 UV-I 0 W/m² 6,3 °C 0,0 km/h (0 Bft)
29.10.2016 23:45 7,4 °C 7,4 °C 93 % 1031,3 hPa 0,0 mm 0,0 km/h (0 Bft) O-NO 67 ° 0 min 0,000 mm 0,0 UV-I 0 W/m² 6,3 °C 0,0 km/h (0 Bft)
29.10.2016 23:46 7,4 °C 7,4 °C 93 % 1031,4 hPa 0,0 mm 0,1 km/h (0 Bft) O-NO 67 ° 0 min 0,000 mm 0,0 UV-I 0 W/m² 6,3 °C 1,6 km/h (1 Bft)
29.10.2016 23:47 7,3 °C 7,4 °C 93 % 1031,4 hPa 0,0 mm 1,2 km/h (1 Bft) O-NO 67 ° 0 min 0,000 mm 0,0 UV-I 0 W/m² 6,2 °C 1,6 km/h (1 Bft)
29.10.2016 23:48 7,4 °C 7,4 °C 93 % 1031,5 hPa 0,0 mm 1,9 km/h (1 Bft) O-NO 66 ° 0 min 0,000 mm 0,0 UV-I 0 W/m² 6,3 °C 3,2 km/h (1 Bft)
29.10.2016 23:49 7,4 °C 7,4 °C 93 % 1031,5 hPa 0,0 mm 0,6 km/h (0 Bft) O-NO 66 ° 0 min 0,000 mm 0,0 UV-I 0 W/m² 6,3 °C 1,6 km/h (1 Bft)
29.10.2016 23:50 7,4 °C 7,4 °C 93 % 1031,4 hPa 0,0 mm 0,8 km/h (0 Bft) O-NO 66 ° 0 min 0,000 mm 0,0 UV-I 0 W/m² 6,3 °C 1,6 km/h (1 Bft)
29.10.2016 23:51 7,4 °C 7,4 °C 93 % 1031,4 hPa 0,0 mm 0,8 km/h (0 Bft) O-NO 67 ° 0 min 0,000 mm 0,0 UV-I 0 W/m² 6,3 °C 1,6 km/h (1 Bft)
29.10.2016 23:52 7,4 °C 7,4 °C 93 % 1031,4 hPa 0,0 mm 0,2 km/h (0 Bft) O-NO 66 ° 0 min 0,000 mm 0,0 UV-I 0 W/m² 6,3 °C 1,6 km/h (1 Bft)
29.10.2016 23:53 7,4 °C 7,4 °C 93 % 1031,3 hPa 0,0 mm 0,0 km/h (0 Bft) O-NO 66 ° 0 min 0,000 mm 0,0 UV-I 0 W/m² 6,3 °C 0,0 km/h (0 Bft)
29.10.2016 23:54 7,4 °C 7,4 °C 93 % 1031,4 hPa 0,0 mm 0,0 km/h (0 Bft) O-NO 66 ° 0 min 0,000 mm 0,0 UV-I 0 W/m² 6,3 °C 0,0 km/h (0 Bft)
29.10.2016 23:55 7,4 °C 7,4 °C 93 % 1031,4 hPa 0,0 mm 0,0 km/h (0 Bft) O-NO 66 ° 0 min 0,000 mm 0,0 UV-I 0 W/m² 6,3 °C 0,0 km/h (0 Bft)
29.10.2016 23:56 7,4 °C 7,4 °C 93 % 1031,4 hPa 0,0 mm 0,0 km/h (0 Bft) O-NO 66 ° 0 min 0,000 mm 0,0 UV-I 0 W/m² 6,3 °C 0,0 km/h (0 Bft)
29.10.2016 23:57 7,4 °C 7,5 °C 93 % 1031,4 hPa 0,0 mm 0,0 km/h (0 Bft) O-NO 66 ° 0 min 0,000 mm 0,0 UV-I 0 W/m² 6,3 °C 0,0 km/h (0 Bft)
29.10.2016 23:58 7,4 °C 7,5 °C 93 % 1031,5 hPa 0,0 mm 0,0 km/h (0 Bft) O-NO 66 ° 0 min 0,000 mm 0,0 UV-I 0 W/m² 6,3 °C 0,0 km/h (0 Bft)
29.10.2016 23:59 7,5 °C 7,5 °C 93 % 1031,5 hPa 0,0 mm 0,0 km/h (0 Bft) O-NO 66 ° 0 min 0,000 mm 0,0 UV-I 0 W/m² 6,4 °C 0,0 km/h (0 Bft)
_ Min-Zeit 02:25 02:25 11:53 23:32 - 23:59 - - - - - - 02:25 23:59
Minimum _ 1,4 °C 1,4 °C 72 % 1031,1 hPa - 0,0 km/h (0 Bft) - - - - - - 0,5 °C 0,0 km/h (0 Bft)
_ Max-Zeit 14:13 14:14 02:37 00:00 23:59 14:13 - - 14:32 14:01 13:35 14:30 14:12 15:28
Maximum _ 12,0 °C 12,0 °C 96 % 1035,4 hPa 0,0 mm 10,0 km/h
W-NW (2 Bft)
- - 1 min 0,127 mm 1,9 UV-I 285 W/m² 8,8 °C 14,5 km/h
N-NO (3 Bft)
Durchschnitt _ 7,1 °C 7,1 °C 89 % 1033,0 hPa #0,0 mm 1,6 km/h (1 Bft) NW - #5 min. #0,610 mm 1,2 UV-I 48 W/m² 5,4 °C 2,7 km/h (1 Bft)